[[{"header":{"parameterUnit":"m.s-1","parameterCategory":1,"la1":30.6,"la2":28.766,"lo1":-90.7593,"lo2":-88.6598,"dy":0.0162,"dx":0.0183,"nx":116,"ny":114,"refTime":"2023-08-25T00:00:00:Z","depth":0,"parameterNumber":2,"parameterNumberName":"U-component_of_WINDS"},"data":[0.0,0.0,0.0,0.0,0.0,0.0,0.0,0.0,0.0,0.0,0.0,0.0,0.0,0.0,0.0,0.0,0.0,0.0,0.0,0.0,0.0,0.0,0.0,0.0,0.0,0.0,0.0,0.0,0.0,0.0,0.0,0.0,0.0,0.0,0.0,0.0,0.0,0.0,0.0,0.0,0.0,0.0,0.0,0.0,0.0,0.0,0.0,0.0,0.0,0.0,0.0,0.0,0.0,0.0,0.0,0.0,0.0,0.0,0.0,0.0,0.0,0.0,0.0,0.0,0.0,0.0,0.0,0.0,0.0,0.0,0.0,0.0,0.0,0.0,0.0,0.0,0.0,0.0,0.0,0.0,0.0,0.0,0.0,0.0,0.0,0.0,0.0,0.0,0.0,0.0,0.0,0.0,0.0,0.0,0.0,0.0,0.0,0.0,0.0,0.0,0.0,0.0,0.0,0.0,0.0,0.0,0.0,0.0,0.0,0.0,0.0,0.0,0.0,0.0,0.0,0.0,0.0,0.0,0.0,0.0,0.0,0.0,0.0,0.0,0.0,0.0,0.0,0.0,0.0,0.0,0.0,0.0,0.0,0.0,0.0,0.0,0.0,0.0,0.0,0.0,0.0,0.0,0.0,0.0,0.0,0.0,0.0,0.0,0.0,0.0,0.0,0.0,0.0,0.0,0.0,0.0,0.0,0.0,0.0,0.0,0.0,0.0,0.0,0.0,0.0,0.0,0.0,0.0,0.0,0.0,0.0,0.0,0.0,0.0,0.0,0.0,0.0,0.0,0.0,0.0,0.0,0.0,0.0,0.0,0.0,0.0,0.0,0.0,0.0,0.0,0.0,0.0,0.0,0.0,0.0,0.0,0.0,0.0,0.0,0.0,0.0,0.0,0.0,0.0,0.0,0.0,0.0,0.0,0.0,0.0,0.0,0.0,0.0,0.0,0.0,0.0,0.0,0.0,0.0,0.0,0.0,0.0,0.0,0.0,0.0,0.0,0.0,0.0,0.0,0.0,0.0,0.0,0.0,0.0,0.0,0.0,0.0,0.0,0.0,0.0,0.0,0.0,0.0,0.0,0.0,0.0,0.0,0.0,0.0,0.0,0.0,0.0,0.0,0.0,0.0,0.0,0.0,0.0,0.0,0.0,0.0,0.0,0.0,0.0,0.0,0.0,0.0,0.0,0.0,0.0,0.0,0.0,0.0,0.0,0.0,0.0,0.0,0.0,0.0,0.0,0.0,0.0,0.0,0.0,0.0,0.0,0.0,0.0,0.0,0.0,0.0,0.0,0.0,0.0,0.0,0.0,0.0,0.0,0.0,0.0,0.0,0.0,0.0,0.0,0.0,0.0,0.0,0.0,0.0,0.0,0.0,0.0,0.0,0.0,0.0,0.0,0.0,0.0,0.0,0.0,0.0,0.0,0.0,0.0,0.0,0.0,0.0,0.0,0.0,0.0,0.0,0.0,0.0,0.0,0.0,0.0,0.0,0.0,0.0,0.0,0.0,0.0,0.0,0.0,0.0,0.0,0.0,0.0,0.0,0.0,0.0,0.0,0.0,0.0,0.0,0.0,0.0,0.0,0.0,0.0,0.0,0.0,0.0,0.0,0.0,0.0,0.0,0.0,0.0,0.0,0.0,0.0,0.0,0.0,0.0,0.0,0.0,0.0,0.0,0.0,0.0,0.0,0.0,0.0,0.0,0.0,0.0,0.0,0.0,0.0,0.0,0.0,0.0,0.0,0.0,0.0,0.0,0.0,0.0,0.0,0.0,0.0,0.0,0.0,0.0,0.0,0.0,0.0,0.0,0.0,0.0,0.0,0.0,0.0,0.0,0.0,0.0,0.0,0.0,0.0,0.0,0.0,0.0,0.0,0.0,0.0,0.0,0.0,0.0,0.0,0.0,0.0,0.0,0.0,0.0,0.0,0.0,0.0,0.0,0.0,0.0,0.0,0.0,0.0,0.0,0.0,0.0,0.0,0.0,0.0,0.0,0.0,0.0,0.0,0.0,0.0,0.0,0.0,0.0,0.0,0.0,0.0,0.0,0.0,0.0,0.0,0.0,0.0,0.0,0.0,0.0,0.0,0.0,0.0,0.0,0.0,0.0,0.0,0.0,0.0,0.0,0.0,0.0,0.0,0.0,0.0,0.0,0.0,0.0,0.0,0.0,0.0,0.0,0.0,0.0,0.0,0.0,0.0,0.0,0.0,0.0,0.0,0.0,0.0,0.0,0.0,0.0,0.0,0.0,0.0,0.0,0.0,0.0,0.0,0.0,0.0,0.0,0.0,0.0,0.0,0.0,0.0,0.0,0.0,0.0,0.0,0.0,0.0,0.0,0.0,0.0,0.0,0.0,0.0,0.0,0.0,0.0,0.0,0.0,0.0,0.0,0.0,0.0,0.0,0.0,0.0,0.0,0.0,0.0,0.0,0.0,0.0,0.0,0.0,0.0,0.0,0.0,0.0,0.0,0.0,0.0,0.0,0.0,0.0,0.0,0.0,0.0,0.0,0.0,0.0,0.0,0.0,0.0,0.0,0.0,0.0,0.0,0.0,0.0,0.0,0.0,0.0,0.0,0.0,0.0,0.0,0.0,0.0,0.0,0.0,0.0,0.0,0.0,0.0,0.0,0.0,0.0,0.0,0.0,0.0,0.0,0.0,0.0,0.0,0.0,0.0,0.0,0.0,0.0,0.0,0.0,0.0,0.0,0.0,0.0,0.0,0.0,0.0,0.0,0.0,0.0,0.0,0.0,0.0,0.0,0.0,0.0,0.0,0.0,0.0,0.0,0.0,0.0,0.0,0.0,0.0,0.0,0.0,0.0,0.0,0.0,0.0,0.0,0.0,0.0,0.0,0.0,0.0,0.0,0.0,0.0,0.0,0.0,0.0,0.0,0.0,0.0,0.0,0.0,0.0,0.0,0.0,0.0,0.0,0.0,0.0,0.0,0.0,0.0,0.0,0.0,0.0,0.0,0.0,0.0,0.0,0.0,0.0,0.0,0.0,0.0,0.0,0.0,0.0,0.0,0.0,0.0,0.0,0.0,0.0,0.0,0.0,0.0,0.0,0.0,0.0,0.0,0.0,0.0,0.0,0.0,0.0,0.0,0.0,0.0,0.0,0.0,0.0,0.0,0.0,0.0,0.0,0.0,0.0,0.0,0.0,0.0,0.0,0.0,0.0,0.0,0.0,0.0,0.0,0.0,0.0,0.0,0.0,0.0,0.0,0.0,0.0,0.0,0.0,0.0,0.0,0.0,0.0,0.0,0.0,0.0,0.0,0.0,0.0,0.0,0.0,0.0,0.0,0.0,0.0,0.0,0.0,0.0,0.0,0.0,0.0,0.0,0.0,0.0,0.0,0.0,0.0,0.0,0.0,0.0,0.0,0.0,0.0,0.0,0.0,0.0,0.0,0.0,0.0,0.0,0.0,0.0,0.0,0.0,0.0,0.0,0.0,0.0,0.0,0.0,0.0,0.0,0.0,0.0,0.0,0.0,0.0,0.0,0.0,0.0,0.0,0.0,0.0,0.0,0.0,0.0,0.0,0.0,0.0,0.0,0.0,0.0,0.0,0.0,0.0,0.0,0.0,0.0,0.0,0.0,0.0,0.0,0.0,0.0,0.0,0.0,0.0,0.0,0.0,0.0,0.0,0.0,0.0,0.0,0.0,0.0,0.0,0.0,0.0,0.0,0.0,0.0,0.0,0.0,0.0,0.0,0.0,0.0,0.0,0.0,0.0,0.0,0.0,0.0,0.0,0.0,0.0,0.0,0.0,0.0,0.0,0.0,0.0,0.0,0.0,0.0,0.0,0.0,0.0,0.0,0.0,0.0,0.0,0.0,0.0,0.0,0.0,0.0,0.0,0.0,0.0,0.0,0.0,0.0,0.0,0.0,0.0,0.0,0.0,0.0,0.0,0.0,0.0,0.0,0.0,0.0,0.0,0.0,0.0,0.0,0.0,0.0,0.0,0.0,0.0,0.0,0.0,0.0,0.0,0.0,0.0,0.0,0.0,0.0,0.0,0.0,0.0,0.0,0.0,0.0,0.0,0.0,0.0,0.0,0.0,0.0,0.0,0.0,0.0,0.0,0.0,0.0,0.0,0.0,0.0,0.0,0.0,0.0,0.0,0.0,0.0,0.0,0.0,0.0,0.0,0.0,0.0,0.0,0.0,0.0,0.0,0.0,0.0,0.0,0.0,0.0,0.0,0.0,0.0,0.0,0.0,0.0,0.0,0.0,0.0,0.0,0.0,0.0,0.0,0.0,0.0,0.0,0.0,0.0,0.0,0.0,0.0,0.0,0.0,0.0,0.0,0.0,0.0,0.0,0.0,0.0,0.0,0.0,0.0,0.0,0.0,0.0,0.0,0.0,0.0,0.0,0.0,0.0,0.0,0.0,0.0,0.0,0.0,0.0,0.0,0.0,0.0,0.0,0.0,0.0,0.0,0.0,0.0,0.0,0.0,0.0,0.0,0.0,0.0,0.0,0.0,0.0,0.0,0.0,0.0,0.0,0.0,0.0,0.0,0.0,0.0,0.0,0.0,0.0,0.0,0.0,0.0,0.0,0.0,0.0,0.0,0.0,0.0,0.0,0.0,0.0,0.0,0.0,0.0,0.0,0.0,0.0,0.0,0.0,0.0,0.0,0.0,0.0,0.0,0.0,0.0,0.0,0.0,0.0,0.0,0.0,0.0,0.0,0.0,0.0,0.0,0.0,0.0,0.0,0.0,0.0,0.0,0.0,0.0,0.0,0.0,0.0,0.0,0.0,0.0,0.0,0.0,0.0,0.0,0.0,0.0,0.0,0.0,0.0,0.0,0.0,0.0,0.0,0.0,0.0,0.0,0.0,0.0,0.0,0.0,0.0,0.0,0.0,0.0,0.0,0.0,0.0,0.0,0.0,0.0,0.0,0.0,0.0,0.0,0.0,0.0,0.0,0.0,0.0,0.0,0.0,0.0,0.0,0.0,0.0,0.0,0.0,0.0,0.0,0.0,0.0,0.0,0.0,0.0,0.0,0.0,0.0,0.0,0.0,0.0,0.0,0.0,0.0,0.0,0.0,0.0,0.0,0.0,0.0,0.0,0.0,0.0,0.0,0.0,0.0,0.0,0.0,0.0,0.0,0.0,0.0,0.0,0.0,0.0,0.0,0.0,0.0,0.0,0.0,0.0,0.0,0.0,0.0,0.0,0.0,0.0,0.0,0.0,0.0,0.0,0.0,0.0,0.0,0.0,0.0,0.0,0.0,0.0,0.0,0.0,0.0,0.0,0.0,0.0,0.0,0.0,0.0,0.0,0.0,0.0,0.0,0.0,0.0,0.0,0.0,0.0,0.0,0.0,0.0,0.0,0.0,0.0,0.0,0.0,0.0,0.0,0.0,0.0,0.0,0.0,0.0,0.0,0.0,0.0,0.0,0.0,0.0,0.0,0.0,0.0,0.0,0.0,0.0,0.0,0.0,0.0,0.0,0.0,0.0,0.0,0.0,0.0,0.0,0.0,0.0,0.0,0.0,0.0,0.0,0.0,0.0,0.0,0.0,0.0,0.0,0.0,0.0,0.0,0.0,0.0,0.0,0.0,0.0,0.0,0.0,0.0,0.0,0.0,0.0,0.0,0.0,0.0,0.0,0.0,0.0,0.0,0.0,0.0,0.0,0.0,0.0,0.0,0.0,0.0,0.0,0.0,0.0,0.0,0.0,0.0,0.0,0.0,0.0,0.0,0.0,0.0,0.0,0.0,0.0,0.0,0.0,0.0,0.0,0.0,0.0,0.0,0.0,0.0,0.0,0.0,0.0,0.0,0.0,0.0,0.0,0.0,0.0,0.0,0.0,0.0,0.0,0.0,0.0,0.0,0.0,0.0,0.0,0.0,0.0,0.0,0.0,0.0,0.0,0.0,0.0,0.0,0.0,0.0,0.0,0.0,0.0,0.0,0.0,0.0,0.0,0.0,0.0,0.0,0.0,0.0,0.0,0.0,0.0,0.0,0.0,0.0,0.0,0.0,0.0,0.0,0.0,0.0,0.0,0.0,0.0,0.0,0.0,0.0,0.0,0.0,0.0,0.0,0.0,0.0,0.0,0.0,0.0,0.0,0.0,0.0,2.7263,0.0,0.0,0.0,0.0,0.0,0.0,0.0,0.0,0.0,0.0,0.0,0.0,0.0,0.0,0.0,0.0,0.0,0.0,0.0,0.0,0.0,0.0,0.0,0.0,0.0,0.0,0.0,0.0,0.0,0.0,0.0,0.0,0.0,0.0,0.0,0.0,0.0,0.0,1.1466,1.3212,1.3471,1.2328,1.3484,1.4968,1.6456,0.0,0.0,0.0,0.0,0.0,0.0,0.0,0.0,0.0,0.0,0.0,0.0,0.0,0.0,0.0,0.0,0.0,0.0,0.0,0.0,0.0,0.0,0.0,0.0,0.0,0.0,0.0,0.0,0.0,0.0,0.0,0.0,0.0,0.0,0.0,0.0,0.0,0.0,0.0,0.0,0.0,0.0,0.0,0.0,0.0,0.0,0.0,0.0,0.0,0.0,0.0,0.0,0.0,0.0,0.0,0.0,0.0,0.0,0.0,0.0,0.0,0.0,0.0,0.0,0.0,0.0,0.0,0.0,0.0,0.0,0.0,2.475,0.0,0.0,0.0,0.0,0.0,0.0,0.0,0.0,0.0,0.0,0.0,0.0,0.0,0.0,0.0,0.0,0.0,0.0,0.0,0.0,0.0,0.0,0.0,0.0,2.0079,1.8789,1.7819,1.6764,0.0,0.0,0.0,0.0,0.0,0.0,0.0,1.026,1.0178,1.0611,1.1552,1.198,1.198,1.0869,1.177,1.4331,1.2915,0.0,0.0,0.0,0.0,0.0,0.0,0.0,0.0,0.0,0.0,0.0,0.0,0.0,0.0,0.0,0.0,0.0,0.0,0.0,0.0,0.0,0.0,0.0,0.0,0.0,0.0,0.0,0.0,0.0,0.0,0.0,0.0,0.0,0.0,0.0,0.0,0.0,0.0,0.0,0.0,0.0,0.0,0.0,0.0,0.0,0.0,0.0,0.0,0.0,0.0,0.0,0.0,0.0,0.0,0.0,0.0,0.0,0.0,0.0,0.0,0.0,0.0,0.0,2.7856,2.8238,2.776,2.7378,2.721,2.7093,2.5492,2.4332,2.3366,0.0,0.0,0.0,0.0,0.0,0.0,0.0,0.0,0.0,0.0,0.0,0.0,0.0,0.0,0.0,0.0,0.0,0.0,0.0,0.0,0.0,0.0,2.0566,1.9756,1.7658,1.7423,1.6445,0.0,0.0,0.0,0.0,0.0,0.0,1.2066,0.9131,0.8528,1.0611,1.0783,1.0778,1.0783,0.9666,0.9401,0.9822,1.1541,1.3008,1.423,0.0,0.0,0.0,0.0,0.0,0.0,0.0,0.0,0.0,0.0,0.0,0.0,0.0,0.0,0.0,0.0,0.0,0.0,0.0,0.0,0.0,0.0,0.0,0.0,0.0,0.0,0.0,0.0,0.0,0.0,0.0,0.0,0.0,0.0,0.0,0.0,0.0,0.0,0.0,0.0,0.0,3.6465,3.8351,0.0,0.0,0.0,0.0,0.0,0.0,0.0,0.0,0.0,0.0,0.0,0.0,0.0,0.0,2.5542,2.8104,2.898,2.8209,2.84,2.8479,2.8319,2.6376,2.5492,2.5437,2.383,0.0,2.282,2.1692,0.0,0.0,0.0,0.0,0.0,0.0,0.0,0.0,0.0,0.0,0.0,0.0,0.0,0.0,0.0,0.0,0.0,0.0,0.0,0.0,0.0,2.0245,1.9511,1.6683,1.6927,1.6363,1.425,1.4088,0.0,0.0,0.0,1.0524,1.0351,0.8269,0.7925,0.9666,0.8965,0.8607,0.8582,0.7464,0.6939,0.6916,0.8657,1.0062,1.1139,1.0616,0.0,0.0,0.0,0.0,0.0,0.0,0.0,0.0,0.0,0.0,0.0,0.0,0.0,0.0,0.0,0.0,0.0,0.0,0.0,0.0,0.0,0.0,0.0,0.0,0.0,0.0,0.0,0.0,0.0,0.0,0.0,0.0,0.0,0.0,0.0,0.0,0.0,0.0,0.0,3.4856,3.7013,3.8689,3.9057,3.8991,0.0,0.0,0.0,0.0,0.0,0.0,0.0,0.0,0.0,3.0291,2.9611,2.8967,2.8473,2.909,2.9104,2.8511,2.7599,2.6988,2.657,2.4153,2.307,2.2954,2.1351,2.0643,2.0643,2.0728,1.9706,1.8008,0.0,0.0,0.0,0.0,0.0,1.9198,0.0,0.0,0.0,0.0,0.0,0.0,0.0,0.0,0.0,0.0,0.0,0.0,1.959,1.9844,1.9107,1.6355,1.6601,1.6116,1.425,1.4088,0.0,1.2766,1.1386,1.0183,0.9323,0.8189,0.7841,0.8452,0.757,0.6939,0.6659,0.5526,0.49,0.4884,0.5769,0.7183,0.8873,0.8886,0.889,0.8978,0.0,0.0,0.0,0.0,0.0,0.0,0.0,0.0,0.0,0.0,0.0,0.0,0.0,0.0,0.0,0.0,0.0,0.0,0.0,0.0,0.0,0.0,0.0,0.0,0.0,0.0,0.0,0.0,0.0,0.0,0.0,0.0,0.0,0.0,0.0,0.0,0.0,3.6037,3.7415,3.9177,3.9277,3.8926,0.0,0.0,0.0,0.0,0.0,0.0,3.386,3.3134,3.2646,3.2422,3.1378,3.0854,3.0911,3.0096,2.9407,2.8759,2.7573,2.6741,2.6201,2.3077,2.1691,2.1556,1.934,1.839,1.8466,1.9403,1.9104,1.8008,1.7725,1.7345,1.7092,1.8459,1.8247,1.7803,0.0,0.0,0.0,0.0,0.0,0.0,0.0,0.0,0.0,0.0,0.0,2.1593,2.0634,1.9678,1.8559,1.7334,1.6355,1.5296,1.4166,1.4088,1.4088,1.3997,1.1826,1.0611,1.0524,0.9405,0.8277,0.7228,0.7105,0.6574,0.5445,0.4283,0.3659,0.3657,0.3746,0.5678,0.8831,0.8873,0.889,0.8803,0.7753,0.0,0.0,0.0,0.0,0.0,0.0,0.0,0.0,0.0,0.0,0.0,0.0,0.0,0.0,0.0,0.0,0.0,0.0,0.0,0.0,0.0,0.0,0.0,0.0,0.0,0.0,0.0,0.0,0.0,0.0,0.0,0.0,0.0,0.0,0.0,0.0,0.0,0.0,3.9698,3.9461,0.0,0.0,0.0,0.0,3.4475,3.4985,3.525,3.5036,3.4408,3.3851,3.335,3.2397,3.1515,3.0651,3.0499,3.0155,2.9529,2.946,2.9406,2.9198,2.4515,2.2366,2.2166,1.8335,1.6688,1.6757,1.7696,1.8066,1.794,1.7001,1.7151,1.7861,1.7929,1.8445,1.9348,0.0,0.0,0.0,0.0,0.0,0.0,0.0,0.0,2.2178,2.1231,2.0518,1.964,1.8621,1.8149,1.7172,1.5394,1.5545,1.5213,1.4166,1.3379,1.2942,1.2942,1.0702,0.9144,0.8356,0.7925,0.7489,0.7139,0.6328,0.5437,0.4196,0.3038,0.2057,0.1344,0.2057,0.3121,0.4353,0.5159,0.5518,0.552,0.5888,0.5983,0.0,0.0,0.0,0.0,0.0,0.0,0.0,0.0,0.0,0.0,0.0,0.0,0.0,0.0,0.0,0.0,0.0,0.0,0.0,0.0,0.0,0.0,0.0,0.0,0.0,0.0,0.0,0.0,0.0,0.0,0.0,0.0,0.0,0.0,0.0,0.0,0.0,3.9346,3.9292,0.0,3.7261,3.7321,3.6741,3.5143,3.5521,3.5677,3.5328,3.4239,3.3387,3.2895,3.1685,3.0852,3.0555,3.0122,2.9818,2.9579,2.8536,2.7423,2.6116,2.2047,1.9808,1.8942,1.6866,1.6227,1.6636,1.7579,1.8008,1.794,1.7647,1.8017,1.8726,1.8152,1.8536,1.9444,0.0,0.0,0.0,0.0,0.0,0.0,0.0,0.0,2.1298,2.0712,2.0001,1.9274,1.847,1.7738,1.669,1.5311,1.5137,1.4894,1.4173,1.2942,1.2328,1.2328,1.0096,0.854,0.7753,0.7316,0.7139,0.7139,0.5534,0.4374,0.357,0.1969,0.0807,0.0,0.0807,0.1165,0.1254,0.2057,0.2858,0.3659,0.4463,0.4821,0.491,0.0,0.0,0.0,0.0,0.0,0.0,0.0,0.0,0.0,0.0,0.0,0.0,0.0,0.0,0.0,0.0,0.0,0.0,0.0,0.0,0.0,0.0,0.0,0.0,0.0,0.0,0.0,0.0,0.0,0.0,0.0,0.0,0.0,0.0,0.0,3.9032,3.978,3.9312,3.8603,3.7827,3.748,3.6804,3.5508,3.5668,3.5504,3.4708,3.3659,3.2929,3.2586,3.1455,3.0678,3.026,3.0261,2.9915,2.9318,2.8843,2.7654,2.5728,2.1913,1.9576,1.8476,1.6638,1.6255,1.7106,1.7846,1.8223,1.8213,1.8066,1.8721,1.9628,1.8462,1.8721,1.9814,0.0,0.0,0.0,0.0,0.0,0.0,0.0,2.0566,2.0566,2.0566,2.0566,2.0557,2.0557,1.863,1.7261,1.7253,1.5394,1.4173,1.4088,1.2942,1.2237,1.2242,1.0096,0.889,0.889,0.7753,0.7139,0.7139,0.4727,0.357,0.357,0.1165,0.0,0.0,0.0,0.0,0.0,0.0,0.1344,0.3481,0.357,0.357,0.3659,0.0,0.0,0.0,0.0,0.0,0.0,0.0,0.0,0.0,0.0,0.0,0.0,0.0,0.0,0.0,0.0,0.0,0.0,0.0,0.0,0.0,0.0,0.0,0.0,0.0,0.0,0.0,0.0,0.0,0.0,0.0,0.0,0.0,3.9165,3.9406,3.9695,4.1016,3.9522,3.8395,3.8417,3.7172,3.6113,3.5447,3.5341,3.4725,3.3342,3.2801,3.2532,3.2461,3.1781,3.0881,2.9808,3.0793,3.0497,2.8795,3.0497,3.0348,2.8411,2.422,2.1831,2.0948,1.7578,1.6774,1.7897,1.839,1.8582,1.8463,1.8115,1.9044,2.0333,1.8654,1.911,2.059,0.0,0.0,0.0,0.0,0.0,0.0,0.0,2.0566,2.0566,2.0566,1.9923,1.9441,1.9441,1.8149,1.7009,1.6191,1.5621,1.4894,1.4166,1.2942,1.1895,1.1123,0.9666,0.889,0.889,0.7753,0.7139,0.7139,0.4727,0.357,0.357,0.1165,0.0,0.0,0.0,0.0,0.0,0.0,0.0359,0.1076,0.1969,0.2325,0.2413,0.0,0.0,0.0,0.0,0.0,0.0,0.0,0.0,0.0,0.0,0.0,0.0,0.0,0.0,0.0,0.0,0.0,0.0,0.0,0.0,0.0,0.0,0.0,0.0,0.0,0.0,0.0,0.0,0.0,0.0,0.0,0.0,3.7614,3.917,3.9567,3.9949,4.0609,3.9349,3.8395,3.8417,3.684,3.5554,3.4875,3.4382,3.3721,3.2817,3.213,3.1174,2.9872,2.9657,2.9383,2.9114,2.8066,2.7964,2.8795,2.7131,2.5432,2.3541,2.0767,1.9335,1.8948,1.6493,1.5833,1.6514,1.7548,1.7412,1.6746,1.7609,1.8654,1.9497,1.8395,1.8721,1.9694,0.0,0.0,0.0,0.0,0.0,0.0,0.0,2.0857,2.0566,2.0566,2.0079,1.9678,1.9678,1.8709,1.7577,1.6437,1.5944,1.5213,1.4166,1.2942,1.1809,1.0611,0.9492,0.889,0.889,0.7753,0.7139,0.7139,0.4727,0.357,0.357,0.1165,0.0,0.0,0.0,0.0,0.0,0.0,0.0,0.009,0.0808,0.1076,0.1165,0.2413,0.3306,0.402,0.5001,0.5805,0.6428,0.6962,0.0,0.0,0.0,0.0,0.0,0.0,0.0,0.0,0.0,0.0,0.0,0.0,0.0,0.0,0.0,0.0,0.0,0.0,0.0,0.0,0.0,0.0,0.0,0.0,3.6807,3.8455,3.943,3.9757,3.9979,4.0175,3.9147,3.8266,3.7854,3.6248,3.4894,3.4235,3.3531,3.2895,3.216,3.1739,3.0999,2.9958,2.9958,2.9198,2.7693,2.7354,2.6999,2.6455,2.634,2.4632,2.1638,2.0696,1.963,0.0,1.6781,1.6705,1.7917,1.8442,1.8209,0.0,0.0,0.0,0.0,0.0,1.9052,1.9808,0.0,0.0,0.0,0.0,0.0,0.0,0.0,2.1375,2.0789,2.0934,2.0867,2.0789,2.0934,1.9982,1.8859,1.773,1.6593,1.5379,1.4166,1.3118,1.1986,1.0869,0.9662,0.9065,0.889,0.7753,0.7139,0.7139,0.4727,0.357,0.357,0.1165,0.0,0.0,0.0,0.0,0.0,0.0,0.0,0.0,0.0,0.0,0.009,0.1165,0.17,0.2057,0.4376,0.527,0.5536,0.6694,0.0,0.0,0.0,0.0,0.0,0.0,0.0,0.0,0.0,0.0,0.0,0.0,0.0,0.0,0.0,0.0,0.0,0.0,0.0,0.0,0.0,0.0,0.0,0.0,3.7077,3.883,3.9823,3.992,3.988,3.9815,3.8973,3.8046,3.7084,3.5529,3.4333,3.3633,3.2986,3.2272,3.1539,0.0,0.0,0.0,0.0,2.9534,2.6118,2.7485,2.6668,2.3652,2.6575,2.5815,2.1702,2.2129,2.1215,1.9237,1.773,1.8301,2.0187,1.9908,1.9829,1.9941,1.9473,1.9165,1.9035,1.9035,1.9643,0.0,0.0,0.0,0.0,0.0,0.0,0.0,0.0,2.2403,2.2038,2.285,2.2264,2.2038,2.2861,2.2017,2.1008,1.9896,1.8106,1.6198,1.425,1.3906,1.3209,1.198,1.0869,0.9836,0.889,0.7753,0.7139,0.7139,0.4727,0.357,0.357,0.1165,0.0,0.0,0.0,0.0,0.0,0.0,0.0,0.0,0.0,0.0,0.0,0.0269,0.0986,0.1969,0.3393,0.4554,0.5536,0.6694,0.7139,0.7139,0.7139,0.7139,0.0,0.0,0.0,0.0,0.0,0.0,0.0,0.0,0.0,0.0,0.0,0.0,0.0,0.0,0.0,0.0,0.0,0.0,0.0,3.6824,3.8219,3.9406,4.0185,4.0068,3.9887,3.9794,3.8961,3.8021,3.7096,3.5529,3.4333,3.3633,3.2986,3.2272,3.1539,3.1482,0.0,2.7275,2.8579,2.8311,2.6118,2.4963,2.4753,2.5573,0.0,0.0,2.1638,1.9963,1.9926,2.0949,1.7476,1.6724,1.7957,1.884,1.9643,2.0361,1.959,1.9277,1.9268,1.9268,1.934,1.9568,0.0,0.0,0.0,0.0,0.0,0.0,0.0,2.3368,2.2925,2.3441,2.3073,2.2776,2.2776,2.2328,2.1161,1.9043,1.739,1.5794,1.4166,1.4573,1.4126,1.2413,1.1209,1.0096,0.889,0.7753,0.7139,0.7139,0.5354,0.4194,0.357,0.1791,0.0539,0.0,0.0,0.0,0.0,0.0,0.0,0.0,0.0,0.0,0.0,0.0,0.0359,0.1165,0.2948,0.4016,0.473,0.6514,0.7139,0.7139,0.7139,0.7139,0.6962,0.0,0.0,0.0,0.0,0.0,0.0,0.0,0.0,0.0,0.0,0.0,0.0,0.0,0.0,3.0994,0.0,0.0,3.6898,3.8089,3.9118,3.9925,4.0369,4.0121,3.9699,3.9148,3.8504,3.7508,3.5946,3.479,3.3836,3.3145,3.2477,3.191,3.1524,3.1482,3.0704,2.8844,2.9671,2.926,2.7485,2.6534,2.605,2.6118,2.5555,2.3979,2.1712,2.146,2.1002,2.0275,1.824,1.7954,1.8964,1.958,2.0372,2.1257,2.0812,2.0352,1.9922,1.9883,2.0173,2.0565,0.0,0.0,0.0,0.0,0.0,0.0,0.0,2.4409,2.3891,2.4036,2.3891,2.3588,2.2914,2.2553,2.1008,1.7891,1.6846,1.5869,1.4817,1.5296,1.4768,1.2741,1.1552,1.0265,0.889,0.7929,0.7316,0.7139,0.5983,0.491,0.3927,0.2503,0.1254,0.0359,0.009,0.0,0.0,0.0,0.0,0.0,0.0,0.0,0.0,0.0,0.0,0.0359,0.2771,0.357,0.3926,0.6334,0.7139,0.7139,0.7139,0.7139,0.6874,0.5714,0.6071,0.0,0.0,0.0,0.0,0.0,0.0,0.0,0.0,2.2805,2.5995,2.7675,3.0527,3.323,3.4759,3.6666,3.8255,3.8992,3.9755,4.0333,4.0549,4.0189,3.9563,3.8659,3.8119,3.6963,3.4816,3.4137,3.3443,3.2641,3.2064,3.164,3.1539,3.1482,3.1336,3.0984,3.1336,3.0437,2.8311,2.8592,2.79,2.6118,2.79,2.6591,2.2575,2.3815,2.275,1.9847,1.9492,1.9766,2.0644,2.0789,2.1298,2.2027,2.2403,2.1962,2.1155,2.1074,2.1532,2.2178,0.0,0.0,0.0,0.0,0.0,0.0,0.0,0.0,2.5146,2.6025,2.537,2.5146,2.5943,2.4397,2.2071,1.9107,1.8718,1.8149,1.7017,1.6191,1.5094,1.3898,1.2735,1.1123,0.8978,0.8803,0.8189,0.7139,0.5983,0.5359,0.5179,0.2861,0.1701,0.1522,0.0449,0.0,0.0,0.0,0.0,0.0,0.0,0.0,0.0,0.0,0.0,0.0359,0.2771,0.357,0.3926,0.6334,0.7139,0.7139,0.7139,0.7139,0.6874,0.5714,0.5447,0.5356,0.4105,0.7703,1.2492,1.5751,1.8967,2.1824,0.0,2.6278,2.8547,3.0236,3.2604,3.4805,3.6357,3.7202,3.8054,3.9237,3.9963,4.0518,4.0893,4.0331,3.9695,3.9155,3.8331,3.6963,3.4816,3.4528,3.3987,3.2695,3.2532,3.2176,3.1524,3.1482,3.0778,2.9136,3.0645,2.9868,2.6467,2.7978,2.79,2.6118,2.79,2.7679,2.5605,2.4747,2.3814,2.2739,2.1094,2.0489,2.0634,2.1517,2.1886,2.2178,2.3963,2.4036,2.3147,2.3136,2.3209,2.322,0.0,0.0,0.0,0.0,0.0,0.0,0.0,0.0,0.0,0.0,2.6094,2.5804,2.5664,2.3239,2.0988,1.9195,1.9036,1.8559,1.7334,1.7496,1.6822,1.5094,1.3911,1.2213,0.9923,0.9235,0.8277,0.7139,0.6605,0.6071,0.5359,0.4376,0.3129,0.179,0.1254,0.0628,0.0,0.0,0.0449,0.1076,0.1076,0.1433,0.2057,0.2057,0.2057,0.2236,0.3215,0.357,0.0,0.6334,0.7139,0.7139,0.7139,0.7139,0.6962,0.6517,0.6425,0.6678,0.819,1.0768,1.3981,1.7987,2.0903,2.3262,2.532,2.7536,2.9734,3.1429,3.3632,3.5759,3.7324,3.815,3.895,0.0,4.0434,4.0723,4.0974,4.037,3.9719,3.9261,3.8151,3.6812,3.5227,3.443,3.3786,3.3235,3.2841,3.2492,3.2176,3.1739,3.1131,3.0377,3.1131,3.0778,2.926,3.0018,3.0018,2.9246,3.0018,2.9397,2.7628,2.6097,2.4072,2.1673,2.0914,2.0566,2.0712,2.2179,2.2774,2.3062,2.4992,2.5521,2.5205,2.4552,2.4337,2.4264,0.0,0.0,0.0,0.0,0.0,0.0,0.0,0.0,0.0,0.0,2.6658,2.6094,2.5087,2.2796,2.0834,1.9885,1.959,1.9116,1.8221,1.8709,1.8141,1.6191,1.5087,1.34,1.1123,1.0265,0.9144,0.7577,0.7577,0.7044,0.5894,0.5536,0.4465,0.2772,0.2415,0.179,0.0986,0.0986,0.1522,0.2324,0.2324,0.286,0.357,0.357,0.357,0.3659,0.4016,0.4105,0.4372,0.6425,0.7139,0.7139,0.7139,0.7139,0.7051,0.6694,0.6599,0.745,1.107,1.3105,1.519,1.9686,2.2412,2.4472,2.6163,2.8699,3.111,3.2504,3.465,3.6716,3.8053,3.8831,3.961,4.0575,4.0784,4.0844,4.0974,4.0372,3.9719,3.9206,3.7792,3.6504,3.5518,3.4653,3.3987,3.3633,3.2647,3.2017,3.181,3.1144,3.0778,3.0778,3.1263,3.1263,3.0778,3.1263,3.1263,3.0778,3.1263,3.0288,2.7978,2.5642,2.3663,2.2093,2.1532,2.1607,2.2232,2.3818,2.4365,2.4422,2.6083,2.6773,2.6714,2.5791,2.5441,2.5288,0.0,0.0,0.0,0.0,0.0,0.0,0.0,0.0,0.0,0.0,0.0,0.0,0.0,2.4036,2.2988,2.2027,2.1078,2.0566,2.0489,1.952,1.8479,1.7342,1.6191,1.4601,1.2328,1.2242,1.1123,0.8803,0.8803,0.8189,0.7051,0.5894,0.5359,0.527,0.4105,0.3481,0.3481,0.3481,0.3481,0.357,0.357,0.357,0.357,0.357,0.357,0.3748,0.4912,0.5359,0.5536,0.6694,0.7139,0.7139,0.7139,0.7139,0.6874,0.5805,0.5429,0.6343,1.0753,1.3519,1.6285,2.0767,2.4068,2.6418,2.7092,3.0263,3.3203,3.3891,3.5925,3.7802,3.8646,3.9064,3.9629,4.0633,4.0808,4.0843,4.0989,4.0365,3.9681,3.9087,3.7307,3.5931,0.0,3.5476,3.5005,3.3684,3.189,3.0552,2.9927,2.9285,2.8872,2.8872,3.0571,3.0645,2.8872,3.0645,3.0645,2.8934,3.0645,2.9596,2.605,2.2445,2.2646,2.5847,2.3999,2.4272,2.5983,2.6985,2.6943,2.6289,2.7298,2.767,2.7537,2.6782,2.6452,2.644,0.0,0.0,0.0,0.0,0.0,0.0,0.0,0.0,0.0,0.0,0.0,0.0,0.0,0.0,0.0,0.0,2.1735,2.1221,2.0644,2.0245,1.9599,1.8479,1.7334,1.5756,1.3484,1.2656,1.1552,1.0009,0.9235,0.8715,0.8277,0.7044,0.616,0.5359,0.4999,0.4374,0.357,0.357,0.4105,0.4821,0.4821,0.5703,0.7024,0.6236,0.6413,0.7027,0.0,0.6071,0.5536,0.6694,0.7139,0.7139,0.7139,0.7139,0.7224,0.757,0.8229,0.9705,1.4131,1.6913,1.9564,2.375,2.6485,2.852,3.0075,3.2211,3.4166,3.522,3.7006,3.8459,3.8755,3.9583,4.0342,4.0665,4.0772,4.0821,4.0851,4.041,3.9835,3.9095,3.7889,0.0,0.0,0.0,0.0,3.3633,3.2616,3.1916,3.1667,3.0998,3.0571,3.0571,3.119,3.1204,3.0585,3.1204,3.119,3.0571,3.1721,3.0952,2.8484,2.726,2.6726,2.6673,2.5648,2.5505,2.6186,2.7719,2.7838,2.7275,2.8807,2.9066,2.8556,2.8247,2.8182,2.8051,0.0,0.0,0.0,0.0,0.0,0.0,0.0,0.0,0.0,0.0,0.0,0.0,0.0,0.0,0.0,0.0,0.0,2.1735,2.1155,2.0789,1.9913,1.847,1.7666,1.6257,1.4099,1.3353,1.2163,1.0611,1.0269,0.9488,0.8277,0.7929,0.7132,0.5983,0.5983,0.5534,0.4816,0.4816,0.5265,0.5983,0.5983,0.7129,0.8803,0.8017,0.8452,0.0,0.8619,0.791,0.7291,0.7661,0.7753,0.7841,0.8185,0.8356,0.8607,1.0201,1.1363,1.3233,1.7533,2.0239,2.2593,2.5996,2.8333,3.0247,3.2021,3.3697,3.5304,3.6501,3.7977,3.9076,3.9076,3.9965,4.0703,4.0733,4.0778,4.0796,4.0794,4.0213,3.9488,3.8785,3.7785,3.6558,0.0,0.0,0.0,3.3582,3.2362,3.1596,3.1596,3.0925,3.0228,2.9596,3.0837,3.119,3.0511,3.119,3.1482,3.1524,3.1825,3.1561,3.0761,2.9707,2.9185,2.9012,2.7917,2.7677,2.8093,2.9274,2.9302,2.8598,2.9846,2.995,2.9442,2.9129,2.938,2.9766,0.0,0.0,0.0,0.0,0.0,0.0,0.0,0.0,0.0,0.0,0.0,0.0,0.0,0.0,0.0,0.0,0.0,0.0,2.2027,2.1155,1.9668,1.7577,1.7334,1.637,1.4334,1.4166,1.3039,1.0783,1.1729,1.0514,0.7316,0.8364,0.8193,0.7139,0.7139,0.7139,0.7139,0.7139,0.7139,0.7139,0.7139,0.7841,0.8978,0.889,0.9666,1.0697,1.0611,1.0611,1.0438,0.9323,0.9061,0.9318,1.0514,1.0854,1.1252,1.3291,1.4767,1.6549,2.0642,2.321,2.5192,2.7313,2.9591,3.1637,3.2895,3.4705,3.6444,3.7683,3.8832,3.9599,3.9622,4.0215,4.0717,4.0779,4.0792,4.0801,4.08,3.9774,3.8792,0.0,0.0,0.0,0.0,0.0,0.0,3.3495,0.0,2.9882,2.9882,2.9285,2.8106,2.632,2.9718,3.0704,2.8795,3.063,3.1582,3.1524,3.1144,3.1576,3.261,2.974,2.9959,3.261,3.0746,3.0544,3.1524,3.1539,3.1029,3.0329,3.0329,3.0329,3.0269,2.9442,3.0133,3.1409,0.0,0.0,0.0,0.0,0.0,0.0,0.0,0.0,0.0,0.0,0.0,0.0,0.0,0.0,0.0,0.0,0.0,0.0,2.2027,2.1155,2.0323,1.9756,1.8141,1.7017,1.6527,1.4901,1.3828,1.3215,1.1735,1.0605,0.9657,0.8273,0.7401,0.7139,0.7139,0.7139,0.7139,0.7139,0.7139,0.7139,0.7139,0.8356,1.0091,0.9235,1.0096,1.1724,1.0864,1.0611,1.0524,1.0265,1.0666,1.164,1.3559,1.4111,1.4501,1.6628,1.8065,1.9707,2.2911,2.4857,2.646,2.901,3.0482,3.1885,3.41,3.5351,3.6605,3.8414,3.9219,3.9668,3.9922,4.0401,4.0775,4.0799,4.0801,0.0,4.081,3.9882,0.0,3.818,3.7309,3.5931,3.3804,3.3582,0.0,0.0,3.142,3.1086,3.1086,3.0881,2.9958,2.817,3.0822,3.1172,2.8795,3.1172,3.2327,3.2327,3.3232,3.3792,3.4071,3.3294,3.3377,3.4021,3.254,3.2053,3.2272,3.1739,3.1409,3.1219,3.1219,3.1219,3.1161,3.097,3.1146,3.1407,0.0,0.0,0.0,0.0,0.0,0.0,0.0,0.0,0.0,0.0,0.0,0.0,0.0,0.0,0.0,0.0,0.0,0.0,0.0,2.1155,2.0401,1.9923,1.8709,1.7577,1.6601,1.5387,1.4307,1.3294,1.2516,1.1649,1.0611,0.974,0.9135,0.8619,0.8619,0.8619,0.8619,0.8619,0.8619,0.0,0.0,0.974,1.1295,1.1193,1.2213,1.3756,1.3562,1.3858,1.431,1.4717,1.5032,1.5338,1.6501,1.6814,1.7355,1.9898,2.1321,2.2717,2.5298,2.7196,2.8886,3.0348,3.1916,3.3512,3.5148,3.6249,3.7327,3.8803,3.9364,3.969,4.0022,4.0492,4.0795,4.0799,0.0,0.0,4.0815,3.9808,3.885,3.818,3.7005,3.5547,3.3754,3.3339,3.268,0.0,3.1482,3.1482,3.1482,3.1482,3.0645,2.8872,3.094,3.1071,2.8795,3.0485,3.1381,3.1381,3.3264,3.4333,3.4576,3.4576,3.4431,3.4137,0.0,3.268,3.2064,3.1697,3.1482,3.1524,3.1853,3.1796,3.1539,3.1838,3.16,3.1031,0.0,0.0,0.0,0.0,0.0,0.0,0.0,0.0,0.0,0.0,0.0,0.0,0.0,0.0,0.0,0.0,0.0,0.0,0.0,0.0,2.0167,1.9274,1.9116,1.806,1.5944,1.5779,1.4692,1.2504,1.347,1.2863,1.0869,1.1638,1.1552,1.0611,1.0611,1.0611,1.0611,1.0611,1.0611,1.0611,1.0611,1.1381,1.2656,0.0,1.483,1.6026,1.6927,1.8152,1.9344,2.0091,1.9849,1.9256,1.9568,1.9705,2.0379,2.3167,2.4601,2.5704,2.767,2.9746,3.1471,3.1667,3.3544,3.5528,3.6063,3.7108,3.819,3.898,3.9414,3.9775,4.012,4.0528,4.0803,4.0801,4.0796,4.0791,4.0716,3.9618,3.8628,3.8187,3.6591,3.504,3.3788,3.313,3.2367,3.1582,3.1482,3.1482,3.1482,3.1482,3.0837,2.9369,3.0497,3.0601,2.9464,2.9954,3.0192,3.0353,3.2554,3.3887,3.4479,3.4479,3.4137,3.3598,0.0,0.0,3.164,3.1524,3.1582,3.1697,3.2216,3.212,3.1682,3.2272,3.1677,3.0588,0.0,0.0,0.0,0.0,0.0,0.0,0.0,0.0,0.0,0.0,2.9066,2.8684,0.0,0.0,0.0,0.0,0.0,0.0,0.0,0.0,0.0,2.0323,1.9441,1.839,1.7009,1.6191,1.5047,1.3822,1.3027,1.2413,1.198,1.1209,1.0778,1.0611,1.0611,1.0611,1.0611,1.0611,1.0611,1.0611,1.0611,1.1878,1.373,1.3898,0.0,0.0,1.7253,1.9076,2.1257,2.0641,2.0851,2.1645,2.3363,2.4424,2.5293,2.6561,2.7967,2.9318,3.038,3.1369,3.2415,3.3512,3.4598,3.5659,3.6545,3.7556,3.8534,3.9346,3.9775,4.0139,4.0523,4.0704,4.0803,4.0798,4.0801,4.0682,4.0348,3.9453,3.8683,3.837,3.7088,3.5701,3.433,3.3705,0.0,0.0,0.0,3.1482,3.1482,3.1482,3.1667,3.1957,3.0201,3.0381,3.2739,3.2353,3.2392,3.2951,3.3395,3.3633,3.3786,3.3786,3.3684,3.3598,0.0,0.0,3.2382,3.1739,3.1853,3.2382,3.191,3.2007,3.2327,3.1853,3.1496,3.1121,0.0,0.0,0.0,0.0,0.0,0.0,0.0,3.1364,3.0389,2.9192,2.862,2.7986,2.7162,2.6714,2.5873,0.0,0.0,0.0,0.0,0.0,0.0,0.0,2.0089,1.9353,1.823,1.709,1.6034,1.4894,0.0,1.3203,1.3209,1.2693,1.2431,1.2431,1.2431,1.2431,1.2431,1.2431,1.2431,1.2431,1.2431,1.3425,1.492,0.0,0.0,0.0,2.0362,2.1782,2.3436,2.2933,2.3754,2.5025,2.5542,2.6473,2.7641,2.8647,3.0024,3.1377,3.2052,3.3073,3.412,3.5037,3.5956,3.6841,3.7327,3.8113,3.8915,3.9486,3.988,4.0215,4.063,4.0758,4.0809,4.0797,4.0673,4.049,4.0231,3.9476,3.872,3.8072,3.696,3.5762,3.4587,3.3939,3.3182,0.0,0.0,3.1894,3.1524,3.1482,3.164,3.2007,2.99,2.9511,3.1066,3.0778,3.0981,3.1612,3.2228,3.2864,3.3582,3.3235,3.3093,3.3039,3.2749,0.0,3.2007,3.164,3.1951,3.2532,3.2216,3.2272,3.254,3.2183,3.1557,3.0809,0.0,0.0,0.0,0.0,0.0,0.0,0.0,3.094,3.0011,2.9129,2.8247,2.7417,2.6589,2.6533,2.5721,0.0,0.0,0.0,0.0,0.0,0.0,0.0,0.0,0.0,0.0,0.0,0.0,1.6026,1.5228,0.0,0.0,0.0,0.0,0.0,1.4824,1.4824,1.4824,1.4824,1.4824,0.0,0.0,1.547,0.0,0.0,0.0,0.0,0.0,2.412,2.5004,2.5004,2.6408,2.8036,2.7314,2.8015,2.9308,3.0249,3.1602,3.2893,3.345,3.4579,3.5736,3.6359,3.7273,3.8026,3.8125,3.8755,3.9408,3.966,4.0,4.0345,4.0704,4.078,4.0808,4.0799,4.0552,4.0284,4.0087,3.9421,3.8623,3.7778,3.6773,0.0,3.4858,3.417,0.0,0.0,0.0,0.0,3.1539,3.1482,3.1482,3.1482,3.0093,2.9459,2.9614,2.9459,2.9708,3.0412,3.1144,3.2104,3.313,3.2571,3.2382,3.2382,3.2382,0.0,0.0,3.1482,3.2007,3.2788,3.2477,3.2439,3.256,3.2361,3.1533,3.0398,0.0,0.0,0.0,0.0,0.0,0.0,0.0,3.1261,3.0011,2.9129,2.8247,2.7417,2.6589,2.6533,2.5721,0.0,0.0,0.0,0.0,0.0,0.0,0.0,0.0,0.0,0.0,0.0,0.0,1.7172,1.7009,0.0,0.0,0.0,0.0,0.0,0.0,1.7017,1.7017,1.7017,0.0,0.0,0.0,0.0,0.0,0.0,0.0,0.0,0.0,2.412,2.5004,2.5004,2.7155,2.9768,2.9708,3.0277,3.1198,3.187,3.3201,3.4526,3.5036,3.5744,3.6545,3.7506,3.8038,3.8462,3.8897,3.951,4.004,4.0131,4.0423,4.0704,4.0927,4.0875,4.0798,4.0799,4.0457,4.0087,3.9702,3.8951,3.8308,3.7925,0.0,0.0,3.5402,3.4811,0.0,0.0,0.0,0.0,0.0,3.1482,3.1482,3.1482,3.1336,3.158,3.221,3.158,3.1637,3.2321,3.1781,3.1582,3.1682,3.164,3.1582,3.1582,0.0,0.0,0.0,3.1482,3.2296,3.3391,3.2104,3.2037,3.2522,3.1779,3.1036,3.0307,0.0,0.0,0.0,0.0,0.0,0.0,3.1951,3.054,2.938,2.9066,2.7802,2.685,2.6521,2.5955,2.4992,2.3599,0.0,0.0,0.0,0.0,0.0,0.0,0.0,0.0,0.0,0.0,1.8798,1.831,1.7666,0.0,0.0,0.0,0.0,0.0,0.0,1.7342,1.7342,1.7342,0.0,0.0,0.0,0.0,0.0,0.0,0.0,0.0,0.0,0.0,2.665,2.665,2.8484,3.0836,3.1237,3.2269,3.3403,3.3974,3.4914,3.5882,3.6663,3.7102,3.7506,3.8394,3.8707,3.8934,3.9314,3.9775,4.0119,4.0191,4.046,4.0745,4.0855,4.084,4.0711,4.0472,4.0174,3.9806,3.9352,3.8619,3.7941,3.7542,3.6825,0.0,0.0,0.0,0.0,0.0,0.0,0.0,0.0,3.1936,3.1482,3.1482,3.1482,3.164,3.1966,3.164,3.164,3.1951,3.164,3.1482,3.1482,3.1482,3.1482,3.1482,0.0,0.0,0.0,3.1482,3.2104,3.2848,3.144,3.1381,3.1856,3.067,3.0315,3.0258,0.0,0.0,0.0,0.0,0.0,3.1736,3.1204,2.969,2.862,2.862,2.7351,2.6383,2.6094,2.5441,2.4492,2.3147,2.3073,0.0,0.0,0.0,0.0,0.0,0.0,0.0,0.0,0.0,1.9441,1.9441,1.8709,1.831,0.0,0.0,1.831,1.831,0.0,0.0,0.0,0.0,0.0,0.0,0.0,0.0,0.0,0.0,0.0,0.0,0.0,0.0,0.0,0.0,0.0,3.1708,3.24,3.3759,3.5215,3.5569,3.6011,3.6603,3.7649,3.7977,3.8204,3.8915,3.9238,3.9462,3.969,4.0002,4.0291,4.0349,4.0607,4.0804,4.0848,4.0823,4.0668,4.0272,3.9943,3.9595,3.9144,3.83,3.7578,3.7248,0.0,3.6028,0.0,0.0,0.0,0.0,0.0,0.0,0.0,3.2756,3.2048,3.1853,3.164,3.1482,3.1482,3.1482,3.1482,3.1482,3.1482,3.1482,3.1482,3.1482,3.1482,3.1482,0.0,0.0,0.0,3.1482,3.1845,3.2191,3.0951,3.0691,3.0902,3.0074,2.9911,2.9986,0.0,0.0,0.0,0.0,0.0,0.0,3.0329,2.8812,2.7736,2.7736,2.704,2.6094,2.5158,2.5016,2.4192,2.2178,2.2027,0.0,0.0,0.0,0.0,0.0,0.0,0.0,0.0,0.0,2.0566,2.0566,2.0566,2.0566,2.0566,2.0566,2.0566,2.0566,0.0,0.0,0.0,0.0,0.0,0.0,0.0,0.0,0.0,0.0,0.0,0.0,0.0,0.0,0.0,0.0,0.0,0.0,0.0,3.4692,3.6374,3.6374,3.6374,3.6603,3.7649,3.8122,3.8504,3.898,3.9599,4.0101,4.0101,4.0417,4.0716,4.0793,4.0908,4.0994,4.1006,4.0885,4.0674,4.027,3.9867,3.9481,3.9152,3.8023,3.7228,0.0,0.0,3.5622,0.0,0.0,0.0,0.0,0.0,0.0,0.0,3.3937,3.3287,3.2586,3.191,3.1482,3.1482,3.1482,3.1482,3.1482,3.1482,3.1482,3.1482,3.1482,3.1482,0.0,0.0,0.0,0.0,3.1482,3.1571,3.1542,3.0769,3.0167,2.9666,3.0228,2.9968,2.9422,0.0,0.0,0.0,0.0,0.0,0.0,0.0,2.8812,2.7445,2.6857,2.602,2.5075,2.4108,2.3368,2.2702,2.2027,2.2027,0.0,0.0,0.0,0.0,0.0,0.0,0.0,0.0,0.0,2.0566,2.0566,2.0566,2.0566,2.0566,2.0566,2.0566,2.0566,2.0566,0.0,0.0,0.0,0.0,0.0,0.0,0.0,0.0,0.0,0.0,0.0,0.0,0.0,0.0,0.0,0.0,0.0,0.0,0.0,0.0,3.723,3.7613,3.7917,3.8559,3.8961,3.9327,3.969,3.9996,4.0233,4.0456,4.0649,4.0793,4.0908,4.0908,4.0851,4.0855,4.0611,4.0252,3.9848,3.9476,3.9034,3.8363,0.0,0.0,3.6684,3.6011,3.5622,0.0,0.0,0.0,0.0,0.0,0.0,0.0,3.464,3.3987,3.3287,3.3077,3.2917,3.2917,3.2917,3.2917,3.2917,3.2477,3.2272,3.2216,3.1739,0.0,0.0,0.0,0.0,0.0,3.1227,3.0814,3.0734,2.9642,2.9094,2.8864,2.8564,2.8857,2.9271,0.0,0.0,0.0,0.0,0.0,0.0,0.0,2.7828,2.6501,2.5914,2.5028,2.4036,2.3073,2.2403,2.1886,2.1517,2.1441,0.0,0.0,0.0,0.0,0.0,0.0,0.0,2.0566,2.0566,2.0566,2.0566,2.0566,2.0566,2.0566,2.0566,2.0566,2.0566,2.0566,2.0566,0.0,0.0,0.0,0.0,0.0,0.0,2.5581,0.0,0.0,0.0,0.0,0.0,0.0,0.0,0.0,0.0,0.0,0.0,0.0,0.0,3.8358,3.8897,3.9034,3.9438,3.9838,4.0078,4.0272,4.044,4.0687,4.0819,4.0882,4.0916,4.0894,4.0857,4.0771,4.046,4.007,3.9683,3.9175,3.8619,3.7995,0.0,0.0,3.6182,0.0,0.0,0.0,0.0,0.0,0.0,0.0,0.0,0.0,0.0,3.48,3.435,3.3836,3.3582,3.3582,3.3582,3.3582,3.3582,3.3198,3.2841,3.2586,3.2367,0.0,0.0,0.0,0.0,0.0,3.0839,3.0223,2.9699,2.8906,2.8442,2.821,2.8293,2.8638,2.9012,0.0,0.0,0.0,0.0,0.0,0.0,0.0,2.6239,2.5087,2.4933,2.4108,2.3073,2.2027,2.1886,2.1517,2.0644,0.0,0.0,0.0,0.0,0.0,0.0,0.0,0.0,2.0712,2.0712,2.0712,2.0712,2.0712,2.0634,2.0566,2.0566,2.0566,2.0566,2.0566,2.0644,0.0,0.0,0.0,0.0,0.0,0.0,0.0,0.0,0.0,0.0,0.0,0.0,0.0,0.0,0.0,0.0,0.0,0.0,0.0,0.0,0.0,0.0,0.0,3.9645,4.0139,4.0232,4.0476,4.0717,4.081,4.0909,0.0,4.0837,4.0915,4.0927,4.0704,4.0405,4.003,3.9618,3.8897,3.8245,0.0,3.6981,0.0,0.0,3.5605,0.0,0.0,0.0,0.0,0.0,0.0,0.0,0.0,0.0,3.5622,3.5622,3.4399,3.3735,3.3735,3.3735,3.3735,3.3735,3.3684,3.3339,3.2734,3.3287,0.0,0.0,0.0,0.0,0.0,3.0387,2.9669,2.8607,2.8547,2.8128,2.776,2.8857,2.895,2.8559,0.0,0.0,0.0,0.0,0.0,0.0,0.0,0.0,0.0,0.0,2.3672,2.285,2.1088,2.0934,2.0867,0.0,0.0,0.0,0.0,0.0,0.0,0.0,0.0,0.0,2.1669,2.1669,2.1669,2.1669,2.1669,2.1298,2.0566,2.0566,2.0566,2.0566,2.0566,2.1011,0.0,0.0,0.0,0.0,0.0,0.0,0.0,0.0,0.0,0.0,2.767,2.8812,0.0,0.0,0.0,0.0,0.0,0.0,0.0,0.0,3.937,3.9982,3.988,0.0,4.0427,4.0562,4.0694,4.0819,0.0,4.1069,4.1112,4.0985,4.0905,4.0748,4.0387,3.9994,3.9614,3.9264,3.8529,3.7857,3.7433,0.0,0.0,3.6182,0.0,0.0,0.0,0.0,0.0,0.0,0.0,0.0,0.0,0.0,3.5622,3.5622,3.5316,3.5115,3.5115,3.5115,3.5115,3.5115,3.4592,3.4284,3.4087,3.3235,0.0,0.0,0.0,0.0,3.052,2.9486,2.8876,2.8547,2.8023,2.776,2.761,2.7894,2.8222,2.8463,0.0,0.0,0.0,0.0,0.0,0.0,0.0,0.0,0.0,0.0,0.0,0.0,0.0,0.0,0.0,0.0,0.0,0.0,0.0,0.0,0.0,0.0,0.0,2.1011,2.1952,2.2027,2.2253,2.2702,2.2702,2.2414,2.1897,2.1451,2.1221,2.1221,2.0789,2.1155,0.0,0.0,0.0,0.0,2.5004,0.0,0.0,0.0,0.0,0.0,2.8652,2.9897,0.0,3.2867,3.3991,3.5105,0.0,0.0,0.0,0.0,3.9709,4.01,4.0157,4.0307,4.0543,4.0696,4.0761,4.0844,4.0962,4.1069,4.106,4.0901,4.0679,4.0443,4.0195,3.9724,3.9245,3.8832,3.8089,0.0,0.0,0.0,3.5694,3.6028,0.0,0.0,0.0,0.0,0.0,0.0,0.0,0.0,0.0,0.0,3.5622,3.5622,3.5622,3.5622,3.5622,3.5622,3.547,3.5161,3.4783,3.4267,3.36,3.2914,0.0,0.0,0.0,0.0,2.9617,2.8884,2.8412,2.8098,2.7724,2.7625,2.7625,2.791,2.8042,2.8091,0.0,0.0,0.0,0.0,0.0,0.0,0.0,0.0,0.0,0.0,0.0,0.0,0.0,0.0,0.0,0.0,0.0,0.0,0.0,0.0,0.0,0.0,2.0712,2.1221,2.2178,2.2253,2.2702,2.3745,2.3745,2.3672,2.3514,2.2627,2.2253,2.2178,2.1375,2.1451,0.0,0.0,2.3441,0.0,2.5158,0.0,0.0,0.0,0.0,0.0,0.0,0.0,0.0,3.4137,3.5027,3.5754,3.7166,0.0,0.0,0.0,0.0,0.0,4.0272,4.0398,4.0588,4.0789,4.0822,4.0862,4.0974,4.0985,4.0947,4.0672,4.0387,4.0152,3.9981,3.9419,3.885,3.8401,0.0,0.0,3.5739,3.5622,3.5622,0.0,0.0,0.0,0.0,0.0,0.0,0.0,0.0,0.0,0.0,0.0,0.0,3.5622,3.5593,3.5525,3.5453,3.5554,3.5203,3.4475,3.4475,3.3697,3.2348,3.2348,3.1602,0.0,0.0,0.0,2.8442,2.8442,2.8098,2.7625,2.7625,2.7625,2.766,2.8174,2.8042,2.766,0.0,0.0,0.0,0.0,0.0,0.0,0.0,0.0,0.0,0.0,0.0,0.0,0.0,0.0,0.0,0.0,0.0,0.0,0.0,0.0,0.0,2.0644,2.1375,2.2253,2.322,2.3294,2.3745,2.4779,2.4779,2.4337,2.3514,2.3368,2.3294,2.3294,2.3147,2.3147,2.3294,2.4192,2.4707,2.5087,2.5955,0.0,0.0,0.0,0.0,0.0,0.0,0.0,0.0,3.4137,3.5234,3.6186,3.7274,0.0,0.0,0.0,0.0,0.0,4.0614,4.064,4.073,4.093,4.0973,4.0965,4.1001,4.0985,4.0864,4.0387,4.025,4.0006,3.9377,3.886,3.8401,3.8026,0.0,3.6291,0.0,0.0,0.0,0.0,0.0,0.0,0.0,0.0,0.0,0.0,0.0,0.0,0.0,0.0,0.0,3.5622,3.5419,3.5135,3.4658,3.5301,3.4997,3.3763,3.3763,3.3057,3.171,3.1155,3.0495,0.0,0.0,2.8456,2.7724,2.7724,2.7715,2.7625,2.7625,2.7625,2.7625,2.771,2.766,2.761,0.0,0.0,0.0,0.0,0.0,0.0,0.0,0.0,0.0,0.0,0.0,0.0,0.0,0.0,0.0,0.0,0.0,0.0,0.0,0.0,2.2627,2.2199,2.2553,2.2999,2.3514,2.2999,2.3441,2.5004,2.5004,2.4779,2.4337,2.4337,2.4036,2.3514,2.3514,2.3818,2.4337,2.4791,2.53,2.5873,0.0,0.0,0.0,0.0,0.0,0.0,0.0,0.0,0.0,0.0,3.6219,3.7201,3.7995,0.0,0.0,0.0,0.0,0.0,4.0738,4.0803,4.0899,4.1054,4.1009,4.0894,4.0898,4.088,4.0748,4.0234,3.9994,3.9717,3.9205,3.8559,3.7889,3.7175,0.0,3.5898,0.0,0.0,0.0,0.0,0.0,0.0,0.0,0.0,0.0,0.0,0.0,0.0,0.0,0.0,0.0,0.0,3.5047,3.4507,3.4281,3.4364,3.3912,3.2945,3.2945,3.243,3.1407,3.0462,2.9793,2.9423,0.0,2.7859,2.7625,2.7625,2.7625,2.7625,2.7625,2.7625,2.7625,2.7625,2.7625,2.7625,0.0,0.0,0.0,0.0,0.0,0.0,0.0,0.0,0.0,0.0,0.0,0.0,0.0,0.0,0.0,0.0,0.0,0.0,0.0,0.0,2.3514,2.3514,2.3514,2.3514,2.3514,2.2776,2.322,2.5004,2.5004,2.5004,2.5004,2.5004,2.4707,2.4181,2.4181,2.448,2.5016,2.5229,2.5664,2.6164,0.0,0.0,0.0,0.0,0.0,0.0,0.0,0.0,0.0,0.0,0.0,0.0,0.0,0.0,0.0,4.0375,4.0639,4.0737,4.0818,4.0926,4.1017,4.1121,4.1003,4.0839,4.0818,4.0732,4.0532,4.008,3.9731,3.9339,3.8897,3.8122,0.0,3.6374,3.5749,0.0,0.0,0.0,0.0,0.0,0.0,0.0,0.0,0.0,0.0,0.0,0.0,0.0,0.0,0.0,0.0,0.0,3.4688,3.4097,3.3984,3.3322,3.2749,3.2175,3.2175,3.1691,3.0794,2.9895,2.9375,2.9134,2.8222,2.771,2.7625,2.7625,2.7625,2.7625,2.7625,2.7625,2.7625,2.7625,2.7625,2.7625,0.0,0.0,0.0,0.0,0.0,0.0,0.0,0.0,0.0,0.0,0.0,0.0,0.0,0.0,0.0,0.0,0.0,0.0,0.0,0.0,2.3514,2.3514,2.3514,2.3514,2.3514,2.3441,2.3891,2.5004,2.5004,2.5004,2.5004,2.5004,2.5441,2.6302,2.6302,2.5804,2.5087,2.6025,2.5873,2.5229,2.6094,0.0,0.0,0.0,0.0,0.0,0.0,0.0,0.0,0.0,0.0,0.0,0.0,0.0,3.9731,4.0471,4.0735,4.0812,4.0954,4.0997,4.1011,4.101,4.0996,4.0952,4.0837,4.0501,4.0131,3.9705,3.9364,3.8915,3.8143,3.7193,3.6333,3.5739,3.5098,0.0,0.0,0.0,0.0,0.0,0.0,0.0,0.0,0.0,0.0,0.0,0.0,0.0,0.0,0.0,0.0,0.0,0.0,3.4142,3.3635,3.2473,3.1759,3.1473,3.1473,3.0789,2.9531,2.9441,2.9106,2.8559,2.8463,2.814,2.7625,2.7625,2.7625,2.7625,2.7625,2.7625,2.7625,2.7625,2.7625,2.7625,0.0,0.0,0.0,0.0,0.0,0.0,0.0,0.0,0.0,0.0,0.0,0.0,0.0,0.0,0.0,0.0,0.0,0.0,0.0,2.3294,2.3818,2.442,2.3818,2.3818,2.4409,2.2638,2.2787,2.5004,2.4337,2.4036,2.4108,2.4719,2.5229,2.5581,2.6233,2.6314,2.5955,2.6314,2.6314,2.6013,2.6892,2.7736,0.0,0.0,0.0,0.0,0.0,0.0,0.0,0.0,3.7971,3.8504,3.9111,3.943,3.9731,4.049,4.0739,4.0831,4.0964,4.105,4.1099,4.1021,4.0803,4.0654,4.0731,4.0329,3.9873,3.9656,3.9339,3.8765,3.7649,3.6556,3.5586,3.5081,0.0,0.0,0.0,0.0,0.0,0.0,0.0,0.0,0.0,0.0,0.0,0.0,0.0,0.0,0.0,0.0,0.0,0.0,0.0,3.3432,3.2908,3.2161,3.161,3.1281,3.1281,3.1007,3.0518,3.0123,2.9848,2.9585,2.8826,2.8367,2.814,2.776,2.7625,2.7625,2.7625,2.7625,2.7625,2.7625,2.7625,2.7625,0.0,0.0,0.0,0.0,0.0,0.0,0.0,0.0,0.0,0.0,0.0,0.0,0.0,0.0,0.0,0.0,0.0,0.0,2.3368,2.3818,2.4409,2.5441,2.4181,2.4108,2.5441,2.2553,2.2339,2.5004,2.3661,2.2999,2.3073,2.3745,2.4409,2.5016,2.5734,2.6164,2.6533,2.6533,2.6634,2.6785,2.7365,2.8186,0.0,0.0,0.0,0.0,0.0,0.0,0.0,0.0,3.8528,3.8884,3.9433,3.9599,3.9731,4.049,4.0725,4.0809,4.0965,4.1075,4.1101,4.0962,4.0576,4.0309,4.0459,4.0027,3.9518,3.9264,3.8709,3.7917,3.6837,3.5814,0.0,0.0,0.0,0.0,0.0,0.0,0.0,0.0,0.0,0.0,0.0,0.0,0.0,0.0,0.0,0.0,0.0,0.0,0.0,0.0,0.0,3.289,3.2713,3.2092,3.166,3.1389,3.1252,3.119,3.119,3.0781,3.0477,3.0251,2.9225,2.8701,2.8463,2.786,2.7625,2.7575,2.7357,2.7408,2.7575,2.7357,2.7408,2.7625,0.0,0.0,0.0,0.0,0.0,0.0,0.0,0.0,0.0,0.0,0.0,0.0,0.0,0.0,0.0,0.0,0.0,0.0,2.3441,2.4409,2.5441,2.6452,2.4552,2.4469,2.6452,2.3576,2.2999,2.4933,2.2999,2.2027,2.1952,2.2027,2.3073,2.4933,2.5016,2.5594,2.6465,2.6546,2.6791,2.7293,2.7293,2.8222,2.9591,0.0,0.0,0.0,0.0,0.0,0.0,0.0,3.861,3.9059,3.9488,3.9599,3.9731,4.049,4.0694,4.0751,4.0947,4.0996,4.0972,4.0825,4.0354,3.9917,4.006,3.9576,3.8952,3.8493,3.7308,3.6172,3.5535,3.4935,0.0,0.0,0.0,0.0,0.0,0.0,0.0,0.0,0.0,0.0,0.0,0.0,0.0,0.0,0.0,0.0,0.0,0.0,0.0,0.0,0.0,0.0,3.3184,3.2264,3.1789,3.1789,3.1389,3.119,3.119,3.119,3.0878,3.0251,2.9673,2.9042,2.8463,2.786,2.7625,2.7524,2.6774,2.693,2.7524,2.6774,2.6982,2.7625,0.0,0.0,0.0,0.0,0.0,0.0,0.0,0.0,0.0,0.0,0.0,0.0,0.0,0.0,0.0,0.0,0.0,0.0,2.3514,2.4409,2.5146,2.5441,2.485,2.485,2.5441,2.5276,2.4385,2.2925,2.2253,2.1659,2.1001,2.1659,2.2328,2.2936,2.4757,2.5745,2.6069,2.7145,2.7708,2.7931,2.8537,2.9039,2.9631,0.0,0.0,0.0,0.0,0.0,0.0,0.0,0.0,0.0,3.9694,3.974,3.9731,4.049,4.0703,4.0745,4.0959,4.0994,4.0967,4.0836,4.0354,3.9764,3.9282,3.8701,3.8107,3.7666,3.6156,3.5002,3.5324,3.4203,0.0,0.0,0.0,0.0,0.0,0.0,0.0,0.0,0.0,0.0,0.0,0.0,0.0,0.0,0.0,0.0,0.0,0.0,0.0,0.0,0.0,0.0,3.223,3.1951,3.166,3.1389,3.1269,3.119,3.119,3.119,3.1095,3.0878,2.9865,2.9316,2.9042,2.8042,2.7625,2.7575,2.7357,2.7408,2.7575,2.7357,2.7408,2.7625,0.0,0.0,0.0,0.0,0.0,0.0,0.0,0.0,0.0,0.0,2.2925,2.1735,0.0,0.0,0.0,0.0,0.0,0.0,0.0,2.485,2.5594,2.5594,2.5229,2.5004,2.5004,2.5581,2.4945,2.2832,2.2724,2.1991,2.083,2.1426,2.1953,2.2583,2.416,2.5292,2.6172,2.704,2.7854,2.8423,2.8984,2.9595,3.0321,0.0,0.0,0.0,0.0,0.0,0.0,0.0,0.0,0.0,3.9685,3.9779,3.9844,4.031,4.054,4.0658,4.087,4.0928,4.0901,4.0818,4.0354,3.9521,3.8083,3.7309,3.6763,3.6167,3.4985,3.3958,3.381,3.2829,0.0,0.0,0.0,0.0,0.0,0.0,0.0,0.0,0.0,0.0,0.0,0.0,0.0,0.0,0.0,0.0,0.0,0.0,0.0,0.0,0.0,0.0,3.1789,3.1623,3.1449,3.119,3.119,3.119,3.119,3.119,3.1055,3.0797,2.9585,2.8919,2.8622,2.7894,2.7625,2.7575,2.7306,2.7357,2.756,2.7255,2.7357,2.7625,0.0,0.0,0.0,0.0,0.0,0.0,0.0,0.0,0.0,0.0,2.2638,2.1603,0.0,0.0,0.0,0.0,0.0,0.0,0.0,0.0,2.6452,2.6383,2.5511,2.5004,2.5004,2.5064,2.4711,2.4038,2.3657,2.2647,2.1289,2.1289,2.195,2.3171,2.3293,2.45,2.6341,2.6541,2.746,2.885,2.8925,2.9794,3.118,3.2105,0.0,0.0,0.0,0.0,0.0,0.0,0.0,0.0,3.9516,3.9725,3.9983,4.0027,4.025,4.0511,4.0716,4.0781,4.0808,4.0808,4.0265,3.908,3.657,3.5608,3.5036,3.4362,3.3724,3.2908,3.1543,3.12,0.0,0.0,0.0,0.0,0.0,0.0,0.0,0.0,0.0,0.0,0.0,0.0,0.0,0.0,0.0,0.0,0.0,0.0,0.0,0.0,3.162,3.1389,3.1752,3.1372,3.119,0.0,3.119,3.119,3.119,3.119,3.0838,3.0166,2.9042,2.8222,2.7625,2.7625,2.7625,2.7509,2.6878,2.6982,2.7524,2.6826,2.7034,2.7575,0.0,0.0,0.0,0.0,0.0,0.0,0.0,0.0,0.0,0.0,0.0,0.0,0.0,0.0,0.0,0.0,0.0,0.0,0.0,0.0,2.6164,2.537,2.5087,2.5004,2.5004,2.5324,2.4677,2.303,2.2934,2.2453,2.1748,2.1748,2.1952,2.2287,2.3494,2.4285,2.4794,2.6862,2.7992,2.8337,2.9269,2.982,3.0216,3.1119,3.2105,0.0,0.0,0.0,0.0,0.0,0.0,0.0,3.9557,3.9665,3.9619,3.9693,3.9943,4.0232,4.0422,4.0645,4.0808,4.0808,3.9623,3.7935,3.5808,3.4645,3.3939,3.3788,3.2283,3.1086,3.1273,0.0,0.0,0.0,0.0,0.0,0.0,0.0,0.0,0.0,0.0,0.0,0.0,0.0,0.0,0.0,0.0,0.0,0.0,0.0,0.0,3.1968,3.1449,3.1252,3.1312,3.1252,3.119,0.0,3.119,3.119,3.119,3.119,3.0617,2.9585,2.9316,2.8591,2.7625,2.7625,2.7625,2.7575,2.7408,2.7458,2.7575,2.7408,2.7458,2.7524,0.0,0.0,0.0,0.0,0.0,0.0,0.0,0.0,0.0,0.0,0.0,0.0,0.0,0.0,0.0,0.0,0.0,0.0,0.0,0.0,2.6245,2.5734,2.5734,2.5562,2.5289,2.5477,2.4869,2.3332,2.3332,2.29,2.2187,2.2187,2.2295,2.249,2.3283,2.3957,2.4619,2.5926,2.686,2.7452,2.853,2.9028,2.9172,3.0657,3.1536,3.215,3.3907,0.0,0.0,0.0,0.0,0.0,0.0,0.0,3.9553,3.9156,3.9538,4.0139,4.0271,4.0537,4.0738,4.0436,3.9245,3.7588,3.5565,3.4314,3.3427,3.2718,3.1362,3.0029,0.0,0.0,0.0,0.0,0.0,0.0,0.0,0.0,0.0,0.0,0.0,0.0,0.0,0.0,0.0,0.0,0.0,0.0,0.0,3.1507,3.1507,3.1507,3.1329,3.119,3.119,3.119,3.119,3.119,3.119,3.119,3.119,3.0878,3.0251,2.9361,2.9088,2.8448,2.7625,2.7625,2.7625,2.7625,2.7625,2.7625,2.7625,2.7625,2.7625,2.7509,0.0,0.0,0.0,0.0,0.0,0.0,0.0,0.0,0.0,0.0,0.0,0.0,0.0,0.0,0.0,0.0,0.0,0.0,0.0,0.0,0.0,2.6533,2.6533,2.6202,2.568,2.5554,2.498,2.4064,2.3898,2.3446,2.2617,2.2617,2.2812,2.3135,2.3135,2.3637,2.4542,2.4702,2.5378,2.6307,2.7602,2.8096,2.8323,3.019,3.1044,3.1375,3.2835,3.3975,3.4916,3.5843,0.0,0.0,0.0,0.0,3.9276,3.8536,3.9048,3.9907,4.0072,4.0447,4.0642,4.0042,3.8987,3.7588,3.5565,3.4314,3.3166,3.1595,3.0644,0.0,0.0,0.0,0.0,0.0,0.0,0.0,0.0,0.0,0.0,0.0,0.0,0.0,0.0,0.0,0.0,0.0,0.0,0.0,3.119,3.119,3.119,3.119,3.119,3.119,3.119,3.119,3.119,3.119,3.119,3.119,3.119,3.0576,2.9995,2.9361,2.8873,2.8271,2.7625,2.7625,2.7625,2.7625,2.7625,2.7625,2.7625,2.7625,2.7625,2.7458,0.0,0.0,0.0,0.0,0.0,0.0,0.0,0.0,0.0,0.0,2.5511,2.5217,0.0,0.0,0.0,0.0,0.0,0.0,2.6314,0.0,0.0,2.6533,2.6533,2.626,2.5803,2.5203,2.4689,2.4198,2.3539,2.3144,2.3057,2.3057,2.3086,2.3135,2.3135,2.3222,2.3387,2.4382,2.4872,2.521,2.7267,2.8096,2.8255,2.9509,3.0482,3.1241,3.1436,3.215,3.3185,3.4786,3.5495,0.0,0.0,0.0,3.7841,3.7954,3.8449,3.9096,3.969,4.0263,4.0591,4.0042,3.8987,3.7588,3.5565,3.4314,3.2977,0.0,0.0,0.0,0.0,0.0,0.0,0.0,0.0,0.0,0.0,0.0,0.0,0.0,0.0,0.0,0.0,0.0,0.0,0.0,0.0,0.0,3.119,3.119,3.119,3.119,3.119,3.119,3.119,3.119,3.119,3.119,3.119,3.119,3.119,3.0576,2.9995,2.9406,2.9316,2.8638,2.7625,2.7625,2.7625,2.7625,2.7625,2.7625,2.7625,2.7625,2.7625,2.7408,0.0,0.0,0.0,0.0,0.0,0.0,0.0,0.0,0.0,0.0,0.0,2.6025,0.0,0.0,0.0,2.6452,2.6533,2.6533,2.6533,2.6533,2.6533,2.6533,2.6533,2.626,2.5668,2.5739,2.5251,2.4054,2.408,2.3714,2.3135,2.3135,2.3135,2.3135,2.3135,2.3135,2.3135,2.3627,2.3887,2.3963,2.5608,2.6273,2.6356,2.7545,2.8573,2.9474,2.9474,3.0454,3.1947,3.2722,3.3677,3.4708,3.4977,0.0,0.0,0.0,3.7485,3.8794,3.9851,4.0404,4.0563,4.0043,3.8987,3.7588,3.5565,3.4314,3.3098,3.1349,0.0,0.0,0.0,0.0,0.0,0.0,0.0,0.0,0.0,0.0,0.0,0.0,0.0,0.0,0.0,0.0,0.0,0.0,0.0,3.0435,3.0699,3.1015,3.119,3.119,3.119,3.119,3.119,3.119,3.119,3.119,3.119,3.119,3.119,3.0935,3.0477,2.9865,2.918,2.8591,2.8091,2.776,2.7625,2.7625,2.7625,2.7625,2.7625,2.7625,2.7625,2.7408,0.0,0.0,0.0,0.0,0.0,0.0,0.0,0.0,0.0,0.0,0.0,0.0,0.0,0.0,0.0,0.0,2.6533,2.6533,2.6533,2.6533,2.6533,2.6533,2.6533,2.6342,2.6057,2.6064,2.5486,2.4384,2.405,2.3501,2.2677,2.2315,2.2227,2.2227,2.2862,2.2775,2.2227,2.2501,2.2677,2.2755,2.3836,2.4522,2.4957,2.6058,2.6885,2.7507,2.7636,2.8766,3.0274,3.0485,3.1748,3.3179,3.2954,3.4069,0.0,0.0,0.0,3.8774,4.0015,4.0493,4.0528,4.0004,3.8979,3.7638,3.5766,0.0,3.3235,0.0,0.0,0.0,0.0,0.0,0.0,0.0,0.0,0.0,0.0,0.0,0.0,0.0,0.0,0.0,0.0,0.0,0.0,0.0,0.0,3.0081,3.0081,3.0797,3.1151,3.0975,3.1112,3.119,3.119,3.119,3.119,3.119,3.119,3.119,3.119,3.1055,3.0797,3.0477,2.9271,2.8543,2.8238,2.781,2.7625,2.7625,2.7625,2.7625,2.7625,2.7625,2.7625,2.7408,0.0,0.0,0.0,0.0,0.0,0.0,0.0,0.0,0.0,0.0,0.0,0.0,2.6533,2.6533,2.6533,2.6533,2.6533,2.6533,2.6533,2.6533,2.6533,2.6533,2.6533,0.0,2.7197,2.5652,2.506,2.555,2.2803,2.1471,2.1382,2.0215,1.9679,1.9761,2.2041,2.1863,1.9761,2.0935,2.1382,2.1471,2.265,2.3796,2.4957,2.6058,2.6262,2.5994,2.6386,2.7059,2.7823,2.855,2.9602,3.0807,3.1944,3.2435,3.29,0.0,0.0,0.0,3.9959,4.0351,4.0407,3.9916,3.8952,3.774,0.0,0.0,0.0,0.0,0.0,0.0,0.0,0.0,0.0,0.0,0.0,0.0,0.0,0.0,0.0,0.0,0.0,0.0,0.0,0.0,0.0,0.0,0.0,2.9451,2.9451,3.0559,3.0935,3.0335,3.0878,3.119,3.119,3.119,3.119,3.119,3.119,3.119,3.119,3.0617,3.0658,3.1095,2.9892,2.8717,2.761,2.761,2.7625,2.7625,2.7625,2.7625,2.7625,2.7625,2.7625,2.7408,0.0,0.0,0.0,0.0,0.0,0.0,0.0,0.0,0.0,0.0,0.0,0.0,0.0,2.6533,2.6714,2.7229,2.7802,2.7855,2.7284,2.7297,2.704,2.6521,2.6533,2.6622,2.6753,2.5912,2.536,2.5082,2.3764,2.2889,2.2492,2.2041,2.0953,1.9588,2.0404,2.0314,1.9497,1.9943,2.0124,2.0206,2.0549,2.1435,2.2572,2.2725,2.3637,2.4751,2.4611,2.5554,2.6964,2.7294,2.8167,2.9247,2.9693,3.0711,3.2221,3.4997,3.7132,3.8748,3.9685,4.0176,4.0332,3.9905,3.877,3.7499,3.6352,3.4801,0.0,0.0,0.0,0.0,0.0,0.0,0.0,0.0,0.0,0.0,0.0,0.0,0.0,0.0,0.0,0.0,0.0,0.0,0.0,0.0,0.0,0.0,2.8826,2.9585,3.0123,3.0293,3.0518,3.0797,3.119,3.119,3.119,3.119,3.119,3.119,3.119,3.0975,3.0781,3.0576,2.9761,2.9134,2.867,2.7894,2.7625,2.7625,2.7625,2.7625,2.7625,2.7625,2.7625,2.7458,0.0,0.0,0.0,0.0,0.0,0.0,0.0,0.0,0.0,2.6533,0.0,0.0,0.0,0.0,2.7229,2.8051,2.8684,2.8748,2.8182,2.8117,2.7802,2.6905,2.6905,2.6782,2.6533,2.6008,2.5389,2.4581,2.385,2.3078,2.2292,2.1975,2.1042,1.9497,1.9039,1.8672,1.8303,1.868,1.8864,1.8864,1.8864,1.9852,2.1266,2.1004,2.195,2.3392,2.3238,2.4072,2.5424,2.5727,2.6591,2.7677,2.8127,2.9812,3.2199,3.4953,3.696,3.851,3.948,4.0008,4.0156,3.9607,3.8541,3.7362,3.6417,0.0,0.0,0.0,0.0,0.0,0.0,0.0,0.0,0.0,0.0,0.0,0.0,0.0,0.0,0.0,0.0,0.0,0.0,0.0,0.0,0.0,0.0,0.0,2.8189,2.895,2.9673,3.0293,3.0477,3.0797,3.119,3.119,3.119,3.119,3.119,3.119,3.119,3.119,3.0878,3.0251,2.9673,2.9271,2.8996,2.8027,2.7625,2.7625,2.7625,2.7625,2.7625,2.7625,2.7625,2.7509,0.0,0.0,0.0,0.0,0.0,0.0,0.0,0.0,2.6533,2.6521,0.0,0.0,0.0,0.0,0.0,2.8939,2.9066,2.9066,2.9066,2.9066,2.862,2.7802,2.7736,2.7351,2.6521,2.5924,2.5152,2.4265,2.2798,2.1655,2.0811,1.9945,1.9579,1.9497,1.8319,1.7037,1.592,1.7131,1.7591,1.7591,1.7591,1.9031,2.1185,2.1176,2.1414,2.1914,2.223,2.2625,2.303,2.3863,2.4906,2.5985,2.7278,2.9797,3.2635,3.4492,3.6494,3.8329,0.0,0.0,0.0,3.9014,3.8212,0.0,3.6551,0.0,0.0,0.0,0.0,0.0,0.0,0.0,0.0,0.0,0.0,0.0,0.0,0.0,0.0,0.0,0.0,0.0,0.0,0.0,0.0,0.0,0.0,2.8238,2.766,2.8764,2.9673,3.0251,3.0878,3.119,3.119,3.119,3.119,3.119,3.119,3.119,3.119,3.119,3.0878,3.0293,2.9673,2.9104,2.8511,2.786,2.7625,2.7625,2.7625,2.7625,2.7625,2.7625,2.7625,2.7509,0.0,0.0,0.0,0.0,0.0,2.6533,2.6533,2.6533,2.6714,0.0,0.0,0.0,2.8247,2.9066,2.969,2.995,3.0464,3.0584,2.995,2.995,2.9566,2.8684,2.862,2.8247,2.7417,2.6546,2.5826,2.5238,2.3409,2.2707,2.3042,2.215,2.1401,2.0755,1.9588,1.8311,1.7131,1.6574,1.6292,1.6292,1.6292,1.7157,1.8335,1.8,1.8845,2.019,0.0,2.0968,2.2303,0.0,2.379,2.5527,2.7175,2.9355,3.1741,3.3631,3.6071,3.8385,3.9344,0.0,0.0,0.0,0.0,0.0,0.0,0.0,0.0,0.0,0.0,0.0,0.0,0.0,0.0,0.0,0.0,0.0,0.0,0.0,0.0,0.0,0.0,0.0,0.0,0.0,0.0,0.0,2.7993,2.7944,2.8238,2.8996,2.9496,2.9629,3.0658,3.119,3.119,3.119,3.119,3.119,3.119,3.119,3.119,3.119,3.1112,3.0878,2.9848,2.954,2.9673,2.8222,2.7625,2.7625,2.7625,2.7625,2.7625,2.7625,2.7625,2.7575,0.0,0.0,0.0,0.0,0.0,2.6533,2.6533,2.6533,2.6782,0.0,0.0,0.0,2.938,3.0011,3.045,3.0777,3.148,3.1766,3.1319,3.1261,3.0867,2.9986,2.9662,2.8939,2.7736,2.7152,2.6352,2.5372,2.4002,2.3406,2.3408,2.2828,2.2284,2.1789,2.0685,1.9579,1.8411,1.7124,1.6298,1.5818,1.5698,1.626,1.7124,1.6802,1.7586,0.0,0.0,0.0,2.0884,2.1725,2.3368,0.0,0.0,2.9232,3.1364,3.3242,3.5867,3.8366,3.9344,3.9656,3.9533,3.8714,0.0,0.0,3.5374,3.4526,0.0,0.0,0.0,0.0,0.0,0.0,0.0,0.0,0.0,0.0,0.0,0.0,0.0,0.0,0.0,0.0,0.0,0.0,0.0,2.8463,2.8415,2.84,2.8511,2.9316,2.9673,2.9406,3.0559,3.119,3.119,3.119,3.119,3.119,3.119,3.119,3.119,3.119,3.0935,3.0435,2.9717,2.93,2.9073,2.8027,2.776,2.7944,2.771,2.7625,2.7625,2.7625,2.7625,2.7625,0.0,0.0,2.9002,2.9002,2.767,2.6589,2.6533,2.6658,2.704,0.0,2.7933,2.8575,3.0153,3.0335,3.0631,3.1462,3.2164,3.2617,3.2695,3.2695,3.2321,3.1501,3.0867,2.9737,2.8051,2.7855,2.6976,2.5276,2.4482,2.3678,2.2829,2.2479,2.2393,2.2376,2.1549,2.0445,1.9282,1.8118,1.6836,1.5712,1.5484,1.5993,1.6891,1.6662,1.7017,1.7904,1.898,1.9174,1.9353,2.1344,2.3294,0.0,0.0,0.0,0.0,0.0,3.5793,3.8329,3.9344,3.9609,3.9367,3.8346,0.0,0.0,3.4922,3.4479,3.4087,0.0,0.0,0.0,0.0,0.0,0.0,0.0,0.0,0.0,0.0,0.0,0.0,0.0,0.0,0.0,0.0,2.814,2.8511,2.8606,2.9134,2.9225,2.8654,2.9629,2.9978,2.9496,3.0518,3.1151,3.119,3.119,3.119,3.119,3.119,3.119,3.119,3.119,3.0576,2.9496,2.9406,2.8764,2.781,2.766,2.791,2.8319,2.781,2.7625,2.7625,2.7625,2.7625,2.7625,3.1682,3.0133,2.9002,2.9002,2.8182,2.7229,2.6589,2.767,2.8556,2.8748,2.9434,3.0088,3.0404,3.0467,3.0792,3.152,3.217,3.2752,3.336,3.3391,3.3077,3.2391,3.2241,3.142,2.9827,2.9129,2.822,2.7191,2.4826,2.3724,2.3885,2.2249,2.167,2.2012,2.0762,1.9652,1.8534,1.7313,1.6178,1.515,1.5324,1.5433,1.5363,1.5055,1.5419,1.6291,1.736,1.829,1.9353,2.1344,2.2776,2.4036,0.0,0.0,0.0,3.2466,0.0,3.8329,3.9344,3.9609,3.9367,0.0,0.0,0.0,3.4333,3.3786,3.3375,0.0,0.0,0.0,0.0,0.0,0.0,0.0,0.0,0.0,0.0,0.0,0.0,0.0,0.0,0.0,0.0,2.814,2.8685,2.918,2.9761,2.9848,2.9271,2.9451,2.9761,3.0123,3.0335,3.0699,3.119,3.119,3.119,3.119,3.119,3.119,3.119,3.119,3.0797,3.0123,2.9629,2.9271,2.8996,2.7978,2.7675,2.776,2.7675,2.7625,2.7625,2.7625,2.7625,2.7625,3.212,3.0733,2.9628,2.9628,2.8939,2.8247,2.7802,2.8184,2.8671,2.9116,2.9667,3.0138,3.0487,3.0499,3.0783,3.1416,3.2095,3.2772,3.3519,3.3567,3.3565,3.3617,3.3287,3.24,3.0852,3.0348,2.931,2.767,2.582,2.4778,2.4584,2.2791,2.2109,2.2251,2.1317,2.0307,1.9093,1.7975,1.6858,1.5732,1.5218,0.0,1.471,1.4416,1.4535,1.5137,1.6683,1.839,1.9991,2.1507,2.2702,0.0,0.0,2.7849,3.083,0.0,3.5296,3.7886,0.0,0.0,0.0,3.8634,0.0,0.0,0.0,3.4022,3.3617,0.0,0.0,0.0,0.0,0.0,0.0,0.0,0.0,0.0,0.0,0.0,0.0,0.0,0.0,0.0,0.0,2.9042,2.9629,3.0251,3.0576,3.0477,2.9892,2.9848,2.9848,2.9848,3.0123,3.0435,3.074,3.1055,3.119,3.119,3.119,3.119,3.119,3.119,3.0699,2.9848,2.954,2.9042,2.8448,2.7845,2.7625,2.7625,2.7625,2.7625,2.7625,2.7625,2.7625,2.7575,3.2641,3.1477,3.0421,3.0329,2.969,2.915,2.885,2.8594,2.8669,2.9276,2.947,2.978,3.0253,3.0541,3.0954,3.1692,3.2504,3.324,3.3941,3.4108,3.4347,3.4625,3.4283,3.3438,3.2035,3.1789,3.0617,2.8548,2.7341,2.6183,2.5205,2.3746,2.3024,2.2847,2.216,2.1245,2.0034,1.8963,1.7859,1.6639,1.554,1.4974,1.4822,1.4775,1.4741,1.4985,1.6935,1.8948,2.0712,2.1669,2.2702,2.3868,2.5726,2.8069,0.0,0.0,0.0,0.0,0.0,0.0,0.0,0.0,0.0,3.6324,0.0,0.0,0.0,0.0,0.0,0.0,0.0,0.0,0.0,0.0,0.0,0.0,0.0,0.0,0.0,0.0,0.0,0.0,0.0,2.9892,3.0559,3.1151,3.119,3.0975,3.0518,3.0335,3.0123,2.9761,3.0123,3.0293,3.0293,3.0878,3.1151,3.1015,3.1151,3.119,3.119,3.1095,3.0435,2.9406,2.9271,2.8591,2.7625,2.7625,2.7625,2.7625,2.7625,2.7625,2.7625,2.7625,2.7524,2.7306,3.2749,3.1845,3.0998,3.0435,3.0208,2.9704,2.8346,2.9288,3.0075,2.9635,2.9529,2.9558,2.9593,3.0605,3.1781,3.2984,3.424,3.5174,3.5598,3.6341,3.6217,3.4926,3.5469,3.5462,3.4693,3.3484,3.2431,3.1485,2.9316,2.7523,2.6152,2.5027,2.4158,2.3383,2.2391,2.1399,2.0274,1.9304,1.8279,1.7212,1.709,1.6513,0.0,1.6653,1.6935,1.709,1.839,1.9599,2.0712,0.0,2.2702,2.3868,0.0,2.8384,3.1252,3.3242,0.0,0.0,0.0,0.0,0.0,0.0,3.6033,0.0,0.0,0.0,0.0,0.0,0.0,0.0,0.0,0.0,0.0,0.0,0.0,0.0,0.0,0.0,0.0,0.0,0.0,0.0,0.0,0.0,3.0559,3.1151,3.119,3.119,3.1095,3.0601,3.0518,3.0975,3.0518,3.0293,3.0293,3.0878,3.0918,3.0435,3.0918,3.119,3.119,3.0658,3.0038,2.9361,2.8826,2.8238,2.7625,2.7625,2.7625,2.7625,2.7625,2.7625,2.7625,2.7625,2.7203,2.6721,3.3887,3.3171,3.2571,3.2259,3.1842,3.1365,3.0719,3.0492,3.0208,2.9588,2.9437,2.9669,3.0261,3.0775,3.163,3.2932,3.4039,3.4773,0.0,3.5865,3.6251,3.6018,3.6341,3.6327,3.5966,3.5427,3.4305,3.2625,3.1203,2.9838,2.8389,2.6527,2.5493,2.5027,2.2955,2.1714,2.1237,1.964,1.8718,0.0,0.0,0.0,0.0,1.7392,1.7747,1.839,1.9464,2.0488,2.1593,0.0,2.3514,0.0,0.0,0.0,0.0,0.0,0.0,0.0,0.0,0.0,0.0,0.0,0.0,0.0,3.3431,0.0,3.1244,0.0,0.0,0.0,0.0,0.0,0.0,0.0,0.0,0.0,0.0,0.0,0.0,0.0,0.0,0.0,0.0,0.0,0.0,0.0,0.0,3.119,3.119,3.0617,3.0251,3.0166,2.9892,2.9629,2.9271,2.9848,3.0208,3.0293,3.0208,3.0335,3.0658,3.0038,2.9451,2.8873,2.8606,2.814,2.7625,2.7625,2.7625,2.7625,2.7625,2.7625,2.7625,2.7625,2.7137,2.6496,3.4941,3.4333,3.3772,3.3393,3.2844,3.238,3.1997,3.0895,2.9936,2.947,2.9641,3.0093,3.0802,3.1401,3.2197,3.3327,3.425,3.4809,0.0,0.0,3.6406,3.6924,3.7193,3.7342,3.7479,3.7252,3.619,3.4259,3.3387,3.2129,3.0499,2.8551,2.7314,2.6574,2.4232,2.304,2.2691,2.0643,1.9806,1.9806,1.9511,1.9441,1.9362,1.855,1.8859,1.9875,2.0613,2.1532,2.2553,2.3588,2.4541,0.0,2.7899,0.0,0.0,0.0,0.0,0.0,3.6767,0.0,0.0,0.0,0.0,0.0,0.0,0.0,0.0,0.0,0.0,0.0,0.0,0.0,2.6563,2.6774,0.0,2.6774,0.0,0.0,0.0,0.0,0.0,0.0,0.0,0.0,0.0,0.0,3.1112,3.119,3.119,3.0781,3.0351,2.9908,2.9717,2.9361,2.8732,2.918,2.954,2.9805,2.954,2.9629,3.0038,2.9406,2.8919,2.8511,2.8334,2.7993,2.7625,2.7625,2.7625,2.7625,2.7625,2.7625,2.7575,2.7357,2.6826,2.6122,3.5453,3.5052,3.4121,3.2768,3.254,3.2061,3.0687,2.9856,2.9422,0.0,0.0,0.0,0.0,0.0,0.0,0.0,0.0,3.6233,3.5968,0.0,3.7297,0.0,3.8146,3.8901,3.9667,3.8878,3.8041,3.7266,3.5953,3.4134,3.1921,3.1407,2.9883,2.7591,2.6642,2.5693,2.4779,2.2776,2.1876,2.18,2.0924,2.0566,2.0566,0.0,2.1068,2.1876,2.1952,0.0,0.0,2.4636,2.5508,0.0,0.0,0.0,0.0,0.0,0.0,0.0,0.0,0.0,0.0,3.4979,0.0,0.0,0.0,0.0,2.9289,0.0,0.0,0.0,0.0,2.6997,2.6721,2.7458,2.6982,0.0,0.0,0.0,0.0,0.0,0.0,0.0,0.0,0.0,0.0,3.0351,3.0878,3.119,3.119,3.119,3.1151,3.1151,3.0576,2.9978,2.9361,2.9406,2.9134,2.8559,2.9134,2.9406,2.9406,2.8779,2.8511,2.8463,2.7894,2.7625,2.7625,2.7625,2.7625,2.7625,2.7625,2.7625,2.7509,2.6826,2.6068,2.5453,3.6011,3.554,3.4735,3.3939,3.3694,0.0,0.0,3.16,0.0,0.0,0.0,0.0,0.0,3.3314,3.4097,0.0,0.0,3.6176,3.5771,3.6464,0.0,0.0,3.751,3.8177,3.9966,3.9146,3.849,3.8066,3.7138,3.5879,3.4199,3.2562,3.1177,3.0004,2.7433,2.6152,0.0,0.0,0.0,0.0,0.0,2.2489,2.2489,0.0,0.0,2.2103,2.2776,2.3672,0.0,2.5156,2.5892,2.688,2.8527,2.959,3.0731,3.3225,3.4043,0.0,0.0,0.0,3.5448,3.499,0.0,0.0,0.0,0.0,0.0,0.0,0.0,0.0,0.0,2.7695,2.7306,2.756,2.7408,2.7306,0.0,0.0,0.0,0.0,0.0,0.0,0.0,0.0,0.0,3.0878,3.1095,3.119,0.0,3.119,3.1015,3.0617,3.0038,2.9406,2.8826,2.84,2.8319,2.8511,2.8319,2.8415,2.8779,2.8189,2.7894,2.7894,2.766,2.7306,2.693,2.7408,2.7306,2.693,2.7408,2.7306,2.6826,2.6616,2.6014,2.5398,3.6563,3.6099,3.5413,3.4731,0.0,0.0,0.0,0.0,0.0,0.0,3.2741,0.0,3.3533,0.0,3.4435,0.0,3.5737,3.5958,3.5621,3.6079,0.0,3.761,3.7118,3.7767,3.9803,3.8941,3.8485,3.8537,3.7541,3.6586,3.5596,3.3776,3.2558,3.1824,2.9237,2.7734,2.7102,2.5296,2.429,0.0,0.0,2.3818,0.0,0.0,2.2919,2.3125,0.0,2.4543,2.5592,2.5646,2.6409,2.7473,2.8705,2.9604,3.0664,3.2942,3.3789,3.4192,3.5053,3.5454,0.0,3.5148,3.4567,0.0,3.2883,0.0,0.0,0.0,0.0,0.0,0.0,2.7993,2.7625,2.7625,2.7625,2.7625,0.0,2.7625,0.0,0.0,0.0,0.0,0.0,0.0,3.0477,3.0838,3.1072,3.119,0.0,0.0,3.1015,3.0617,2.9805,2.9225,2.8826,2.7993,2.781,2.8189,2.781,2.781,2.8189,2.776,2.7625,2.7575,2.7306,2.693,2.6563,2.6982,2.693,2.6563,2.7306,2.7152,2.6457,2.6229,2.5618,2.5007,3.7157,3.6826,0.0,0.0,3.3541,0.0,0.0,0.0,3.2598,0.0,3.3216,3.3666,3.3666,3.4572,3.5193,3.5126,3.547,3.5655,3.5597,3.5648,0.0,0.0,3.6901,3.7634,3.9252,3.8255,3.8041,3.8732,3.7203,3.6352,3.6089,3.5107,3.4071,3.3056,3.1803,3.0397,2.8754,2.7024,2.5827,2.5004,2.5063,2.447,2.3609,2.4142,0.0,2.5003,2.4431,2.5299,2.663,2.6126,2.7006,2.8405,2.8885,2.9957,3.1291,3.2509,3.3431,3.4218,3.5049,3.5451,3.5561,3.5339,0.0,0.0,0.0,0.0,3.0875,0.0,0.0,0.0,0.0,0.0,2.761,2.761,2.7625,2.7625,2.7625,2.7625,0.0,0.0,0.0,0.0,0.0,2.9629,3.0293,3.0335,3.0878,3.119,0.0,0.0,3.119,3.119,3.0038,2.9406,2.9406,2.8207,2.7625,2.7625,2.7625,2.7625,2.7625,2.7625,2.7575,2.7524,2.6826,2.6457,2.6457,2.6457,2.651,2.6563,2.7255,2.7086,2.6336,2.5673,2.4951,2.435,3.8272,3.7607,3.6472,0.0,3.378,3.3189,0.0,0.0,0.0,0.0,3.4319,3.4494,3.4698,3.4975,3.5214,3.5458,3.5515,0.0,0.0,0.0,0.0,3.6427,3.572,3.6082,3.7725,3.7055,3.7019,3.7695,3.7375,3.6915,3.6302,3.5302,3.4296,3.3313,3.1678,3.0517,2.9697,2.7589,2.5959,2.4946,2.6074,2.5704,0.0,0.0,2.5994,2.555,2.466,2.5485,2.6809,2.6299,2.7032,2.8254,2.8434,2.9843,3.1605,3.238,3.3515,3.4593,3.492,3.5328,3.5615,3.5368,3.4999,3.4483,0.0,0.0,0.0,0.0,0.0,0.0,0.0,0.0,0.0,2.766,2.7625,2.7625,2.7625,0.0,0.0,2.8238,0.0,0.0,0.0,2.9848,3.0477,3.0935,3.1112,0.0,0.0,0.0,0.0,3.119,3.0038,2.9406,2.9406,2.8207,2.7625,2.7625,2.7625,2.7625,2.7625,2.7625,2.7306,2.6774,2.6563,2.6176,2.5728,2.6283,2.651,2.651,2.6721,2.6336,2.5673,2.5453,2.5287,2.5175,3.8697,0.0,0.0,3.5113,0.0,0.0,3.4375,0.0,0.0,3.4674,3.4793,0.0,3.5129,3.5241,3.5393,3.558,3.5457,0.0,3.5373,0.0,0.0,3.559,3.502,3.5318,3.6585,3.6096,0.0,3.6858,3.6765,3.659,3.6342,3.5571,3.4954,3.4464,3.2747,3.1577,3.0727,2.828,2.6712,2.5808,2.6687,0.0,0.0,2.6416,2.6589,2.6417,2.5918,2.6318,2.7073,2.683,2.746,2.8423,2.8996,3.0301,3.1725,3.2456,3.3647,3.4754,3.5,3.5379,3.5661,3.5505,3.5199,3.4703,3.3944,3.3478,3.2934,0.0,0.0,0.0,0.0,0.0,0.0,2.771,2.7625,2.766,0.0,0.0,0.0,0.0,2.9271,0.0,0.0,0.0,3.0838,3.119,0.0,0.0,0.0,0.0,0.0,3.119,3.0038,2.9406,2.9406,2.8207,2.7625,2.7625,2.7625,2.7625,2.7625,2.7625,2.7357,2.693,2.6616,2.6283,2.5906,2.6336,2.651,2.651,2.651,2.6229,2.5892,2.5892,2.5892,2.596,3.8503,0.0,0.0,0.0,0.0,0.0,0.0,3.4813,0.0,3.4831,0.0,3.5193,3.5248,3.5465,3.5579,3.5539,0.0,3.5151,3.5053,3.4793,3.4632,3.4632,3.4551,3.4849,3.5609,3.5208,3.5367,3.6095,3.5773,3.5823,3.6212,3.5739,3.5571,3.5588,3.4162,3.2793,0.0,2.9162,2.7698,2.6948,2.7123,2.702,2.6744,2.6479,2.6778,2.7335,2.7482,2.7491,2.7496,2.7619,2.8146,2.8904,3.0048,3.0992,3.1882,3.2745,3.379,3.4793,3.5197,3.5502,3.57,3.5704,3.5295,3.4766,3.4226,3.3658,3.2996,3.2092,3.1482,3.0915,0.0,0.0,0.0,2.7894,0.0,0.0,0.0,0.0,0.0,0.0,0.0,0.0,0.0,0.0,0.0,0.0,0.0,0.0,0.0,0.0,0.0,3.119,3.0123,0.0,2.9406,0.0,2.7675,2.7625,2.7625,2.7625,2.7625,2.7625,2.7575,2.7408,2.6774,2.651,2.651,2.651,2.651,2.651,2.651,2.651,2.651,2.651,2.6563,2.6669,3.7576,0.0,0.0,0.0,0.0,3.545,3.544,3.5297,3.5268,3.5496,3.5571,3.5579,3.5539,3.5575,3.5498,3.5211,3.5139,0.0,0.0,0.0,0.0,3.4288,3.3776,3.368,3.4157,3.3986,3.4285,3.5064,3.516,3.5403,3.5808,3.538,3.4908,3.4391,3.3821,0.0,3.0143,3.0005,0.0,2.6547,2.7733,2.7231,2.58,2.691,2.7358,2.7473,2.8061,2.8268,2.836,2.8873,2.948,3.0091,3.0613,3.1485,3.2512,3.3247,3.4054,3.479,3.5192,3.5489,3.57,3.5704,3.5295,3.4845,3.4632,3.4123,3.3447,3.2565,3.2281,3.1845,3.0567,0.0,0.0,0.0,0.0,0.0,0.0,0.0,0.0,0.0,0.0,3.0435,0.0,0.0,0.0,0.0,0.0,0.0,0.0,0.0,0.0,0.0,0.0,0.0,0.0,0.0,2.8091,2.7625,2.7625,2.7625,2.7625,2.7625,2.7255,2.6669,2.6563,2.651,2.651,2.651,2.651,2.651,2.651,2.651,2.651,2.651,2.6878,2.7408,0.0,0.0,0.0,0.0,0.0,0.0,0.0,3.5546,0.0,3.5627,3.5679,3.5682,3.5662,3.5624,3.5474,3.518,3.499,3.4755,3.4445,3.4165,3.3891,3.3697,3.3354,3.3184,3.3136,3.3432,3.3802,3.4188,3.4833,3.5243,3.5451,3.5373,3.5116,3.4639,3.392,3.2406,0.0,0.0,0.0,2.7957,2.8686,2.8386,2.756,2.8273,2.8497,2.8497,2.9194,2.9451,2.9496,2.9761,3.0081,3.0402,3.1159,3.1899,3.2645,3.3368,3.412,3.4788,3.5206,3.5507,3.57,3.5704,3.5403,3.5034,3.4754,3.4353,3.3723,3.2727,3.2484,3.2039,3.0551,3.0064,0.0,0.0,0.0,0.0,0.0,0.0,0.0,0.0,0.0,0.0,0.0,0.0,0.0,0.0,0.0,0.0,0.0,0.0,0.0,0.0,0.0,0.0,0.0,0.0,0.0,2.7625,2.7625,2.7625,2.7625,2.7625,2.7408,2.7086,2.7086,2.7086,2.7086,2.7086,2.7086,2.7086,2.7086,2.7086,2.7086,2.7086,2.7306,2.7625,0.0,3.6084,0.0,0.0,3.5563,0.0,3.5593,3.5648,3.5669,3.5623,3.5672,3.5689,3.5686,3.5572,3.5396,3.5132,3.4791,3.4464,3.4147,3.3831,3.3522,3.3214,3.3014,3.2777,3.2517,3.2979,3.335,3.3587,3.451,3.5018,3.5204,3.5463,3.5457,0.0,0.0,0.0,0.0,0.0,3.0677,2.9713,2.9713,2.9597,2.9406,2.9406,2.9496,2.9673,3.0123,3.0393,3.0477,3.0477,3.0477,3.0666,3.1625,3.2196,3.2677,3.3578,3.4255,3.479,3.5249,3.5541,3.57,3.5704,3.5514,3.5181,3.4794,3.4423,3.3894,3.2867,3.2484,3.1969,3.073,3.0477,0.0,0.0,0.0,0.0,0.0,0.0,0.0,0.0,0.0,0.0,0.0,0.0,0.0,0.0,0.0,0.0,0.0,0.0,0.0,0.0,0.0,3.0123,2.9406,0.0,2.8415,0.0,2.766,2.7625,2.7625,2.7625,2.7625,2.7625,2.7625,2.7625,2.7625,2.7625,2.7625,2.7625,2.7625,2.7625,2.7625,2.7625,2.766,2.781,0.0,0.0,0.0,0.0,0.0,0.0,0.0,3.5611,3.5628,3.5678,3.5708,3.5682,3.5616,3.5392,3.5111,3.4772,3.4442,3.4123,3.3868,3.3476,3.3243,3.3214,3.24,3.2092,3.2484,3.2144,3.2492,0.0,3.3924,3.4491,3.5207,3.547,0.0,0.0,0.0,0.0,0.0,3.2624,3.1721,3.078,3.078,3.0203,2.9406,2.9406,2.9717,3.0208,3.0293,3.0658,3.1112,3.1112,3.1112,3.1274,3.2144,3.2451,3.2787,3.4167,3.4653,3.4831,3.5496,3.5687,3.57,3.5704,3.5514,3.5181,3.4794,3.4423,3.4006,3.3266,3.2466,3.1733,3.1213,3.1112,3.1112,0.0,0.0,0.0,0.0,0.0,0.0,3.1112,0.0,0.0,0.0,0.0,0.0,0.0,0.0,0.0,0.0,0.0,0.0,3.0393,0.0,3.0559,2.9406,2.9361,0.0,2.8415,2.786,2.7625,2.7625,2.7625,2.7625,2.7625,2.7625,2.7625,2.7625,2.7625,2.7625,2.7625,2.7625,2.7625,2.7625,2.7625,2.7959,2.8415,0.0,0.0,0.0,0.0,0.0,0.0,0.0,3.5545,3.5547,3.5585,3.5646,3.5678,3.5617,3.5362,3.5059,3.4733,3.4401,3.4093,3.3815,3.3652,3.3447,3.3214,3.2565,3.2179,3.2057,3.2161,3.2449,0.0,0.0,3.4421,3.4961,3.5203,0.0,0.0,0.0,3.4051,3.356,3.3112,3.2515,3.1846,3.1846,3.1612,3.124,3.0965,3.0982,3.1189,3.0942,3.1015,3.119,3.119,3.119,3.1368,3.2231,3.2484,3.2787,3.4274,3.4694,3.4851,3.5522,3.5707,3.57,3.5704,3.563,3.5388,3.4832,3.4612,3.4246,3.3382,3.2466,3.166,3.1252,3.119,3.119,0.0,0.0,0.0,0.0,0.0,0.0,0.0,0.0,3.1351,0.0,0.0,0.0,0.0,0.0,0.0,0.0,0.0,0.0,3.0838,0.0,3.0797,2.9951,2.9935,2.9451,2.8511,2.8238,2.7944,2.7625,2.7625,2.7625,2.7625,2.7625,2.7625,2.7625,2.7625,2.7625,2.7625,2.7625,2.7625,2.7625,2.7625,2.7993,2.8559,3.4386,0.0,3.4734,0.0,3.4907,3.507,3.5354,3.5383,3.5417,3.5493,3.5584,3.5595,3.546,3.5202,3.4926,3.4572,3.4265,3.3993,3.3815,3.368,3.3437,3.3014,3.2533,0.0,3.1623,3.2074,3.235,3.2484,3.3515,0.0,3.4641,0.0,0.0,0.0,3.5056,3.4623,3.4043,3.3778,3.3343,3.28,3.28,3.2709,3.2451,3.2127,3.2004,3.1968,3.1677,3.16,3.16,3.16,3.16,3.1694,3.2316,3.2645,3.3057,3.4342,3.4773,3.4945,3.5537,3.5707,3.57,3.5704,3.5707,3.5522,3.4851,3.4694,3.4423,3.3411,3.2565,3.1861,3.1449,3.1291,3.119,3.119,0.0,0.0,0.0,0.0,0.0,0.0,3.119,3.1411,3.1968,0.0,0.0,0.0,0.0,0.0,0.0,0.0,0.0,0.0,0.0,0.0,0.0,3.0293,2.9761,2.8779,2.8606,2.8189,2.7625,2.7625,2.7625,2.7625,2.7625,2.7625,2.7625,2.7625,2.7625,2.7625,2.7625,2.7625,2.7625,2.781,2.8238,2.8873,3.3666,3.4209,3.4612,3.4269,3.4467,3.4812,3.5051,3.5105,3.5207,3.5479,3.5493,3.5398,3.5141,3.487,3.4572,3.4242,3.3961,3.3788,3.3807,3.3437,3.3014,0.0,0.0,3.164,3.123,3.1603,3.2039,3.2484,0.0,0.0,3.4204,0.0,3.5371,3.5683,3.5408,3.5251,3.5153,3.4891,3.4314,3.3587,3.3587,3.3158,3.2484,3.2484,3.2484,3.2484,3.2484,3.2484,3.2484,3.2484,3.2484,3.2484,3.2484,3.2997,3.3718,3.447,3.4889,3.5193,3.5585,3.5707,3.57,3.5704,3.5707,3.5522,3.4851,3.4694,3.4423,3.3411,3.2809,3.235,3.1897,3.147,3.119,3.119,0.0,0.0,0.0,0.0,0.0,0.0,3.119,3.1524,3.2417,0.0,0.0,0.0,0.0,0.0,0.0,0.0,0.0,3.0351,3.0878,0.0,3.0293,3.0293,2.9978,2.9361,2.8779,2.8189,2.7625,2.7625,2.7625,2.7625,2.7625,2.7625,2.7625,2.7625,2.7625,2.7625,2.7625,2.7625,2.766,2.8286,2.8873,2.9496,3.3688,3.3935,3.4111,3.4195,3.4288,3.4532,3.5016,3.5105,3.5207,3.546,3.5493,3.5383,3.5122,3.487,3.4653,0.0,3.4087,3.3807,0.0,3.3419,3.3136,3.2983,3.223,3.1752,3.1603,3.1716,3.2022,3.2484,0.0,0.0,0.0,3.4994,3.5348,3.5623,3.5407,3.5272,3.5174,3.4901,3.4634,3.4342,3.4091,3.3869,3.3615,3.316,3.2983,3.2952,3.2616,3.2484,3.2484,3.2484,3.2713,3.2983,3.2983,3.3252,3.3744,3.447,3.4889,3.5193,3.5585,3.5707,3.57,3.5704,3.5707,3.5571,3.5089,3.4636,3.4128,3.3354,3.2827,3.235,3.1897,3.147,3.119,3.119,3.119,0.0,0.0,0.0,0.0,0.0,3.119,3.1524,0.0,3.2074,0.0,0.0,0.0,0.0,0.0,0.0,0.0,0.0,3.1095,0.0,3.0918,3.0918,3.0393,2.9406,2.9225,2.8591,2.7625,2.7625,2.7625,2.7625,2.8042,2.7993,2.7625,2.8042,2.7944,2.7625,2.7625,2.7625,2.766,2.8286,2.8873,2.9496,3.3255,3.3578,3.3868,3.4018,3.4123,3.436,3.487,3.5053,3.5207,3.546,3.5493,3.5432,3.5273,3.4926,0.0,3.4529,3.4087,3.3807,3.3807,3.3419,3.3105,3.2952,3.2196,3.1733,3.1565,0.0,0.0,3.2484,3.3136,3.3795,3.4529,3.4863,3.5207,3.5492,3.5507,3.55,3.5451,3.529,3.5086,3.4867,3.4661,3.4499,3.4334,3.3784,3.3579,3.3533,3.3148,3.2996,3.2996,3.2996,3.3196,3.3447,3.3552,3.3792,3.4102,3.4553,3.4963,3.5327,3.5633,3.5707,3.57,3.5704,3.5707,3.5571,3.5072,3.4553,3.4056,3.3514,3.3075,3.2616,3.2127,3.1696,3.1389,3.123,3.119,3.119,3.119,0.0,0.0,0.0,0.0,0.0,0.0,3.2127,0.0,0.0,0.0,0.0,0.0,0.0,0.0,3.119,3.119,0.0,3.119,3.119,3.0601,2.9406,2.895,2.8304,2.7625,2.781,2.7959,2.7944,2.8591,2.8511,2.7944,2.8319,2.814,2.7625,2.786,2.7959,2.8042,2.8857,2.9406,2.9805,3.255,3.3196,0.0,0.0,3.4012,0.0,3.4653,3.4908,3.5174,3.546,3.5493,3.5493,3.546,3.4999,3.4572,3.4223,0.0,0.0,0.0,3.339,3.2952,3.2517,3.2022,3.1565,3.119,3.1565,3.2004,3.2484,3.3361,3.391,3.42,3.4621,3.4986,3.5309,3.5704,3.5898,3.5898,3.5911,3.5637,3.5245,3.5218,3.4999,3.4695,3.436,3.4223,3.4195,3.3928,3.3815,3.3815,3.3815,3.3815,3.3895,3.4147,3.4445,3.4714,3.4714,3.5088,3.5545,3.5661,3.5707,3.57,3.5704,3.5688,3.5522,3.487,3.4467,3.4147,3.3876,3.3476,3.3075,3.2616,3.2179,3.1733,3.1351,3.1291,3.1291,3.1291,0.0,0.0,0.0,0.0,0.0,0.0,3.223,3.2332,0.0,0.0,0.0,0.0,0.0,3.119,3.119,3.119,3.119,3.119,3.119,3.0617,2.9451,2.8255,2.771,2.776,2.8319,2.8559,2.8606,2.918,2.9134,2.8559,2.8606,2.8271,2.776,2.8319,2.8559,2.8685,2.9848,3.0293,3.0393,0.0,0.0,3.3437,3.3734,3.3868,3.4087,3.4612,3.4754,3.4963,3.5432,3.5493,3.5432,3.5223,3.4908,3.4572,3.4223,3.3961,3.3807,3.3807,3.3105,3.2616,3.2517,3.175,3.1291,3.119,3.1291,3.1714,3.2484,3.3075,3.3634,3.42,3.4574,3.4902,3.5238,3.5589,3.575,3.5742,3.5862,3.5777,3.556,3.529,3.5149,3.5047,3.4717,3.4572,3.4529,3.4218,3.4117,3.4117,3.4117,3.4117,3.4147,3.4486,3.4774,3.4999,3.4999,3.5239,3.5545,3.5661,3.5707,3.57,3.5704,3.563,3.5436,3.5088,3.4793,3.4486,3.4171,3.3634,3.3184,3.3045,3.2648,3.2316,3.2231,3.2179,3.2179,3.2179,3.1861,0.0,0.0,3.1389,3.1487,3.2282,3.2451,3.2616,0.0,0.0,0.0,0.0,3.1389,3.119,3.119,3.119,3.119,3.119,3.119,3.0838,3.0081,2.9345,2.8996,2.8996,2.9134,2.918,2.9225,2.9805,2.9761,2.9225,2.9673,2.954,2.8996,2.9134,2.918,2.9271,3.0021,3.0293,3.0393,3.2466,3.2903,3.3273,3.3494,3.3778,3.4093,3.4423,3.4593,3.4793,3.5105,3.5122,3.5088,3.4944,3.4655,3.4401,3.42,3.3961,3.3807,3.3807,3.2996,3.2484,3.2484,3.1657,3.119,3.119,3.119,3.1524,3.2161,3.2648,3.3189,3.375,3.4067,3.4484,3.5025,3.5338,3.5587,3.5801,3.5879,3.5854,3.5775,3.558,3.5466,3.5364,3.504,3.4905,3.4832,3.4551,3.4423,3.4423,3.4423,3.4423,3.4467,3.4793,3.4981,3.5122,3.5277,3.5422,3.5584,3.568,3.5743,3.5781,3.571,3.5608,3.5432,3.5155,3.4889,3.4593,3.4269,3.3821,3.3437,3.3243,3.2983,3.2745,3.2517,3.2484,3.2484,3.2484,3.2109,0.0,3.1789,3.1603,3.1677,3.2127,3.2583,3.2858,3.289,0.0,0.0,3.1861,3.1603,3.1389,3.119,3.119,3.119,3.119,3.0935,3.0601,3.0293,2.9673,2.9406,2.9406,2.9673,2.9805,2.9865,3.0435,3.0393,2.9848,3.0166,2.9935,2.9406,2.9717,2.9805,2.9892,3.0477,3.0828,3.1033,3.1771,3.2433,3.3014,3.3075,3.3625,3.408,3.411,3.4401,3.4653,3.4694,3.4694,3.4674,3.4632,3.4379,3.4176,3.4147,3.391,3.3807,3.3807,3.2996,3.2484,3.2484,3.1657,3.119,3.119,3.119,3.1389,3.1789,3.2196,3.2681,3.3214,3.346,3.3998,3.4718,3.5055,3.5427,3.5808,3.5878,3.5898,3.5898,3.5898,3.5797,3.5628,3.5361,3.522,3.5141,3.487,3.4774,3.4754,3.4754,3.4754,3.4812,3.5088,3.5155,3.5226,3.5508,3.5624,3.5631,3.5713,3.5797,3.5846,3.5718,3.5603,3.5446,3.5207,3.4926,3.4632,3.4334,3.4018,3.3707,3.3361,3.3302,3.3166,3.2777,3.2713,3.2681,3.2616,0.0,3.1897,3.1825,3.1752,3.1752,3.188,3.2648,3.2983,3.2713,3.3014,3.284,0.0,3.1897,3.1623,3.1291,3.123,3.119,3.119,3.0699,3.0435,3.0435,2.9935,2.9673,2.9673,3.0208,3.0435,3.0477,3.0975,3.0918,3.0435,3.0435,3.0123,2.9717,3.0251,3.0435,3.0518,3.1015,3.1449,3.1789,3.1625,3.1915,3.2127,3.255,3.3027,3.3421,3.3676,3.4043,3.4379,3.4653,3.4694,3.4593,3.4311,3.4223,3.4099,3.3876,3.3815,3.3807,3.3807,3.2996,3.2484,3.2484,3.1657,3.119,3.119,3.119,3.1389,3.1789,3.188,3.2366,3.3214,3.346,3.3839,3.43,3.4926,3.5252,3.5334,3.5731,3.5898,3.5898,3.5898,3.5877,3.5835,3.5676,3.5575,3.5489,3.523,3.5089,3.5053,3.5053,3.5053,3.5088,3.5354,3.5432,3.5465,3.557,3.5646,3.5715,3.5836,3.5797,3.5719,3.5712,3.5603,3.5493,3.5446,3.507,3.4674,3.4632,3.4184,3.3762,3.3707,3.3707,3.368,3.3606,3.3606,3.3476,3.3136,0.0,3.223,3.1861,3.1507,3.1582,3.2316,3.2517,3.2872,3.355,3.3361,3.3154,3.3014,3.223,3.1789,3.1733,3.1389,3.119,3.119,3.1112,3.1055,3.1055,3.0975,3.0918,3.0918,3.1015,3.1055,3.1055,3.1151,3.1151,3.1055,3.1055,3.1015,3.0918,3.1015,3.1055,3.1055,3.1151,3.1449,3.1789,3.0914,3.1439,3.1861,3.2109,3.25,3.2947,3.3346,3.3543,3.3776,3.4184,3.4208,3.416,3.4012,3.3986,3.3935,3.3815,3.3606,3.3494,3.3494,3.2872,3.2484,3.2484,3.1657,3.119,3.119,3.119,3.1291,3.147,3.147,3.1806,3.2466,3.2831,3.3302,3.3882,3.4442,3.4859,3.5199,3.5436,3.5638,3.5806,3.5876,3.5859,3.578,3.5792,3.5737,3.5649,3.5515,3.5451,3.5435,3.5377,3.5377,3.5392,3.5479,3.5526,3.5584,3.5641,3.5739,3.5824,3.593,3.582,3.5698,3.5714,3.5603,3.5493,3.5493,3.5207,3.487,3.4714,3.433,3.3961,3.3815,3.3807,3.3807,3.3807,3.3807,0.0,0.0,3.3136,3.2809,3.2565,3.2384,3.2451,3.2858,3.3057,3.339,3.3762,3.3625,3.3437,3.3214,3.2533,3.2057,3.1825,3.1411,3.119,3.119,3.119,3.119,3.119,3.119,3.119,3.119,3.119,3.119,3.119,3.119,3.119,3.119,3.119,3.119,3.119,3.119,3.119,3.119,3.119,3.162,3.2179,3.0064,3.0818,3.1439,3.1439,3.1951,3.2451,3.2809,3.2983,3.3136,3.3447,3.3504,3.3504,3.3504,3.3504,3.3504,3.3504,3.3225,3.3045,3.3045,3.2616,3.235,3.235,3.162,3.119,3.119,3.119,3.119,3.119,3.119,3.1411,3.1825,3.2282,3.2849,3.3515,3.3994,3.4521,3.5094,3.5163,3.5377,3.569,3.5817,3.581,3.5762,3.5859,3.5845,3.5747,3.5747,3.572,3.5681,3.5642,3.5612,3.5622,3.5565,3.5584,3.5641,3.5718,3.5835,3.5939,3.5986,3.5848,3.5698,3.5714,3.5603,3.5493,3.5493,3.5239,3.4944,3.4734,3.4379,3.4043,3.3842,3.3807,3.3807,3.3807,0.0,0.0,0.0,3.3302,3.3045,3.3045,3.2934,3.2983,3.3184,3.3494,3.3707,3.3788,3.3707,3.3578,3.3332,3.2695,3.2144,3.166,3.1351,3.119,3.119,3.119,3.119,3.119,3.119,3.119,3.119,3.119,3.119,3.119,3.119,3.119,3.119,3.119,3.119,3.119,3.119,3.119,3.123,3.1329,3.1806,3.2517,2.9361,2.9978,3.0418,3.0418,3.121,3.1844,3.188,3.2264,3.255,3.2583,3.2583,3.2583,3.2583,3.2583,3.2583,3.2583,3.2583,3.255,3.255,3.2092,3.1861,3.1861,3.1449,3.119,3.119,3.119,3.119,3.119,3.119,3.1411,3.1825,3.2282,3.2777,3.3255,3.3913,3.4383,3.4755,3.5078,3.5353,3.5605,3.5689,3.5784,3.5898,3.5898,3.5898,3.5898,3.5896,3.5818,3.5702,3.5682,3.5698,3.5699,3.5699,3.5699,3.5718,3.5853,3.5939,3.5994,3.5996,3.5848,3.5698,3.5714,3.5603,3.5493,3.5493,3.5105,3.4714,3.4694,3.4232,3.3815,3.3788,3.3807,3.3807,3.3807,0.0,0.0,3.3302,3.284,3.255,3.255,3.2161,3.2264,3.3105,3.3214,3.3408,3.3762,3.3447,3.339,3.3734,3.2548,3.166,3.1269,3.123,3.119,3.119,3.119,3.119,3.119,3.119,3.119,3.119,3.119,3.119,3.119,3.119,3.119,3.119,3.119,3.119,3.119,3.119,3.119,3.1269,3.164,3.2074,3.255,2.8779,2.9316,2.9848,3.0251,3.0608,3.1055,3.1699,3.1951,3.2161,3.2451,3.2484,3.2484,3.2484,3.2484,3.2484,3.2484,3.223,3.2074,3.2074,3.1677,3.1411,3.1411,3.1291,3.119,3.119,3.119,3.119,3.119,3.119,3.1291,3.1449,3.1878,3.2298,3.2777,3.3335,3.388,3.4423,3.4756,3.5047,3.5312,3.5528,3.5697,3.5795,3.5864,3.5937,3.5957,3.5957,3.5934,3.5879,3.584,3.5825,3.5815,3.5737,3.5747,3.5834,3.593,3.5981,3.5992,3.5949,3.5823,3.5698,3.5714,3.5603,3.5446,3.5289,3.5088,3.4851,3.4467,3.4195,3.4012,3.3815,3.3807,3.3807,3.3807,0.0,3.3734,3.3578,3.3419,3.3314,3.3314,3.3148,3.3178,3.355,3.3578,3.3522,3.3437,3.3522,3.339,3.3027,3.2213,3.164,3.123,3.119,3.119,3.119,3.119,3.119,3.119,3.119,3.119,3.119,3.119,3.119,3.119,3.119,3.119,3.119,3.119,3.1351,3.1565,3.1565,3.175,3.2021,3.2179,3.2533,3.2952,2.8238,2.8685,2.9225,2.9673,2.9892,3.0302,3.121,3.1325,3.1514,3.2004,3.2092,3.2092,3.2092,3.2092,3.2092,3.2092,3.1806,3.1603,3.1603,3.1351,3.119,3.119,3.119,3.119,3.119,3.119,3.119,3.119,3.119,3.119,3.119,3.1603,3.1951,3.2316,3.2903,3.3505,3.4043,3.4383,3.4774,3.5122,3.5362,3.5528,3.5689,3.5763,3.5875,3.5976,3.5976,3.5976,3.5996,3.5957,3.5925,3.5914,3.5817,3.5859,3.5931,3.5989,3.6002,3.5984,3.5925,3.5797,3.5699,3.5656,3.5584,3.5432,3.5155,3.5034,3.4832,3.4292,3.4123,3.4018,3.3842,3.3807,3.3807,3.3807,3.3807,3.3807,3.3807,3.3707,3.3652,3.3762,3.368,3.368,3.3807,3.3807,3.368,3.339,3.339,3.3027,3.2162,3.1897,3.164,3.123,3.119,3.119,3.119,3.119,3.119,3.119,3.119,3.119,3.119,3.119,3.119,3.119,3.119,3.119,3.119,3.119,3.1449,3.1789,3.1789,3.2109,3.2517,3.2648,3.2903,3.3214,2.7625,2.8091,2.8511,2.8511,2.9012,2.9585,3.0208,3.0293,3.0518,3.1095,3.119,3.119,3.119,3.119,3.119,3.119,3.119,3.119,3.119,3.119,3.119,3.119,3.119,3.119,3.119,3.119,3.119,3.119,3.119,3.119,3.119,3.1603,3.1789,3.1861,3.2777,3.3346,3.3613,3.4018,3.4553,3.5088,3.5105,3.5312,3.5605,3.5607,3.5713,3.5898,3.5898,3.5937,3.5996,3.5996,3.5996,3.5996,3.5996,3.5996,3.5996,3.5996,3.5996,3.5984,3.5925,3.5795,3.568,3.5622,3.5565,3.5432,3.5155,3.4889,3.4593,3.4269,3.3986,3.3807,3.3807,3.3807,3.3807,3.3807,3.3807,3.3807,3.3807,3.3465,3.3361,3.3734,3.3465,3.3361,3.3762,3.3807,3.3807,3.3788,3.2996,3.2127,3.1269,3.1565,3.1603,3.123,3.119,3.119,3.119,3.119,3.119,3.119,3.119,3.119,3.119,3.119,3.119,3.119,3.119,3.119,3.119,3.119,3.1449,3.1825,3.1825,3.2092,3.255,3.3045,3.3214,3.3273,2.7625,2.776,2.7993,2.8431,2.8654,2.8966,2.9585,2.9673,2.9908,3.0477,3.0559,3.074,3.1151,3.119,3.119,3.119,3.119,3.119,3.119,3.119,3.1015,3.0576,3.0559,3.0757,3.119,3.0797,3.0797,3.119,3.119,3.119,3.119,3.1312,3.1545,3.1825,3.2451,3.2947,3.3364,3.3938,3.4292,3.451,3.4925,3.5197,3.5334,3.5534,3.5676,3.5773,3.5862,3.5918,3.5937,3.5976,3.5586,3.5098,3.5098,3.5508,3.5996,3.5996,3.5976,3.5893,3.5787,3.5701,3.5641,3.5603,3.5565,3.5432,3.5155,3.4889,3.4593,3.4269,3.3986,3.3807,3.3807,3.3807,3.3807,3.3807,3.3807,3.3807,3.3807,3.3707,3.368,3.3807,3.3707,3.368,3.3807,3.3807,3.355,3.2934,3.2092,3.1582,3.164,3.1487,3.1312,3.119,3.119,3.119,3.119,3.119,3.119,3.119,3.119,3.119,3.119,3.119,3.119,3.119,3.119,3.119,3.119,3.119,3.162,3.2282,3.2282,3.2759,3.3419,3.3578,3.3606,3.3652,2.7625,2.7625,2.7725,2.8091,2.814,2.8367,2.895,2.9042,2.9271,2.9865,2.9935,3.0064,3.0435,3.0699,3.0838,3.0838,3.1055,3.119,3.119,3.0975,3.0699,3.0309,2.9848,2.9978,3.0838,3.0699,3.0838,3.119,3.119,3.119,3.119,3.119,3.1411,3.1825,3.2109,3.2583,3.3243,3.3616,3.3956,3.4223,3.4595,3.4918,3.5185,3.5339,3.5526,3.5676,3.5753,3.5597,3.5351,3.543,3.4863,3.4141,3.418,3.4746,3.541,3.5449,3.5625,3.5795,3.5679,3.562,3.5603,3.5584,3.5545,3.5398,3.5035,3.4832,3.4572,3.4141,3.3928,3.3807,3.3807,3.3807,3.3807,3.3807,3.3807,3.3807,3.3807,3.3807,3.3807,3.3807,3.3807,3.3807,3.3807,3.3807,3.3522,3.2809,3.2127,3.175,3.1789,3.1411,3.119,3.119,3.119,3.119,3.119,3.119,3.119,3.119,3.119,3.119,3.119,3.119,3.119,3.119,3.1389,3.1351,3.123,3.1562,3.2021,3.2517,3.2713,3.3196,3.3807,3.3807,3.3807,3.3807,2.7625,2.7625,2.7625,2.7625,2.7625,2.781,2.8334,2.8415,2.8654,2.9225,2.9316,2.9316,2.9406,2.9892,3.0208,3.0208,3.0699,3.1055,3.1112,3.0559,3.0208,3.0123,2.9134,2.9088,3.0208,3.0757,3.1095,3.119,3.119,3.119,3.119,3.119,3.1389,3.1752,3.1825,3.2332,3.3136,3.3214,3.3607,3.4171,3.4176,3.4544,3.5028,3.5081,3.5282,3.5565,3.5493,3.5044,3.4469,3.4394,3.3887,3.3301,3.3357,3.3905,3.4531,3.4665,3.5172,3.5676,3.5612,3.5603,3.5584,3.5526,3.5493,3.5369,3.4889,3.4734,3.4548,3.4005,3.3842,3.3807,3.3807,3.3807,3.3807,3.3807,3.3807,3.3807,3.3807,3.3807,3.3807,3.3807,3.3807,3.3807,3.3807,3.378,3.3578,3.3214,3.2777,3.2316,3.1825,3.1449,3.123,3.119,3.123,3.123,3.119,3.1291,3.1291,3.119,3.123,3.1252,3.1269,3.1291,3.1329,3.1329,3.1696,3.166,3.1368,3.2179,3.2517,3.2616,3.3045,3.3465,3.3807,3.3807,3.3807,3.3807,2.7625,2.7625,2.7625,2.7625,2.7625,2.761,2.776,2.781,2.7993,2.8606,2.8701,2.8873,2.9361,2.954,2.9585,2.9585,2.9717,2.9995,3.0477,2.9935,2.9361,2.8919,2.9088,2.9316,2.9585,2.9717,3.0251,3.119,3.119,3.119,3.119,3.119,3.1269,3.1351,3.2039,3.2451,3.2681,3.339,3.3743,3.3902,3.4123,3.4269,3.4433,3.4926,3.5147,3.5147,3.473,3.4475,3.4149,3.291,3.2812,3.3219,3.323,3.3829,3.4622,3.5269,3.554,3.5623,3.5605,3.5565,3.5526,3.5493,3.5493,3.5479,3.5354,3.4999,3.4653,3.4548,3.4136,3.3807,3.3807,3.3807,3.3807,3.3807,3.3807,3.3807,3.3807,3.3807,3.3807,3.3807,3.3807,3.3807,3.3807,3.3522,3.3302,3.3214,3.2777,3.2316,3.1825,3.1733,3.1545,3.119,3.1507,3.1507,3.119,3.1896,3.1896,3.119,3.1507,3.166,3.1696,3.2039,3.2231,3.2213,3.2316,3.2316,3.2213,3.2417,3.2713,3.3045,3.3154,3.3465,3.3807,3.3807,3.3807,3.3807,2.7086,2.7357,2.7625,2.7625,2.7625,2.7625,2.7625,2.7625,2.771,2.8042,2.8091,2.8174,2.8496,2.8826,2.9088,2.9361,2.9406,2.954,2.9848,2.9316,2.8826,2.8511,2.8779,2.9104,2.9406,2.9673,3.0293,3.119,3.119,3.119,3.119,3.119,3.1291,3.1507,3.1968,3.24,3.284,3.3332,3.3606,3.3815,3.3961,3.4102,3.4252,3.4733,3.4977,3.5018,3.4466,3.3769,3.2921,3.1661,3.1538,3.1994,3.2443,3.3103,3.391,3.4776,3.5282,3.5565,3.5565,3.5545,3.5493,3.5493,3.5493,3.5479,3.5354,3.4981,3.4653,3.4489,3.4111,3.3807,3.3807,3.3807,3.3807,3.3807,3.3807,3.3807,3.3807,3.3807,3.3807,3.3807,3.3807,3.3807,3.3807,3.3606,3.3494,3.3494,3.3075,3.2745,3.2466,3.2264,3.2039,3.1823,3.2004,3.2039,3.1823,3.2282,3.2282,3.1823,3.2039,3.2127,3.2127,3.2384,3.2484,3.2517,3.2745,3.2713,3.2517,3.2934,3.3166,3.3214,3.339,3.3606,3.3807,3.3807,3.3807,3.3807,2.6283,2.693,2.7408,2.7408,2.7524,2.7625,2.7625,2.7625,2.7625,2.7625,2.7625,2.7625,2.7625,2.8042,2.8606,2.918,2.9134,2.9134,2.9225,2.8685,2.8334,2.8334,2.8334,2.8685,2.9361,2.9892,3.0477,3.119,3.119,3.119,3.119,3.119,3.1389,3.1696,3.1789,3.2264,3.3093,3.3184,3.3419,3.3807,3.3807,3.3944,3.4173,3.4494,3.4795,3.4941,3.4351,3.3205,3.1888,3.1153,3.0922,3.1076,3.2004,3.2667,3.3292,3.4236,3.4979,3.5493,3.5493,3.5493,3.5493,3.5493,3.5493,3.5446,3.5223,3.4963,3.4694,3.4357,3.4068,3.3868,3.3807,3.3807,3.3807,3.3807,3.3807,3.3807,3.3807,3.3807,3.3807,3.3807,3.3807,3.3807,3.3807,3.3807,3.3807,3.3807,3.3494,3.3273,3.3214,3.2809,3.2583,3.2517,3.2583,3.2583,3.2484,3.2648,3.2681,3.2616,3.2681,3.2681,3.2616,3.2681,3.2713,3.2745,3.3136,3.3075,3.2777,3.3504,3.3606,3.3332,3.368,3.3807,3.3807,3.3807,3.3807,3.3807,2.5563,2.6122,2.6669,2.6669,2.7203,2.7625,2.7625,2.7625,2.7625,2.7625,2.7625,2.7625,2.7625,2.766,2.7944,2.8559,2.8125,2.8091,2.8606,2.8042,2.771,2.771,2.771,2.8271,2.9361,2.9496,3.0081,3.119,3.119,3.119,3.119,3.119,3.123,3.1291,3.1623,3.2092,3.2616,3.3014,3.3419,3.3807,3.3807,3.3825,3.3862,3.4173,3.4473,3.4691,3.4068,3.3391,3.2721,3.2625,3.2586,3.2721,3.3612,3.3955,3.4216,3.5089,3.5397,3.5493,3.5493,3.5493,3.5493,3.5493,3.5493,3.5493,3.5446,3.5239,3.4963,3.4694,3.4379,3.4093,3.3842,3.3807,3.3807,3.3807,3.3807,3.3807,3.3807,3.3807,3.3807,3.3807,3.3807,3.3807,3.3807,3.3807,3.3807,3.3807,3.3734,3.3578,3.3214,3.3154,3.2921,3.2517,3.2872,3.2921,3.2517,3.3255,3.3447,3.3105,3.3447,3.3447,3.3124,3.3465,3.3634,3.3634,3.3707,3.368,3.3634,3.3734,3.3762,3.3734,3.378,3.3807,3.3807,3.3807,3.3807,3.3807,2.4794,2.5398,2.5892,2.5892,2.6496,2.6982,2.6982,2.7357,2.7625,2.7625,2.7625,2.7625,2.7625,2.7625,2.771,2.7944,2.776,2.771,2.7993,2.776,2.7625,2.7625,2.7894,2.8367,2.8873,2.954,3.0166,3.0699,3.1015,3.119,3.119,3.119,3.119,3.123,3.164,3.2057,3.2517,3.3014,3.3419,3.3807,3.3807,3.3807,3.3844,3.4301,3.4569,3.4636,3.419,3.3544,3.2897,3.2897,3.2897,3.3051,3.3923,3.4205,3.437,3.5243,3.5493,3.5493,3.5493,3.5493,3.5493,3.5493,3.5493,3.5493,3.5493,3.5417,3.5207,3.4793,3.4423,3.4123,3.3868,3.3807,3.3807,3.3807,3.3807,3.3807,3.3807,3.3807,3.3807,3.3807,3.3807,3.3807,3.3807,3.3807,3.3807,3.3807,3.3807,3.3734,3.355,3.3522,3.3447,3.3225,3.3419,3.3447,3.3225,3.3606,3.3707,3.355,3.3707,3.3707,3.355,3.3707,3.3807,3.3807,3.3807,3.3807,3.3807,3.3807,3.3807,3.3807,3.3807,3.3807,3.3807,3.3807,3.3807,3.3807]},{"header":{"parameterUnit":"m.s-1","parameterCategory":1,"la1":30.6,"la2":28.766,"lo1":-90.7593,"lo2":-88.6598,"dy":0.0162,"dx":0.0183,"nx":116,"ny":114,"refTime":"2023-08-25T00:00:00:Z","depth":0,"parameterNumber":3,"parameterNumberName":"V-component_of_WINDS"},"data":[0.0,0.0,0.0,0.0,0.0,0.0,0.0,0.0,0.0,0.0,0.0,0.0,0.0,0.0,0.0,0.0,0.0,0.0,0.0,0.0,0.0,0.0,0.0,0.0,0.0,0.0,0.0,0.0,0.0,0.0,0.0,0.0,0.0,0.0,0.0,0.0,0.0,0.0,0.0,0.0,0.0,0.0,0.0,0.0,0.0,0.0,0.0,0.0,0.0,0.0,0.0,0.0,0.0,0.0,0.0,0.0,0.0,0.0,0.0,0.0,0.0,0.0,0.0,0.0,0.0,0.0,0.0,0.0,0.0,0.0,0.0,0.0,0.0,0.0,0.0,0.0,0.0,0.0,0.0,0.0,0.0,0.0,0.0,0.0,0.0,0.0,0.0,0.0,0.0,0.0,0.0,0.0,0.0,0.0,0.0,0.0,0.0,0.0,0.0,0.0,0.0,0.0,0.0,0.0,0.0,0.0,0.0,0.0,0.0,0.0,0.0,0.0,0.0,0.0,0.0,0.0,0.0,0.0,0.0,0.0,0.0,0.0,0.0,0.0,0.0,0.0,0.0,0.0,0.0,0.0,0.0,0.0,0.0,0.0,0.0,0.0,0.0,0.0,0.0,0.0,0.0,0.0,0.0,0.0,0.0,0.0,0.0,0.0,0.0,0.0,0.0,0.0,0.0,0.0,0.0,0.0,0.0,0.0,0.0,0.0,0.0,0.0,0.0,0.0,0.0,0.0,0.0,0.0,0.0,0.0,0.0,0.0,0.0,0.0,0.0,0.0,0.0,0.0,0.0,0.0,0.0,0.0,0.0,0.0,0.0,0.0,0.0,0.0,0.0,0.0,0.0,0.0,0.0,0.0,0.0,0.0,0.0,0.0,0.0,0.0,0.0,0.0,0.0,0.0,0.0,0.0,0.0,0.0,0.0,0.0,0.0,0.0,0.0,0.0,0.0,0.0,0.0,0.0,0.0,0.0,0.0,0.0,0.0,0.0,0.0,0.0,0.0,0.0,0.0,0.0,0.0,0.0,0.0,0.0,0.0,0.0,0.0,0.0,0.0,0.0,0.0,0.0,0.0,0.0,0.0,0.0,0.0,0.0,0.0,0.0,0.0,0.0,0.0,0.0,0.0,0.0,0.0,0.0,0.0,0.0,0.0,0.0,0.0,0.0,0.0,0.0,0.0,0.0,0.0,0.0,0.0,0.0,0.0,0.0,0.0,0.0,0.0,0.0,0.0,0.0,0.0,0.0,0.0,0.0,0.0,0.0,0.0,0.0,0.0,0.0,0.0,0.0,0.0,0.0,0.0,0.0,0.0,0.0,0.0,0.0,0.0,0.0,0.0,0.0,0.0,0.0,0.0,0.0,0.0,0.0,0.0,0.0,0.0,0.0,0.0,0.0,0.0,0.0,0.0,0.0,0.0,0.0,0.0,0.0,0.0,0.0,0.0,0.0,0.0,0.0,0.0,0.0,0.0,0.0,0.0,0.0,0.0,0.0,0.0,0.0,0.0,0.0,0.0,0.0,0.0,0.0,0.0,0.0,0.0,0.0,0.0,0.0,0.0,0.0,0.0,0.0,0.0,0.0,0.0,0.0,0.0,0.0,0.0,0.0,0.0,0.0,0.0,0.0,0.0,0.0,0.0,0.0,0.0,0.0,0.0,0.0,0.0,0.0,0.0,0.0,0.0,0.0,0.0,0.0,0.0,0.0,0.0,0.0,0.0,0.0,0.0,0.0,0.0,0.0,0.0,0.0,0.0,0.0,0.0,0.0,0.0,0.0,0.0,0.0,0.0,0.0,0.0,0.0,0.0,0.0,0.0,0.0,0.0,0.0,0.0,0.0,0.0,0.0,0.0,0.0,0.0,0.0,0.0,0.0,0.0,0.0,0.0,0.0,0.0,0.0,0.0,0.0,0.0,0.0,0.0,0.0,0.0,0.0,0.0,0.0,0.0,0.0,0.0,0.0,0.0,0.0,0.0,0.0,0.0,0.0,0.0,0.0,0.0,0.0,0.0,0.0,0.0,0.0,0.0,0.0,0.0,0.0,0.0,0.0,0.0,0.0,0.0,0.0,0.0,0.0,0.0,0.0,0.0,0.0,0.0,0.0,0.0,0.0,0.0,0.0,0.0,0.0,0.0,0.0,0.0,0.0,0.0,0.0,0.0,0.0,0.0,0.0,0.0,0.0,0.0,0.0,0.0,0.0,0.0,0.0,0.0,0.0,0.0,0.0,0.0,0.0,0.0,0.0,0.0,0.0,0.0,0.0,0.0,0.0,0.0,0.0,0.0,0.0,0.0,0.0,0.0,0.0,0.0,0.0,0.0,0.0,0.0,0.0,0.0,0.0,0.0,0.0,0.0,0.0,0.0,0.0,0.0,0.0,0.0,0.0,0.0,0.0,0.0,0.0,0.0,0.0,0.0,0.0,0.0,0.0,0.0,0.0,0.0,0.0,0.0,0.0,0.0,0.0,0.0,0.0,0.0,0.0,0.0,0.0,0.0,0.0,0.0,0.0,0.0,0.0,0.0,0.0,0.0,0.0,0.0,0.0,0.0,0.0,0.0,0.0,0.0,0.0,0.0,0.0,0.0,0.0,0.0,0.0,0.0,0.0,0.0,0.0,0.0,0.0,0.0,0.0,0.0,0.0,0.0,0.0,0.0,0.0,0.0,0.0,0.0,0.0,0.0,0.0,0.0,0.0,0.0,0.0,0.0,0.0,0.0,0.0,0.0,0.0,0.0,0.0,0.0,0.0,0.0,0.0,0.0,0.0,0.0,0.0,0.0,0.0,0.0,0.0,0.0,0.0,0.0,0.0,0.0,0.0,0.0,0.0,0.0,0.0,0.0,0.0,0.0,0.0,0.0,0.0,0.0,0.0,0.0,0.0,0.0,0.0,0.0,0.0,0.0,0.0,0.0,0.0,0.0,0.0,0.0,0.0,0.0,0.0,0.0,0.0,0.0,0.0,0.0,0.0,0.0,0.0,0.0,0.0,0.0,0.0,0.0,0.0,0.0,0.0,0.0,0.0,0.0,0.0,0.0,0.0,0.0,0.0,0.0,0.0,0.0,0.0,0.0,0.0,0.0,0.0,0.0,0.0,0.0,0.0,0.0,0.0,0.0,0.0,0.0,0.0,0.0,0.0,0.0,0.0,0.0,0.0,0.0,0.0,0.0,0.0,0.0,0.0,0.0,0.0,0.0,0.0,0.0,0.0,0.0,0.0,0.0,0.0,0.0,0.0,0.0,0.0,0.0,0.0,0.0,0.0,0.0,0.0,0.0,0.0,0.0,0.0,0.0,0.0,0.0,0.0,0.0,0.0,0.0,0.0,0.0,0.0,0.0,0.0,0.0,0.0,0.0,0.0,0.0,0.0,0.0,0.0,0.0,0.0,0.0,0.0,0.0,0.0,0.0,0.0,0.0,0.0,0.0,0.0,0.0,0.0,0.0,0.0,0.0,0.0,0.0,0.0,0.0,0.0,0.0,0.0,0.0,0.0,0.0,0.0,0.0,0.0,0.0,0.0,0.0,0.0,0.0,0.0,0.0,0.0,0.0,0.0,0.0,0.0,0.0,0.0,0.0,0.0,0.0,0.0,0.0,0.0,0.0,0.0,0.0,0.0,0.0,0.0,0.0,0.0,0.0,0.0,0.0,0.0,0.0,0.0,0.0,0.0,0.0,0.0,0.0,0.0,0.0,0.0,0.0,0.0,0.0,0.0,0.0,0.0,0.0,0.0,0.0,0.0,0.0,0.0,0.0,0.0,0.0,0.0,0.0,0.0,0.0,0.0,0.0,0.0,0.0,0.0,0.0,0.0,0.0,0.0,0.0,0.0,0.0,0.0,0.0,0.0,0.0,0.0,0.0,0.0,0.0,0.0,0.0,0.0,0.0,0.0,0.0,0.0,0.0,0.0,0.0,0.0,0.0,0.0,0.0,0.0,0.0,0.0,0.0,0.0,0.0,0.0,0.0,0.0,0.0,0.0,0.0,0.0,0.0,0.0,0.0,0.0,0.0,0.0,0.0,0.0,0.0,0.0,0.0,0.0,0.0,0.0,0.0,0.0,0.0,0.0,0.0,0.0,0.0,0.0,0.0,0.0,0.0,0.0,0.0,0.0,0.0,0.0,0.0,0.0,0.0,0.0,0.0,0.0,0.0,0.0,0.0,0.0,0.0,0.0,0.0,0.0,0.0,0.0,0.0,0.0,0.0,0.0,0.0,0.0,0.0,0.0,0.0,0.0,0.0,0.0,0.0,0.0,0.0,0.0,0.0,0.0,0.0,0.0,0.0,0.0,0.0,0.0,0.0,0.0,0.0,0.0,0.0,0.0,0.0,0.0,0.0,0.0,0.0,0.0,0.0,0.0,0.0,0.0,0.0,0.0,0.0,0.0,0.0,0.0,0.0,0.0,0.0,0.0,0.0,0.0,0.0,0.0,0.0,0.0,0.0,0.0,0.0,0.0,0.0,0.0,0.0,0.0,0.0,0.0,0.0,0.0,0.0,0.0,0.0,0.0,0.0,0.0,0.0,0.0,0.0,0.0,0.0,0.0,0.0,0.0,0.0,0.0,0.0,0.0,0.0,0.0,0.0,0.0,0.0,0.0,0.0,0.0,0.0,0.0,0.0,0.0,0.0,0.0,0.0,0.0,0.0,0.0,0.0,0.0,0.0,0.0,0.0,0.0,0.0,0.0,0.0,0.0,0.0,0.0,0.0,0.0,0.0,0.0,0.0,0.0,0.0,0.0,0.0,0.0,0.0,0.0,0.0,0.0,0.0,0.0,0.0,0.0,0.0,0.0,0.0,0.0,0.0,0.0,0.0,0.0,0.0,0.0,0.0,0.0,0.0,0.0,0.0,0.0,0.0,0.0,0.0,0.0,0.0,0.0,0.0,0.0,0.0,0.0,0.0,0.0,0.0,0.0,0.0,0.0,0.0,0.0,0.0,0.0,0.0,0.0,0.0,0.0,0.0,0.0,0.0,0.0,0.0,0.0,0.0,0.0,0.0,0.0,0.0,0.0,0.0,0.0,0.0,0.0,0.0,0.0,0.0,0.0,0.0,0.0,0.0,0.0,0.0,0.0,0.0,0.0,0.0,0.0,0.0,0.0,0.0,0.0,0.0,0.0,0.0,0.0,0.0,0.0,0.0,0.0,0.0,0.0,0.0,0.0,0.0,0.0,0.0,0.0,0.0,0.0,0.0,0.0,0.0,0.0,0.0,0.0,0.0,0.0,0.0,0.0,0.0,0.0,0.0,0.0,0.0,0.0,0.0,0.0,0.0,0.0,0.0,0.0,0.0,0.0,0.0,0.0,0.0,0.0,0.0,0.0,0.0,0.0,0.0,0.0,0.0,0.0,0.0,0.0,0.0,0.0,0.0,0.0,0.0,0.0,0.0,0.0,0.0,0.0,0.0,0.0,0.0,0.0,0.0,0.0,0.0,0.0,0.0,0.0,0.0,0.0,0.0,0.0,0.0,0.0,0.0,0.0,0.0,0.0,0.0,0.0,0.0,0.0,0.0,0.0,0.0,0.0,0.0,0.0,0.0,0.0,0.0,0.0,0.0,0.0,0.0,0.0,0.0,0.0,0.0,0.0,0.0,0.0,0.0,0.0,0.0,0.0,0.0,0.0,0.0,0.0,0.0,0.0,0.0,0.0,0.0,0.0,0.0,0.0,0.0,0.0,0.0,0.0,0.0,0.0,0.0,0.0,0.0,0.0,0.0,0.0,0.0,0.0,0.0,0.0,0.0,0.0,0.0,0.0,0.0,0.0,0.0,0.0,0.0,0.0,0.0,0.0,0.0,0.0,0.0,0.0,0.0,0.0,0.0,0.0,0.0,0.0,0.0,0.0,0.0,0.0,0.0,0.0,0.0,0.0,0.0,0.0,0.0,0.0,0.0,0.0,0.0,0.0,0.0,0.0,0.0,0.0,0.0,0.0,0.0,0.0,0.0,0.0,0.0,0.0,0.0,0.0,0.0,0.0,0.0,0.0,0.0,0.0,0.0,0.0,0.0,0.0,0.0,0.0,0.0,0.0,0.0,0.0,0.0,0.0,0.0,0.0,0.0,0.0,0.0,0.0,0.0,0.0,0.0,0.0,0.0,0.0,-2.2474,0.0,0.0,0.0,0.0,0.0,0.0,0.0,0.0,0.0,0.0,0.0,0.0,0.0,0.0,0.0,0.0,0.0,0.0,0.0,0.0,0.0,0.0,0.0,0.0,0.0,0.0,0.0,0.0,0.0,0.0,0.0,0.0,0.0,0.0,0.0,0.0,0.0,0.0,3.9339,3.8644,3.8575,3.9099,3.8612,3.7998,3.7399,0.0,0.0,0.0,0.0,0.0,0.0,0.0,0.0,0.0,0.0,0.0,0.0,0.0,0.0,0.0,0.0,0.0,0.0,0.0,0.0,0.0,0.0,0.0,0.0,0.0,0.0,0.0,0.0,0.0,0.0,0.0,0.0,0.0,0.0,0.0,0.0,0.0,0.0,0.0,0.0,0.0,0.0,0.0,0.0,0.0,0.0,0.0,0.0,0.0,0.0,0.0,0.0,0.0,0.0,0.0,0.0,0.0,0.0,0.0,0.0,0.0,0.0,0.0,0.0,0.0,0.0,0.0,0.0,0.0,0.0,0.0,-2.5296,0.0,0.0,0.0,0.0,0.0,0.0,0.0,0.0,0.0,0.0,0.0,0.0,0.0,0.0,0.0,0.0,0.0,0.0,0.0,0.0,0.0,0.0,0.0,0.0,3.5854,3.6481,3.6943,3.7433,0.0,0.0,0.0,0.0,0.0,0.0,0.0,3.9671,3.9712,3.9599,3.9314,3.9186,3.9186,3.9529,3.9107,3.8076,3.86,0.0,0.0,0.0,0.0,0.0,0.0,0.0,0.0,0.0,0.0,0.0,0.0,0.0,0.0,0.0,0.0,0.0,0.0,0.0,0.0,0.0,0.0,0.0,0.0,0.0,0.0,0.0,0.0,0.0,0.0,0.0,0.0,0.0,0.0,0.0,0.0,0.0,0.0,0.0,0.0,0.0,0.0,0.0,0.0,0.0,0.0,0.0,0.0,0.0,0.0,0.0,0.0,0.0,0.0,0.0,0.0,0.0,0.0,0.0,0.0,0.0,0.0,0.0,-2.2457,-2.2261,-2.2884,-2.328,-2.3446,-2.3551,-2.4942,-2.5753,-2.6294,0.0,0.0,0.0,0.0,0.0,0.0,0.0,0.0,0.0,0.0,0.0,0.0,0.0,0.0,0.0,0.0,0.0,0.0,0.0,0.0,0.0,0.0,3.5622,3.6011,3.702,3.7152,3.7596,0.0,0.0,0.0,0.0,0.0,0.0,3.916,3.9946,4.0119,3.9599,3.9552,3.9534,3.9552,3.988,3.9924,3.9762,3.9277,3.8877,3.8572,0.0,0.0,0.0,0.0,0.0,0.0,0.0,0.0,0.0,0.0,0.0,0.0,0.0,0.0,0.0,0.0,0.0,0.0,0.0,0.0,0.0,0.0,0.0,0.0,0.0,0.0,0.0,0.0,0.0,0.0,0.0,0.0,0.0,0.0,0.0,0.0,0.0,0.0,0.0,0.0,0.0,1.9491,1.8809,0.0,0.0,0.0,0.0,0.0,0.0,0.0,0.0,0.0,0.0,0.0,0.0,0.0,0.0,-2.4666,-2.1957,-2.1152,-2.2139,-2.199,-2.1951,-2.2125,-2.4063,-2.4942,-2.4997,-2.635,0.0,-2.7076,-2.7765,0.0,0.0,0.0,0.0,0.0,0.0,0.0,0.0,0.0,0.0,0.0,0.0,0.0,0.0,0.0,0.0,0.0,0.0,0.0,0.0,0.0,3.5783,3.6122,3.747,3.736,3.7632,3.8627,3.8707,0.0,0.0,0.0,3.9622,3.9668,4.0193,4.0302,3.988,4.0024,4.0062,3.9948,4.0271,4.0385,4.025,3.9872,3.9621,3.9494,3.9618,0.0,0.0,0.0,0.0,0.0,0.0,0.0,0.0,0.0,0.0,0.0,0.0,0.0,0.0,0.0,0.0,0.0,0.0,0.0,0.0,0.0,0.0,0.0,0.0,0.0,0.0,0.0,0.0,0.0,0.0,0.0,0.0,0.0,0.0,0.0,0.0,0.0,0.0,0.0,2.0943,1.8253,1.6224,1.4993,0.5047,0.0,0.0,0.0,0.0,0.0,0.0,0.0,0.0,0.0,-2.1606,-2.1415,-2.1631,-2.2246,-2.1135,-2.1049,-2.1877,-2.265,-2.3255,-2.3819,-2.5788,-2.6657,-2.6757,-2.8078,-2.8674,-2.8674,-2.8661,-2.9632,-3.119,0.0,0.0,0.0,0.0,0.0,-2.9847,0.0,0.0,0.0,0.0,0.0,0.0,0.0,0.0,0.0,0.0,0.0,0.0,3.6079,3.5985,3.6316,3.7614,3.7506,3.7738,3.8627,3.8707,0.0,3.8999,3.9383,3.9731,3.9982,4.025,4.0339,4.0195,4.0351,4.0385,4.0333,4.0602,4.0643,4.0507,4.041,4.0223,4.0024,4.0081,4.0101,4.0081,0.0,0.0,0.0,0.0,0.0,0.0,0.0,0.0,0.0,0.0,0.0,0.0,0.0,0.0,0.0,0.0,0.0,0.0,0.0,0.0,0.0,0.0,0.0,0.0,0.0,0.0,0.0,0.0,0.0,0.0,0.0,0.0,0.0,0.0,0.0,0.0,0.0,1.9668,1.7646,1.4453,1.2857,0.3491,0.0,0.0,0.0,0.0,0.0,0.0,-2.0851,-2.0504,-2.04,-2.0755,-2.1065,-2.1107,-2.085,-2.1171,-2.176,-2.2672,-2.3653,-2.4503,-2.5192,-2.714,-2.8014,-2.8093,-2.9639,-3.0306,-3.0282,-2.9878,-3.0278,-3.119,-3.1329,-3.1452,-3.1479,-3.0721,-3.0824,-3.0992,0.0,0.0,0.0,0.0,0.0,0.0,0.0,0.0,0.0,0.0,0.0,3.4894,3.556,3.6054,3.662,3.7173,3.7614,3.8099,3.8658,3.8707,3.8707,3.8719,3.9294,3.9599,3.9622,3.9943,4.0232,4.0473,4.0296,4.0367,4.0672,4.0752,4.0793,4.0774,4.0766,4.0404,3.9834,4.0024,4.0101,4.012,4.0356,0.0,0.0,0.0,0.0,0.0,0.0,0.0,0.0,0.0,0.0,0.0,0.0,0.0,0.0,0.0,0.0,0.0,0.0,0.0,0.0,0.0,0.0,0.0,0.0,0.0,0.0,0.0,0.0,0.0,0.0,0.0,0.0,0.0,0.0,0.0,0.0,0.0,0.0,1.4449,0.4409,0.0,0.0,0.0,0.0,-2.1858,-2.0918,-2.0352,-2.033,-2.0167,-2.034,-2.1042,-2.0938,-2.1559,-2.3097,-2.3297,-2.3772,-2.4668,-2.472,-2.4784,-2.4938,-2.7467,-2.8627,-2.8757,-3.0818,-3.1718,-3.1681,-3.1278,-3.1134,-3.123,-3.164,-3.1425,-3.0937,-3.0898,-3.0547,-2.9936,0.0,0.0,0.0,0.0,0.0,0.0,0.0,0.0,3.4479,3.5161,3.5537,3.5985,3.6545,3.6803,3.7248,3.8101,3.7998,3.8132,3.8658,3.8855,3.8961,3.8961,3.9595,4.0003,4.0175,4.0302,4.0406,4.0489,4.0524,4.0614,4.0781,4.0883,4.0964,4.1052,4.0964,4.0799,4.0568,4.0552,4.0544,4.0563,4.061,4.0636,0.0,0.0,0.0,0.0,0.0,0.0,0.0,0.0,0.0,0.0,0.0,0.0,0.0,0.0,0.0,0.0,0.0,0.0,0.0,0.0,0.0,0.0,0.0,0.0,0.0,0.0,0.0,0.0,0.0,0.0,0.0,0.0,0.0,0.0,0.0,0.0,0.0,1.2123,0.2834,0.0,-1.3378,-1.7107,-1.9638,-2.0804,-1.9995,-1.9674,-2.0294,-2.1499,-2.2626,-2.3572,-2.3768,-2.4213,-2.4743,-2.4501,-2.4471,-2.482,-2.5694,-2.6598,-2.7641,-3.0068,-3.1242,-3.1524,-3.2572,-3.2546,-3.1789,-3.1389,-3.119,-3.123,-3.1351,-3.105,-3.0558,-3.0971,-3.0697,-3.0084,0.0,0.0,0.0,0.0,0.0,0.0,0.0,0.0,3.5098,3.5515,3.5898,3.6249,3.6643,3.6981,3.7487,3.8135,3.8183,3.83,3.8676,3.8961,3.9099,3.9099,3.9754,4.0177,4.0356,4.0457,4.0489,4.0489,4.066,4.0762,4.0801,4.0988,4.1105,4.1191,4.1105,4.1077,4.1055,4.0964,4.0877,4.0793,4.0752,4.0731,4.0721,0.0,0.0,0.0,0.0,0.0,0.0,0.0,0.0,0.0,0.0,0.0,0.0,0.0,0.0,0.0,0.0,0.0,0.0,0.0,0.0,0.0,0.0,0.0,0.0,0.0,0.0,0.0,0.0,0.0,0.0,0.0,0.0,0.0,0.0,0.0,1.411,0.7642,-0.06,-0.9625,-1.9587,-1.9407,-1.9057,-2.0294,-1.9771,-1.9985,-2.1374,-2.3025,-2.4255,-2.5004,-2.5586,-2.5971,-2.6189,-2.5618,-2.5663,-2.6167,-2.6546,-2.7533,-2.908,-3.115,-3.2419,-3.2991,-3.3738,-3.3512,-3.2513,-3.1866,-3.1562,-3.1546,-3.1292,-3.0699,-3.0081,-3.0878,-3.0699,-2.9935,0.0,0.0,0.0,0.0,0.0,0.0,0.0,3.5622,3.5622,3.5622,3.5622,3.5605,3.5605,3.6563,3.7228,3.721,3.8101,3.8676,3.8707,3.8961,3.9107,3.9125,3.9754,4.0101,4.0101,4.0356,4.0489,4.0489,4.0703,4.0801,4.0801,4.1077,4.1191,4.1191,4.1191,4.1191,4.1191,4.1191,4.1052,4.0809,4.0801,4.0801,4.0793,0.0,0.0,0.0,0.0,0.0,0.0,0.0,0.0,0.0,0.0,0.0,0.0,0.0,0.0,0.0,0.0,0.0,0.0,0.0,0.0,0.0,0.0,0.0,0.0,0.0,0.0,0.0,0.0,0.0,0.0,0.0,0.0,0.0,1.7437,1.7032,1.2898,0.1791,-0.5907,-1.3033,-1.9892,-1.9661,-1.9404,-2.0362,-2.0507,-2.1384,-2.3346,-2.4494,-2.5075,-2.5134,-2.6082,-2.6845,-2.7314,-2.6886,-2.7339,-2.8795,-2.7339,-2.7446,-2.9038,-3.0722,-3.2063,-3.304,-3.4314,-3.4584,-3.4017,-3.2838,-3.2347,-3.2303,-3.1534,-3.0477,-2.9585,-3.074,-3.0435,-2.9406,0.0,0.0,0.0,0.0,0.0,0.0,0.0,3.5622,3.5622,3.5622,3.5941,3.6182,3.6182,3.6803,3.7323,3.7685,3.7946,3.83,3.8658,3.8961,3.9212,3.9438,3.988,4.0101,4.0101,4.0356,4.0489,4.0489,4.0703,4.0801,4.0801,4.1077,4.1191,4.1191,4.1191,4.1191,4.1191,4.1191,4.1151,4.108,4.0988,4.095,4.0925,0.0,0.0,0.0,0.0,0.0,0.0,0.0,0.0,0.0,0.0,0.0,0.0,0.0,0.0,0.0,0.0,0.0,0.0,0.0,0.0,0.0,0.0,0.0,0.0,0.0,0.0,0.0,0.0,0.0,0.0,0.0,0.0,1.6453,1.5134,1.2003,0.996,1.0219,-0.189,-1.3033,-1.9892,-2.0316,-2.0527,-2.1476,-2.2221,-2.3176,-2.4506,-2.5557,-2.6625,-2.7734,-2.8021,-2.8251,-2.8361,-2.9318,-2.9468,-2.8795,-2.9869,-3.1127,-3.2701,-3.3889,-3.4525,-3.4717,-3.5776,-3.556,-3.4428,-3.389,-3.3807,-3.3771,-3.1931,-3.074,-3.0166,-3.0918,-3.0699,-3.0038,0.0,0.0,0.0,0.0,0.0,0.0,0.0,3.5407,3.5622,3.5622,3.5854,3.6054,3.6054,3.6522,3.7058,3.7578,3.779,3.8132,3.8658,3.8961,3.9238,3.9599,3.9922,4.0101,4.0101,4.0356,4.0489,4.0489,4.0703,4.0801,4.0801,4.1077,4.1191,4.1191,4.1191,4.1191,4.1191,4.1191,4.1191,4.1191,4.1125,4.108,4.1077,4.0925,4.0863,4.0818,4.0729,4.0662,4.0588,4.0519,0.0,0.0,0.0,0.0,0.0,0.0,0.0,0.0,0.0,0.0,0.0,0.0,0.0,0.0,0.0,0.0,0.0,0.0,0.0,0.0,0.0,0.0,0.0,0.0,1.6774,1.4762,1.4157,1.0005,0.5175,0.0175,-0.6288,-1.2989,-1.9916,-2.0928,-2.1593,-2.2553,-2.3588,-2.4564,-2.5581,-2.6164,-2.6947,-2.7814,-2.7814,-2.8443,-2.9697,-2.9983,-3.025,-3.0702,-3.0569,-3.1813,-3.4129,-3.4275,-3.4874,0.0,-3.6611,-3.6237,-3.4975,-3.4502,-3.4426,0.0,0.0,0.0,0.0,0.0,-3.1708,-3.1242,0.0,0.0,0.0,0.0,0.0,0.0,0.0,3.5052,3.547,3.5362,3.5424,3.547,3.5362,3.5864,3.6422,3.6964,3.7488,3.8065,3.8658,3.8923,3.9205,3.9529,3.9861,4.0061,4.0101,4.0356,4.0489,4.0489,4.0703,4.0801,4.0801,4.1077,4.1191,4.1191,4.1191,4.1191,4.1191,4.1191,4.1191,4.1191,4.1191,4.1191,4.1191,4.1077,4.1,4.0964,4.0781,4.0715,4.068,4.0545,0.0,0.0,0.0,0.0,0.0,0.0,0.0,0.0,0.0,0.0,0.0,0.0,0.0,0.0,0.0,0.0,0.0,0.0,0.0,0.0,0.0,0.0,0.0,0.0,1.6411,1.4037,1.4102,0.9584,-0.0435,-1.846,-1.5156,-1.3848,-2.0031,-2.1454,-2.2403,-2.3441,-2.4409,-2.5441,-2.6465,0.0,0.0,0.0,0.0,-2.815,-3.0989,-2.9863,-3.0543,-3.3006,-3.0572,-3.1039,-3.4065,-3.3275,-3.4117,-3.618,-3.6964,-3.6706,-3.5681,-3.5009,-3.4694,-3.4539,-3.3728,-3.3363,-3.3303,-3.3303,-3.3017,0.0,0.0,0.0,0.0,0.0,0.0,0.0,0.0,3.4333,3.4592,3.4037,3.4447,3.4592,3.4053,3.4559,3.5136,3.571,3.6716,3.7703,3.8627,3.8732,3.8913,3.9186,3.9529,3.9819,4.0101,4.0356,4.0489,4.0489,4.0703,4.0801,4.0801,4.1077,4.1191,4.1191,4.1191,4.1191,4.1191,4.1191,4.1191,4.1191,4.1191,4.1191,4.1191,4.1171,4.1082,4.0988,4.0836,4.0762,4.068,4.0545,4.0489,4.0489,4.0489,4.0489,0.0,0.0,0.0,0.0,0.0,0.0,0.0,0.0,0.0,0.0,0.0,0.0,0.0,0.0,0.0,0.0,0.0,0.0,0.0,1.6879,1.5151,1.4051,1.4132,0.6705,-0.4104,-1.8874,-1.9425,-1.9164,-2.0457,-2.1454,-2.2403,-2.3441,-2.4409,-2.5441,-2.6465,-2.6533,0.0,-3.0028,-2.8955,-2.919,-3.0989,-3.1951,-3.2114,-3.144,0.0,0.0,-3.4129,-3.4752,-3.4864,-3.4693,-3.6847,-3.7344,-3.6615,-3.6191,-3.5805,-3.5267,-3.3931,-3.3389,-3.3372,-3.3372,-3.333,-3.322,0.0,0.0,0.0,0.0,0.0,0.0,0.0,3.3684,3.3987,3.3633,3.3887,3.4087,3.4087,3.4382,3.5044,3.6195,3.7082,3.7895,3.8658,3.8465,3.8548,3.9072,3.9414,3.9754,4.0101,4.0356,4.0489,4.0489,4.0665,4.0761,4.0801,4.1016,4.1149,4.1191,4.1191,4.1191,4.1191,4.1191,4.1191,4.1191,4.1191,4.1191,4.1191,4.1191,4.1151,4.1077,4.087,4.0779,4.0722,4.0554,4.0489,4.0489,4.0489,4.0489,4.0519,0.0,0.0,0.0,0.0,0.0,0.0,0.0,0.0,0.0,0.0,0.0,0.0,0.0,0.0,2.5777,0.0,0.0,1.6525,1.5004,1.3089,1.2302,1.39,0.5996,-0.3823,-1.4249,-1.7853,-1.9943,-2.1174,-2.2164,-2.3147,-2.4192,-2.5146,-2.5955,-2.6452,-2.6533,-2.7165,-2.8719,-2.8034,-2.8379,-2.9863,-3.0659,-3.1046,-3.0989,-3.1278,-3.2405,-3.4082,-3.3848,-3.4272,-3.5294,-3.6584,-3.6812,-3.6236,-3.6062,-3.5644,-3.5031,-3.4297,-3.4208,-3.4506,-3.4438,-3.4246,-3.4058,0.0,0.0,0.0,0.0,0.0,0.0,0.0,3.2986,3.3339,3.3235,3.3339,3.3531,3.3971,3.4235,3.5136,3.6886,3.7396,3.7843,3.835,3.8099,3.8223,3.8925,3.9314,3.969,4.0101,4.0321,4.0457,4.0489,4.0636,4.0721,4.0788,4.092,4.1055,4.1151,4.1191,4.1191,4.1191,4.1191,4.1191,4.1191,4.1191,4.1191,4.1191,4.1191,4.1191,4.1151,4.0902,4.0801,4.0768,4.0563,4.0489,4.0489,4.0489,4.0489,4.0534,4.0655,4.0623,0.0,0.0,0.0,0.0,0.0,0.0,0.0,0.0,3.3337,3.1117,2.9419,2.6537,2.3268,2.0068,1.6613,1.4018,1.3521,1.0932,0.987,1.2397,0.4579,-0.3809,-1.0268,-1.5401,-1.9344,-2.1756,-2.2702,-2.3745,-2.4933,-2.5734,-2.6314,-2.6465,-2.6533,-2.6645,-2.6934,-2.6645,-2.7406,-2.919,-2.8969,-2.9529,-3.0989,-2.9529,-3.0455,-3.3469,-3.2332,-3.3256,-3.5805,-3.6088,-3.6028,-3.5577,-3.547,-3.5098,-3.4576,-3.4333,-3.464,-3.5207,-3.5073,-3.4795,-3.4479,0.0,0.0,0.0,0.0,0.0,0.0,0.0,0.0,3.2477,3.1853,3.2327,3.2477,3.1894,3.2971,3.4478,3.6316,3.6539,3.6803,3.734,3.7685,3.8074,3.8444,3.8906,3.9438,4.0081,4.012,4.025,4.0489,4.0636,4.0703,4.0707,4.0916,4.1019,4.1026,4.115,4.1191,4.1191,4.1191,4.1191,4.1191,4.1191,4.1191,4.1191,4.1191,4.1191,4.1151,4.0902,4.0801,4.0768,4.0563,4.0489,4.0489,4.0489,4.0489,4.0534,4.0655,4.0692,4.0684,4.077,3.9629,3.8164,3.7108,3.5859,3.4589,0.0,3.0904,2.8547,2.6868,2.4236,2.1329,1.8127,1.6369,1.4608,1.2277,0.9318,0.7418,0.7856,-0.0264,-0.8076,-1.3101,-1.6468,-1.9344,-2.1756,-2.2103,-2.2925,-2.4862,-2.5075,-2.5594,-2.6452,-2.6533,-2.7111,-2.8507,-2.7232,-2.7853,-3.0717,-2.9482,-2.9529,-3.0989,-2.9529,-2.9683,-3.1339,-3.1674,-3.2478,-3.3712,-3.5107,-3.5667,-3.556,-3.4941,-3.4688,-3.4479,-3.3287,-3.3235,-3.3836,-3.382,-3.377,-3.3786,0.0,0.0,0.0,0.0,0.0,0.0,0.0,0.0,0.0,0.0,3.1796,3.2007,3.212,3.3655,3.5103,3.6291,3.6374,3.662,3.7173,3.7097,3.7343,3.8074,3.8481,3.9032,3.9797,4.0002,4.0232,4.0489,4.0559,4.0623,4.0703,4.0781,4.0896,4.0996,4.1055,4.1128,4.1191,4.1191,4.115,4.108,4.108,4.1049,4.0964,4.0964,4.0964,4.0955,4.085,4.0801,0.0,4.0563,4.0489,4.0489,4.0489,4.0489,4.0519,4.0574,4.0568,4.0448,3.9811,3.8827,3.7644,3.6274,3.4789,3.3377,3.2118,2.9789,2.7366,2.5679,2.2578,1.9114,1.5843,1.3791,1.1815,0.0,0.6766,0.455,0.3135,-0.2823,-0.8806,-1.3519,-1.6292,-1.8656,-2.0854,-2.2146,-2.322,-2.4036,-2.4636,-2.5158,-2.5594,-2.6164,-2.6824,-2.7472,-2.6824,-2.7111,-2.8379,-2.7749,-2.7749,-2.8366,-2.7749,-2.8265,-2.9757,-3.0827,-3.2531,-3.4684,-3.5328,-3.5622,-3.5515,-3.4316,-3.3924,-3.3871,-3.2423,-3.2084,-3.2407,-3.2879,-3.3039,-3.3093,0.0,0.0,0.0,0.0,0.0,0.0,0.0,0.0,0.0,0.0,3.1351,3.1796,3.2547,3.3956,3.5194,3.5873,3.6079,3.6333,3.6746,3.6522,3.6786,3.7685,3.8056,3.8641,3.9438,3.969,4.0003,4.0389,4.0389,4.0466,4.0649,4.068,4.0772,4.0922,4.0944,4.0996,4.1082,4.1082,4.1026,4.093,4.093,4.0896,4.0801,4.0801,4.0801,4.0793,4.0779,4.077,4.0743,4.0568,4.0489,4.0489,4.0489,4.0489,4.0504,4.0545,4.0521,4.0194,3.8925,3.8061,3.713,3.5514,3.386,3.2329,3.118,2.8449,2.5759,2.4272,2.0717,1.6926,1.3944,1.1872,0.9784,0.7429,0.5641,0.3035,-0.1341,-0.4868,-0.8715,-1.35,-1.6237,-1.8399,-2.0198,-2.1759,-2.2925,-2.3441,-2.4601,-2.5354,-2.5644,-2.6599,-2.7111,-2.7111,-2.6701,-2.6701,-2.7111,-2.6701,-2.6701,-2.7111,-2.6701,-2.7512,-2.9482,-3.1384,-3.3022,-3.4348,-3.4795,-3.4748,-3.4235,-3.2934,-3.2629,-3.2855,-3.1501,-3.1072,-3.1278,-3.1992,-3.2272,-3.2367,0.0,0.0,0.0,0.0,0.0,0.0,0.0,0.0,0.0,0.0,0.0,0.0,0.0,3.3235,3.3921,3.4576,3.5253,3.5622,3.5667,3.6139,3.6661,3.719,3.7685,3.8287,3.9099,3.9125,3.9438,4.012,4.012,4.025,4.0504,4.0649,4.0703,4.0715,4.077,4.0809,4.0809,4.0809,4.0809,4.0801,4.0801,4.0801,4.0801,4.0801,4.0801,4.0785,4.074,4.0703,4.068,4.0545,4.0489,4.0489,4.0489,4.0489,4.0534,4.0662,4.0556,4.0048,3.8446,3.7397,3.6364,3.4734,3.2825,3.1068,3.0089,2.6424,2.3034,2.2009,1.8503,1.4986,1.265,1.1294,0.9789,0.7439,0.7012,0.3753,-0.5578,-0.6936,-0.8706,-1.3363,-1.6806,-1.9206,0.0,-2.0585,-2.1451,-2.3368,-2.4915,-2.6209,-2.7184,-2.8157,-2.8746,-2.8746,-2.7285,-2.7232,-2.8746,-2.7232,-2.7232,-2.8683,-2.7232,-2.8085,-3.1046,-3.4072,-3.3892,-3.1216,-3.273,-3.2504,-3.1102,-3.0367,-3.0588,-3.133,-3.0585,-3.0329,-3.045,-3.1219,-3.1524,-3.1509,0.0,0.0,0.0,0.0,0.0,0.0,0.0,0.0,0.0,0.0,0.0,0.0,0.0,0.0,0.0,0.0,3.4783,3.5144,3.5577,3.5783,3.6097,3.6661,3.7173,3.7805,3.8612,3.8952,3.9314,3.9775,4.0002,4.0139,4.0232,4.0466,4.061,4.0703,4.071,4.0762,4.0801,4.0801,4.077,4.0731,4.0731,4.0578,4.035,4.0519,4.0491,4.0369,0.0,4.0623,4.068,4.0545,4.0489,4.0489,4.0489,4.0489,4.0454,4.0351,4.0002,3.9288,3.7546,3.627,3.4934,3.2839,3.101,2.9149,2.6843,2.4272,2.1871,2.013,1.6379,1.3149,1.2312,1.0053,0.8025,0.7262,0.4465,0.1247,-0.1962,-0.6039,-0.9932,-1.3461,-1.5501,0.0,0.0,0.0,0.0,-2.3441,-2.4578,-2.5387,-2.5758,-2.671,-2.7285,-2.7285,-2.6756,-2.6769,-2.7298,-2.6769,-2.6756,-2.7285,-2.6032,-2.6553,-2.8609,-2.9619,-3.0075,-3.0148,-3.1252,-3.1496,-3.0932,-2.9725,-2.9722,-3.0292,-2.9059,-2.8939,-2.9442,-2.9766,-2.9827,-2.995,0.0,0.0,0.0,0.0,0.0,0.0,0.0,0.0,0.0,0.0,0.0,0.0,0.0,0.0,0.0,0.0,0.0,3.4783,3.5207,3.547,3.5924,3.6643,3.7038,3.7613,3.8475,3.8781,3.9171,3.9599,3.9709,3.9903,4.0232,4.0321,4.045,4.0636,4.0636,4.066,4.0692,4.0692,4.0676,4.0636,4.0636,4.0431,4.012,4.0304,4.0195,0.0,4.012,4.0226,4.0323,4.0353,4.0356,4.0339,4.023,4.0175,4.0062,3.9444,3.8983,3.8161,3.6148,3.4705,3.3339,3.1396,2.9468,2.7354,2.4682,2.241,2.0178,1.8099,1.4483,1.1668,1.1668,0.9135,0.6811,0.5997,0.2583,-0.0623,-0.2316,-0.7453,-1.1791,-1.3639,-1.5651,-1.8028,0.0,0.0,0.0,-2.3514,-2.4944,-2.5815,-2.5815,-2.6764,-2.7578,-2.8085,-2.7043,-2.6756,-2.7352,-2.6756,-2.6533,-2.6452,-2.5656,-2.5672,-2.6506,-2.7221,-2.7695,-2.8017,-2.9163,-2.9551,-2.9346,-2.8393,-2.842,-2.9101,-2.8076,-2.8051,-2.8556,-2.8876,-2.862,-2.8247,0.0,0.0,0.0,0.0,0.0,0.0,0.0,0.0,0.0,0.0,0.0,0.0,0.0,0.0,0.0,0.0,0.0,0.0,3.4576,3.5207,3.6037,3.7058,3.7173,3.765,3.8596,3.8658,3.897,3.9552,3.9282,3.9584,4.0457,4.0213,4.0269,4.0489,4.0489,4.0489,4.0489,4.0489,4.0489,4.0489,4.0489,4.0339,4.0081,4.0101,3.988,3.9576,3.9599,3.9599,3.9645,3.9982,4.0042,3.9963,3.9584,3.9472,3.9239,3.8058,3.7489,3.6738,3.4354,3.2841,3.1671,3.0468,2.8204,2.5733,2.3572,2.0853,1.817,1.5996,1.2899,1.0611,1.0524,0.864,0.6358,0.4016,0.1514,-0.1781,-0.6462,-1.0937,-1.3737,0.0,0.0,0.0,0.0,0.0,0.0,-2.3672,0.0,-2.7262,-2.7262,-2.8157,-2.936,-3.0817,-2.7956,-2.7165,-2.8795,-2.7219,-2.6383,-2.6452,-2.5902,-2.5343,-2.4909,-2.6895,-2.6739,-2.4909,-2.6493,-2.6904,-2.6452,-2.6465,-2.6973,-2.767,-2.767,-2.767,-2.7736,-2.8556,-2.7855,-2.6589,0.0,0.0,0.0,0.0,0.0,0.0,0.0,0.0,0.0,0.0,0.0,0.0,0.0,0.0,0.0,0.0,0.0,0.0,3.4576,3.5207,3.5739,3.6011,3.6786,3.734,3.756,3.8318,3.878,3.8931,3.9301,3.958,3.9842,4.0212,4.0422,4.0489,4.0489,4.0489,4.0489,4.0489,4.0489,4.0489,4.0489,4.0175,3.9735,4.0002,3.9754,3.9264,3.951,3.9599,3.9622,3.969,3.9463,3.8983,3.8026,3.7741,3.753,3.6487,3.5841,3.501,3.3026,3.1959,3.0981,2.8884,2.7326,2.5363,2.1829,1.9899,1.7755,1.3981,1.1804,1.0351,0.9492,0.8128,0.6367,0.4018,0.0089,0.0,-0.6646,-0.9575,0.0,-1.3708,-1.6126,-1.9206,-2.3125,-2.3514,0.0,0.0,-2.6364,-2.6667,-2.6667,-2.6963,-2.7814,-2.9299,-2.6793,-2.6506,-2.8795,-2.6506,-2.537,-2.537,-2.3704,-2.29,-2.2765,-2.3313,-2.3262,-2.284,-2.4744,-2.5496,-2.5441,-2.6164,-2.6589,-2.6782,-2.6782,-2.6782,-2.685,-2.704,-2.6837,-2.6471,0.0,0.0,0.0,0.0,0.0,0.0,0.0,0.0,0.0,0.0,0.0,0.0,0.0,0.0,0.0,0.0,0.0,0.0,0.0,3.5207,3.5694,3.5941,3.6522,3.7058,3.7506,3.8083,3.8523,3.8884,3.91,3.9327,3.9599,3.9802,3.9965,4.012,4.012,4.012,4.012,4.012,4.012,0.0,0.0,3.9802,3.9389,3.9357,3.9032,3.8578,3.8564,3.8334,3.8021,3.7845,3.7678,3.7492,3.6845,3.6682,3.6385,3.4992,3.4121,3.3208,3.1662,3.0205,2.876,2.7446,2.5387,2.3032,2.0293,1.847,1.6424,1.2983,1.1381,1.0265,0.9148,0.7871,0.637,0.4018,0.0,0.0,-0.6739,-0.9465,-1.1878,-1.3708,-1.6669,-1.9907,-2.3198,-2.3891,-2.485,0.0,-2.6533,-2.6533,-2.6533,-2.6533,-2.7232,-2.8746,-2.6777,-2.6655,-2.8795,-2.6971,-2.5984,-2.5984,-2.3727,-2.2403,-2.2027,-2.2027,-2.2253,-2.2702,0.0,-2.485,-2.5734,-2.6245,-2.6533,-2.6452,-2.6025,-2.6094,-2.6465,-2.6013,-2.5933,-2.6038,0.0,0.0,0.0,0.0,0.0,0.0,0.0,0.0,0.0,0.0,0.0,0.0,0.0,0.0,0.0,0.0,0.0,0.0,0.0,0.0,3.5827,3.6249,3.6333,3.6825,3.779,3.7859,3.8273,3.9063,3.8844,3.9008,3.9529,3.9289,3.9314,3.9599,3.9599,3.9599,3.9599,3.9599,3.9599,3.9599,3.9599,3.9364,3.8952,0.0,3.8136,3.7755,3.736,3.6606,3.5813,3.5511,3.5625,3.5838,3.5668,3.5548,3.5121,3.3395,3.2206,3.1181,3.0064,2.7983,2.6058,2.5758,2.3054,2.0101,1.8873,1.7009,1.4851,1.2571,1.1209,1.0009,0.8894,0.7786,0.6189,0.357,-0.0623,-0.4467,-0.7088,-1.0154,-1.2644,-1.3805,-1.7649,-2.1054,-2.3114,-2.4181,-2.5288,-2.6383,-2.6533,-2.6533,-2.6533,-2.6533,-2.7043,-2.8238,-2.7339,-2.7193,-2.8082,-2.7328,-2.6947,-2.6736,-2.4531,-2.3073,-2.2178,-2.2178,-2.2702,-2.3526,0.0,0.0,-2.6314,-2.6452,-2.6383,-2.6245,-2.5511,-2.5664,-2.6233,-2.5441,-2.531,-2.544,0.0,0.0,0.0,0.0,0.0,0.0,0.0,0.0,0.0,0.0,2.8939,2.9317,0.0,0.0,0.0,0.0,0.0,0.0,0.0,0.0,0.0,3.5739,3.6182,3.6684,3.7323,3.7685,3.8198,3.8762,3.8933,3.9072,3.9186,3.9414,3.9534,3.9599,3.9599,3.9599,3.9599,3.9599,3.9599,3.9599,3.9599,3.9156,3.8504,3.8444,0.0,0.0,3.721,3.6067,3.4688,3.5217,3.5048,3.4471,3.3521,3.2707,3.194,3.1099,2.96,2.8066,2.7235,2.609,2.4649,2.3032,2.1515,1.9868,1.7923,1.5845,1.3646,1.1375,1.0009,0.8807,0.7602,0.7269,0.5644,0.1336,-0.1781,-0.4905,-0.8576,-1.0849,-1.2662,-1.3871,-1.7098,-1.9993,-2.1976,-2.3165,0.0,0.0,0.0,-2.6533,-2.6533,-2.6533,-2.622,-2.5648,-2.7433,-2.7116,-2.4447,-2.5051,-2.4968,-2.416,-2.3711,-2.3441,-2.322,-2.322,-2.3368,-2.3526,0.0,0.0,-2.53,-2.6164,-2.6025,-2.53,-2.5955,-2.5804,-2.537,-2.6025,-2.5505,-2.4534,0.0,0.0,0.0,0.0,0.0,0.0,0.0,2.6552,2.7604,2.8812,2.938,3.0011,3.0837,3.1278,3.1951,0.0,0.0,0.0,0.0,0.0,0.0,0.0,3.5871,3.6207,3.6764,3.7285,3.7773,3.83,0.0,3.8894,3.8913,3.9064,3.9127,3.9127,3.9127,3.9127,3.9127,3.9127,3.9127,3.9127,3.9127,3.8715,3.8122,0.0,0.0,0.0,3.5447,3.4523,3.347,3.384,3.3149,3.2175,3.1967,3.0995,2.9772,2.9025,2.7512,2.5865,2.4929,2.3591,2.2158,2.0639,1.9118,1.7671,1.6619,1.4726,1.2644,1.095,0.9666,0.8548,0.7347,0.6091,0.4109,0.0534,-0.4096,-0.7779,-0.9288,-1.1133,-1.2862,-1.4615,-1.7235,-1.9722,-2.1717,-2.2892,-2.4108,0.0,0.0,-2.5943,-2.6452,-2.6533,-2.6314,-2.5804,-2.7761,-2.8005,-2.6299,-2.6755,-2.646,-2.5485,-2.518,-2.4541,-2.3514,-2.4036,-2.4264,-2.4337,-2.4791,0.0,-2.5804,-2.6314,-2.5873,-2.5075,-2.5511,-2.5441,-2.4969,-2.4695,-2.4324,-2.3855,0.0,0.0,0.0,0.0,0.0,0.0,0.0,2.7015,2.7986,2.8876,2.9766,3.0584,3.1409,3.1482,3.2048,0.0,0.0,0.0,0.0,0.0,0.0,0.0,0.0,0.0,0.0,0.0,0.0,3.7755,3.8168,0.0,0.0,0.0,0.0,0.0,3.8368,3.8368,3.8368,3.8368,3.8368,0.0,0.0,3.805,0.0,0.0,0.0,0.0,0.0,3.3198,3.2586,3.2586,3.1332,2.9803,3.0335,2.9393,2.7934,2.7117,2.5591,2.4008,2.2882,2.1398,1.9809,1.8426,1.6692,1.5267,1.5018,1.325,1.13,1.0534,0.9419,0.8208,0.7269,0.4736,0.2049,-0.0356,-0.6151,-1.0231,-0.9809,-1.1397,-1.3393,-1.5359,-1.754,0.0,-2.1466,-2.2616,0.0,0.0,0.0,0.0,-2.6465,-2.6533,-2.6533,-2.6533,-2.7696,-2.8201,-2.798,-2.8201,-2.7824,-2.6788,-2.6599,-2.5652,-2.4181,-2.4992,-2.53,-2.53,-2.53,0.0,0.0,-2.6533,-2.5804,-2.4707,-2.5146,-2.5004,-2.4425,-2.3511,-2.3121,-2.3011,0.0,0.0,0.0,0.0,0.0,0.0,0.0,2.6582,2.7986,2.8876,2.9766,3.0584,3.1409,3.1482,3.2048,0.0,0.0,0.0,0.0,0.0,0.0,0.0,0.0,0.0,0.0,0.0,0.0,3.7248,3.7323,0.0,0.0,0.0,0.0,0.0,0.0,3.734,3.734,3.734,0.0,0.0,0.0,0.0,0.0,0.0,0.0,0.0,0.0,3.3198,3.2586,3.2586,3.0425,2.7759,2.7824,2.7262,2.6294,2.535,2.3682,2.1996,2.0948,1.9915,1.8621,1.6503,1.5079,1.3904,1.2826,1.0864,0.9244,0.9542,0.8316,0.7269,0.7125,0.3396,-0.0445,-0.2853,-0.6861,-0.9809,-1.0453,-1.2468,-1.4323,-1.5516,0.0,0.0,-2.0439,-2.1542,0.0,0.0,0.0,0.0,0.0,-2.6533,-2.6533,-2.6533,-2.6645,-2.6264,-2.5392,-2.6264,-2.6195,-2.5252,-2.6082,-2.6383,-2.6233,-2.6314,-2.6383,-2.6383,0.0,0.0,0.0,-2.6533,-2.5346,-2.3818,-2.5652,-2.4917,-2.2984,-2.3839,-2.3071,-2.1718,0.0,0.0,0.0,0.0,0.0,0.0,2.5873,2.7378,2.862,2.8939,3.0208,3.1161,3.1467,3.191,3.2571,3.3547,0.0,0.0,0.0,0.0,0.0,0.0,0.0,0.0,0.0,0.0,3.6498,3.6724,3.7038,0.0,0.0,0.0,0.0,0.0,0.0,3.719,3.719,3.719,0.0,0.0,0.0,0.0,0.0,0.0,0.0,0.0,0.0,0.0,3.1203,3.1203,2.924,2.6688,2.6095,2.4873,2.3498,2.2487,2.1187,1.9788,1.808,1.7301,1.6503,1.426,1.3328,1.265,1.1552,1.0009,0.8986,0.9371,0.8232,0.618,0.3395,0.1248,-0.16,-0.641,-0.9275,-1.1039,-1.1563,-1.3581,-1.5426,-1.6519,-1.806,0.0,0.0,0.0,0.0,0.0,0.0,0.0,0.0,-2.5861,-2.6533,-2.6533,-2.6533,-2.6314,-2.5886,-2.6314,-2.6314,-2.5873,-2.6314,-2.6533,-2.6533,-2.6533,-2.6533,-2.6533,0.0,0.0,0.0,-2.6533,-2.5652,-2.4529,-2.5573,-2.4961,-2.3572,-2.3427,-2.2535,-2.1484,0.0,0.0,0.0,0.0,0.0,2.6045,2.6769,2.8298,2.938,2.938,3.0644,3.1582,3.1796,3.2272,3.2949,3.3836,3.3887,0.0,0.0,0.0,0.0,0.0,0.0,0.0,0.0,0.0,3.6182,3.6182,3.6522,3.6724,0.0,0.0,3.6724,3.6724,0.0,0.0,0.0,0.0,0.0,0.0,0.0,0.0,0.0,0.0,0.0,0.0,0.0,0.0,0.0,0.0,0.0,2.5677,2.4637,2.2878,2.0951,2.0227,1.9552,1.855,1.6273,1.544,1.4761,1.2832,1.1809,1.1037,1.0265,0.9235,0.8472,0.8761,0.7893,0.5191,-0.098,-0.2139,-0.3737,-0.8652,-1.0609,-1.1635,-1.2248,-1.4511,-1.6437,-1.7172,0.0,-1.9766,0.0,0.0,0.0,0.0,0.0,0.0,0.0,-2.4684,-2.5721,-2.6025,-2.6314,-2.6533,-2.6533,-2.6533,-2.6533,-2.6533,-2.6533,-2.6533,-2.6533,-2.6533,-2.6533,-2.6533,0.0,0.0,0.0,-2.6533,-2.5787,-2.4813,-2.54,-2.4853,-2.3605,-2.2662,-2.1832,-2.1192,0.0,0.0,0.0,0.0,0.0,0.0,2.767,2.9192,3.0269,3.0269,3.097,3.1796,3.2492,3.2602,3.3145,3.4479,3.4576,0.0,0.0,0.0,0.0,0.0,0.0,0.0,0.0,0.0,3.5622,3.5622,3.5622,3.5622,3.5622,3.5622,3.5622,3.5622,0.0,0.0,0.0,0.0,0.0,0.0,0.0,0.0,0.0,0.0,0.0,0.0,0.0,0.0,0.0,0.0,0.0,0.0,0.0,2.1363,1.9036,1.9036,1.9036,1.855,1.6273,1.492,1.373,1.2571,1.0611,0.889,0.889,0.7948,0.7088,0.7101,0.7121,0.4218,-0.5307,-0.7025,-0.7539,-0.9205,-1.0125,-1.1042,-1.2157,-1.517,-1.7261,0.0,0.0,-2.0566,0.0,0.0,0.0,0.0,0.0,0.0,0.0,-2.2999,-2.3963,-2.5004,-2.5955,-2.6533,-2.6533,-2.6533,-2.6533,-2.6533,-2.6533,-2.6533,-2.6533,-2.6533,-2.6533,0.0,0.0,0.0,0.0,-2.6533,-2.5566,-2.4312,-2.5252,-2.432,-2.2456,-2.1661,-2.1082,-2.0602,0.0,0.0,0.0,0.0,0.0,0.0,0.0,2.9192,3.048,3.0896,3.1705,3.2532,3.3182,3.3684,3.4137,3.4576,3.4576,0.0,0.0,0.0,0.0,0.0,0.0,0.0,0.0,0.0,3.5622,3.5622,3.5622,3.5622,3.5622,3.5622,3.5622,3.5622,3.5622,0.0,0.0,0.0,0.0,0.0,0.0,0.0,0.0,0.0,0.0,0.0,0.0,0.0,0.0,0.0,0.0,0.0,0.0,0.0,0.0,1.7163,1.616,1.5223,1.3749,1.2565,1.137,1.0265,0.9602,0.9012,0.7955,0.7351,0.7101,0.7121,0.448,0.0802,-0.3844,-0.6887,-0.9108,-1.012,-1.1133,-1.2401,-1.4343,0.0,0.0,-1.839,-1.9756,-2.0566,0.0,0.0,0.0,0.0,0.0,0.0,0.0,-2.1962,-2.2925,-2.3963,-2.4253,-2.4469,-2.4469,-2.4469,-2.4469,-2.4469,-2.5146,-2.5441,-2.5511,-2.6164,0.0,0.0,0.0,0.0,0.0,-2.5741,-2.5627,-2.511,-2.4653,-2.409,-2.3478,-2.2823,-2.1745,-2.0782,0.0,0.0,0.0,0.0,0.0,0.0,0.0,3.0104,3.1304,3.1717,3.247,3.3235,3.3887,3.4333,3.4688,3.4941,3.4988,0.0,0.0,0.0,0.0,0.0,0.0,0.0,3.5622,3.5622,3.5622,3.5622,3.5622,3.5622,3.5622,3.5622,3.5622,3.5622,3.5622,3.5622,0.0,0.0,0.0,0.0,0.0,0.0,3.216,0.0,0.0,0.0,0.0,0.0,0.0,0.0,0.0,0.0,0.0,0.0,0.0,0.0,1.4246,1.2638,1.2401,1.1123,0.984,0.9253,0.8836,0.8136,0.6171,0.6465,0.6567,0.4752,0.0625,-0.3126,-0.4645,-0.7408,-0.9712,-1.0448,-1.1884,-1.3581,-1.5448,0.0,0.0,-1.9441,0.0,0.0,0.0,0.0,0.0,0.0,0.0,0.0,0.0,0.0,-2.1745,-2.2414,-2.3147,-2.3514,-2.3514,-2.3514,-2.3514,-2.3514,-2.412,-2.4636,-2.5004,-2.5288,0.0,0.0,0.0,0.0,0.0,-2.5535,-2.536,-2.4921,-2.4255,-2.3866,-2.3566,-2.2505,-2.1678,-2.1175,0.0,0.0,0.0,0.0,0.0,0.0,0.0,3.1549,3.2547,3.2641,3.3182,3.3887,3.4576,3.4688,3.4941,3.5577,0.0,0.0,0.0,0.0,0.0,0.0,0.0,0.0,3.5515,3.5515,3.5515,3.5515,3.5515,3.556,3.5622,3.5622,3.5622,3.5622,3.5622,3.5577,0.0,0.0,0.0,0.0,0.0,0.0,0.0,0.0,0.0,0.0,0.0,0.0,0.0,0.0,0.0,0.0,0.0,0.0,0.0,0.0,0.0,0.0,0.0,1.0438,0.8899,0.9196,0.8051,0.6358,0.4289,0.5295,0.0,0.0445,-0.403,-0.7125,-0.7269,-0.8496,-0.9795,-1.0616,-1.2638,-1.449,0.0,-1.7738,0.0,0.0,-2.0557,0.0,0.0,0.0,0.0,0.0,0.0,0.0,0.0,0.0,-2.0566,-2.0566,-2.2339,-2.3294,-2.3294,-2.3294,-2.3294,-2.3294,-2.3368,-2.3891,-2.4779,-2.3963,0.0,0.0,0.0,0.0,0.0,-2.5498,-2.4895,-2.4004,-2.3954,-2.3602,-2.2884,-2.1353,-2.1227,-2.1815,0.0,0.0,0.0,0.0,0.0,0.0,0.0,0.0,0.0,0.0,3.3495,3.4037,3.527,3.5362,3.5424,0.0,0.0,0.0,0.0,0.0,0.0,0.0,0.0,0.0,3.4847,3.4847,3.4847,3.4847,3.4847,3.5098,3.5622,3.5622,3.5622,3.5622,3.5622,3.5316,0.0,0.0,0.0,0.0,0.0,0.0,0.0,0.0,0.0,0.0,3.0329,2.9192,0.0,0.0,0.0,0.0,0.0,0.0,0.0,0.0,1.1289,0.9323,0.9666,0.0,0.7584,0.7609,0.5991,0.4741,0.0,0.3864,0.0359,-0.4489,-0.6296,-0.746,-0.8677,-0.9694,-1.0707,-1.1724,-1.3833,-1.5681,-1.6764,0.0,0.0,-1.9441,0.0,0.0,0.0,0.0,0.0,0.0,0.0,0.0,0.0,0.0,-2.0566,-2.0566,-2.1011,-2.1308,-2.1308,-2.1308,-2.1308,-2.1308,-2.2038,-2.2478,-2.2776,-2.4036,0.0,0.0,0.0,0.0,-2.3845,-2.4199,-2.423,-2.3954,-2.3514,-2.319,-2.3065,-2.2689,-2.2249,-2.1939,0.0,0.0,0.0,0.0,0.0,0.0,0.0,0.0,0.0,0.0,0.0,0.0,0.0,0.0,0.0,0.0,0.0,0.0,0.0,0.0,0.0,0.0,0.0,3.5316,3.4624,3.4576,3.4431,3.4137,3.4137,3.435,3.4704,3.5005,3.5144,3.5144,3.547,3.5207,0.0,0.0,0.0,0.0,3.2586,0.0,0.0,0.0,0.0,0.0,2.9157,2.7879,0.0,2.4209,2.2498,2.0678,0.0,0.0,0.0,0.0,1.0269,0.8982,0.9087,0.8201,0.7058,0.7084,0.5366,0.3035,0.1073,-0.1434,-0.3954,-0.657,-0.7723,-0.8412,-0.9095,-1.0366,-1.1718,-1.2899,-1.5004,0.0,0.0,0.0,-2.0401,-1.9766,0.0,0.0,0.0,0.0,0.0,0.0,0.0,0.0,0.0,0.0,-2.0566,-2.0566,-2.0566,-2.0566,-2.0566,-2.0566,-2.0789,-2.1231,-2.1735,-2.2147,-2.2451,-2.3478,0.0,0.0,0.0,0.0,-2.3664,-2.3916,-2.3841,-2.3577,-2.3263,-2.3078,-2.3078,-2.2702,-2.2506,-2.2445,0.0,0.0,0.0,0.0,0.0,0.0,0.0,0.0,0.0,0.0,0.0,0.0,0.0,0.0,0.0,0.0,0.0,0.0,0.0,0.0,0.0,0.0,3.5515,3.5144,3.4479,3.4431,3.4137,3.3443,3.3443,3.3495,3.3582,3.4186,3.4431,3.4479,3.5052,3.5005,0.0,0.0,3.3633,0.0,3.2492,0.0,0.0,0.0,0.0,0.0,0.0,0.0,0.0,2.2702,2.1151,1.9615,1.6547,0.0,0.0,0.0,0.0,0.0,0.902,0.7944,0.6792,0.7009,0.5646,0.2141,-0.5394,-0.7135,-0.7128,-0.7446,-0.8584,-0.9454,-0.9414,-1.1117,-1.2905,-1.4072,0.0,0.0,-2.0323,-2.0566,-2.0566,0.0,0.0,0.0,0.0,0.0,0.0,0.0,0.0,0.0,0.0,0.0,0.0,-2.0566,-2.0343,-2.0304,-2.0469,-2.0527,-2.1048,-2.1858,-2.1858,-2.2198,-2.2756,-2.2756,-2.296,0.0,0.0,0.0,-2.3866,-2.3866,-2.3577,-2.3078,-2.3078,-2.3078,-2.3005,-2.231,-2.2506,-2.3005,0.0,0.0,0.0,0.0,0.0,0.0,0.0,0.0,0.0,0.0,0.0,0.0,0.0,0.0,0.0,0.0,0.0,0.0,0.0,0.0,0.0,3.5577,3.5052,3.4431,3.3786,3.3735,3.3443,3.2734,3.2734,3.3039,3.3582,3.3684,3.3735,3.3735,3.3836,3.3836,3.3735,3.3145,3.2788,3.2547,3.191,0.0,0.0,0.0,0.0,0.0,0.0,0.0,0.0,2.2702,2.0651,1.8637,1.6304,0.0,0.0,0.0,0.0,0.0,0.7436,0.6346,0.5453,0.6758,0.6857,0.4125,-0.5034,-0.7135,-0.7481,-0.8861,-0.9292,-0.9975,-1.1477,-1.2814,-1.4072,-1.5267,0.0,-1.9195,0.0,0.0,0.0,0.0,0.0,0.0,0.0,0.0,0.0,0.0,0.0,0.0,0.0,0.0,0.0,-2.0566,-1.9331,-1.9077,-2.001,-2.0381,-2.0821,-2.1303,-2.1303,-2.157,-2.2101,-2.2844,-2.2979,0.0,0.0,-2.3667,-2.3263,-2.3263,-2.3153,-2.3078,-2.3078,-2.3078,-2.3078,-2.2944,-2.3005,-2.3065,0.0,0.0,0.0,0.0,0.0,0.0,0.0,0.0,0.0,0.0,0.0,0.0,0.0,0.0,0.0,0.0,0.0,0.0,0.0,0.0,3.4186,3.4512,3.4235,3.3937,3.3582,3.3937,3.3633,3.2586,3.2586,3.2734,3.3039,3.3039,3.3235,3.3582,3.3582,3.3391,3.3039,3.2749,3.2382,3.1951,0.0,0.0,0.0,0.0,0.0,0.0,0.0,0.0,0.0,0.0,1.8955,1.6758,1.449,0.0,0.0,0.0,0.0,0.0,0.5544,0.5644,0.6204,0.6962,0.6129,0.3398,-0.3578,-0.6201,-0.746,-0.892,-0.9694,-1.0549,-1.1986,-1.3749,-1.5501,-1.7236,0.0,-2.0001,0.0,0.0,0.0,0.0,0.0,0.0,0.0,0.0,0.0,0.0,0.0,0.0,0.0,0.0,0.0,0.0,-1.8244,-1.8348,-1.8807,-1.9541,-2.0276,-2.0988,-2.0988,-2.096,-2.0986,-2.2336,-2.245,-2.1574,0.0,-2.3376,-2.3078,-2.3078,-2.3078,-2.3078,-2.3078,-2.3078,-2.3078,-2.3078,-2.3078,-2.3078,0.0,0.0,0.0,0.0,0.0,0.0,0.0,0.0,0.0,0.0,0.0,0.0,0.0,0.0,0.0,0.0,0.0,0.0,0.0,0.0,3.3582,3.3582,3.3582,3.3582,3.3582,3.4087,3.3786,3.2586,3.2586,3.2586,3.2586,3.2586,3.2788,3.313,3.313,3.2933,3.2602,3.2437,3.212,3.1739,0.0,0.0,0.0,0.0,0.0,0.0,0.0,0.0,0.0,0.0,0.0,0.0,0.0,0.0,0.0,0.7757,0.7074,0.6726,0.4921,0.5752,0.6588,0.4322,0.2418,0.0267,-0.2854,-0.5725,-0.797,-0.9069,-1.0183,-1.1466,-1.2826,-1.492,0.0,-1.9036,-2.0226,0.0,0.0,0.0,0.0,0.0,0.0,0.0,0.0,0.0,0.0,0.0,0.0,0.0,0.0,0.0,0.0,0.0,-1.6918,-1.7186,-1.7409,-1.8281,-1.929,-2.0597,-2.0597,-2.0482,-2.0285,-2.1621,-2.1737,-2.0974,-2.2249,-2.2944,-2.3078,-2.3078,-2.3078,-2.3078,-2.3078,-2.3078,-2.3078,-2.3078,-2.3078,-2.3078,0.0,0.0,0.0,0.0,0.0,0.0,0.0,0.0,0.0,0.0,0.0,0.0,0.0,0.0,0.0,0.0,0.0,0.0,0.0,0.0,3.3582,3.3582,3.3582,3.3582,3.3582,3.3633,3.3339,3.2586,3.2586,3.2586,3.2586,3.2586,3.2272,3.1625,3.1625,3.2007,3.2547,3.1853,3.1951,3.2437,3.1796,0.0,0.0,0.0,0.0,0.0,0.0,0.0,0.0,0.0,0.0,0.0,0.0,0.0,1.0183,0.7775,0.7091,0.7104,0.6853,0.6952,0.4945,-0.3859,-0.6218,-0.5847,-0.4022,-0.6596,-0.9542,-1.0361,-1.1381,-1.2832,-1.5025,-1.7245,-1.9116,-2.0323,-2.1298,0.0,0.0,0.0,0.0,0.0,0.0,0.0,0.0,0.0,0.0,0.0,0.0,0.0,0.0,0.0,0.0,0.0,0.0,-1.4934,-1.5953,-1.6546,-1.7877,-1.9954,-1.9954,-2.0186,-2.0582,-2.0711,-2.1146,-2.1815,-2.1939,-2.2384,-2.3078,-2.3078,-2.3078,-2.3078,-2.3078,-2.3078,-2.3078,-2.3078,-2.3078,-2.3078,0.0,0.0,0.0,0.0,0.0,0.0,0.0,0.0,0.0,0.0,0.0,0.0,0.0,0.0,0.0,0.0,0.0,0.0,0.0,3.3735,3.3391,3.3002,3.3391,3.3391,3.2986,3.4202,3.4103,3.2586,3.3039,3.3235,3.3182,3.2803,3.2437,3.216,3.1682,3.164,3.191,3.164,3.164,3.1838,3.1073,3.0269,0.0,0.0,0.0,0.0,0.0,0.0,0.0,0.0,1.6708,1.43,1.1958,1.0935,1.0183,0.7779,0.6088,0.5285,0.6671,0.4949,0.1076,-0.5492,-0.8209,-0.8641,-0.6269,-0.848,-1.0871,-1.0626,-1.1466,-1.3159,-1.6175,-1.8426,-2.0236,-2.1288,0.0,0.0,0.0,0.0,0.0,0.0,0.0,0.0,0.0,0.0,0.0,0.0,0.0,0.0,0.0,0.0,0.0,0.0,0.0,-1.4363,-1.5433,-1.6211,-1.7342,-1.8702,-1.8702,-1.8816,-1.8977,-1.9562,-1.9944,-2.0333,-2.1428,-2.2063,-2.2384,-2.2884,-2.3078,-2.3078,-2.3078,-2.3078,-2.3078,-2.3078,-2.3078,-2.3078,0.0,0.0,0.0,0.0,0.0,0.0,0.0,0.0,0.0,0.0,0.0,0.0,0.0,0.0,0.0,0.0,0.0,0.0,3.3684,3.3391,3.2986,3.2272,3.313,3.3182,3.2272,3.4235,3.4399,3.2586,3.3479,3.3937,3.3887,3.3443,3.2986,3.2602,3.2064,3.1739,3.1482,3.1482,3.1601,3.178,3.1204,3.0625,0.0,0.0,0.0,0.0,0.0,0.0,0.0,0.0,1.6553,1.4345,1.1494,1.0611,1.0183,0.7779,0.5633,0.4109,0.4667,0.2512,-0.0987,-0.5029,-0.8347,-1.005,-0.814,-0.9887,-1.1894,-1.1724,-1.314,-1.5223,-1.7768,-1.975,0.0,0.0,0.0,0.0,0.0,0.0,0.0,0.0,0.0,0.0,0.0,0.0,0.0,0.0,0.0,0.0,0.0,0.0,0.0,0.0,0.0,-1.4386,-1.4736,-1.6,-1.6922,-1.7579,-1.7862,-1.8008,-1.8008,-1.8586,-1.9044,-1.9365,-2.0846,-2.1628,-2.1939,-2.2763,-2.3078,-2.3138,-2.3365,-2.3305,-2.3138,-2.3365,-2.3305,-2.3078,0.0,0.0,0.0,0.0,0.0,0.0,0.0,0.0,0.0,0.0,0.0,0.0,0.0,0.0,0.0,0.0,0.0,0.0,3.3633,3.2986,3.2272,3.1524,3.2879,3.2917,3.1524,3.3515,3.3937,3.2641,3.3937,3.4576,3.4624,3.4576,3.3887,3.2641,3.2602,3.2176,3.1539,3.1497,3.1928,3.2527,3.2527,3.2323,3.2012,0.0,0.0,0.0,0.0,0.0,0.0,0.0,1.7291,1.5682,1.1791,1.0611,1.0183,0.7779,0.5991,0.4103,0.0893,0.0,-0.0626,-0.3034,-0.7115,-1.0323,-0.9157,-1.0697,-1.2656,-1.382,-1.6708,-1.9335,-2.0207,-2.1303,0.0,0.0,0.0,0.0,0.0,0.0,0.0,0.0,0.0,0.0,0.0,0.0,0.0,0.0,0.0,0.0,0.0,0.0,0.0,0.0,0.0,0.0,-1.3745,-1.5649,-1.6636,-1.6636,-1.7579,-1.8008,-1.8008,-1.8008,-1.8462,-1.9365,-2.0204,-2.1101,-2.1939,-2.2763,-2.3078,-2.3198,-2.4002,-2.3826,-2.3198,-2.4002,-2.3767,-2.3078,0.0,0.0,0.0,0.0,0.0,0.0,0.0,0.0,0.0,0.0,0.0,0.0,0.0,0.0,0.0,0.0,0.0,0.0,3.3582,3.2986,3.2477,3.2272,3.268,3.268,3.2272,3.2351,3.2955,3.3987,3.4431,3.483,3.5299,3.483,3.4382,3.4003,3.3457,3.31,3.292,3.293,3.3021,3.3139,3.254,3.2251,3.2055,0.0,0.0,0.0,0.0,0.0,0.0,0.0,0.0,0.0,1.3089,1.1489,1.0183,0.7779,0.6811,0.618,0.5211,0.1342,-0.2685,-0.3393,-0.7115,-1.0748,-1.1171,-1.3043,-1.5011,-1.6085,-1.8822,-2.0928,-2.0497,-2.2424,0.0,0.0,0.0,0.0,0.0,0.0,0.0,0.0,0.0,0.0,0.0,0.0,0.0,0.0,0.0,0.0,0.0,0.0,0.0,0.0,0.0,0.0,-1.572,-1.628,-1.6922,-1.7579,-1.7872,-1.8008,-1.8008,-1.8008,-1.8134,-1.8462,-1.9955,-2.0719,-2.1101,-2.2506,-2.3078,-2.3138,-2.3365,-2.3305,-2.3138,-2.3365,-2.3305,-2.3078,0.0,0.0,0.0,0.0,0.0,0.0,0.0,0.0,0.0,0.0,3.3987,3.4783,0.0,0.0,0.0,0.0,0.0,0.0,0.0,3.268,3.2176,3.2176,3.2437,3.2586,3.2586,3.216,3.2804,3.4659,3.4333,3.4853,3.6079,3.5659,3.5476,3.5449,3.4989,3.4494,3.3955,3.3994,3.394,3.3873,3.3343,3.3013,3.2801,0.0,0.0,0.0,0.0,0.0,0.0,0.0,0.0,0.0,1.4542,1.2638,1.105,0.8568,0.7514,0.7078,0.7115,0.3221,-0.116,-0.3123,-0.7115,-1.1332,-1.4144,-1.6223,-1.7831,-1.8928,-2.0918,-2.2583,-2.2698,-2.4292,0.0,0.0,0.0,0.0,0.0,0.0,0.0,0.0,0.0,0.0,0.0,0.0,0.0,0.0,0.0,0.0,0.0,0.0,0.0,0.0,0.0,0.0,-1.6636,-1.6991,-1.7432,-1.8008,-1.8008,-1.8008,-1.8008,-1.8008,-1.8202,-1.8596,-2.0333,-2.1302,-2.1667,-2.2689,-2.3078,-2.3138,-2.3424,-2.3365,-2.3125,-2.3484,-2.3365,-2.3078,0.0,0.0,0.0,0.0,0.0,0.0,0.0,0.0,0.0,0.0,3.4202,3.4911,0.0,0.0,0.0,0.0,0.0,0.0,0.0,0.0,3.1524,3.1582,3.2216,3.2586,3.2586,3.2664,3.3395,3.4812,3.4101,3.4874,3.6874,3.6874,3.6894,3.6902,3.6918,3.6152,3.4956,3.4903,3.4833,3.4688,3.4625,3.4425,3.4027,3.3101,0.0,0.0,0.0,0.0,0.0,0.0,0.0,0.0,1.6166,1.397,1.2511,0.9887,0.8189,0.7234,0.7088,0.5369,0.2407,-0.2407,-0.7281,-1.2322,-1.7738,-1.9839,-2.0948,-2.1891,-2.3069,-2.435,-2.6002,-2.6413,0.0,0.0,0.0,0.0,0.0,0.0,0.0,0.0,0.0,0.0,0.0,0.0,0.0,0.0,0.0,0.0,0.0,0.0,0.0,0.0,-1.7079,-1.7579,-1.6706,-1.7569,-1.8008,0.0,-1.8008,-1.8008,-1.8008,-1.8008,-1.8529,-1.9497,-2.1101,-2.2249,-2.3078,-2.3078,-2.3078,-2.3185,-2.3884,-2.3767,-2.3198,-2.3943,-2.3708,-2.3138,0.0,0.0,0.0,0.0,0.0,0.0,0.0,0.0,0.0,0.0,0.0,0.0,0.0,0.0,0.0,0.0,0.0,0.0,0.0,0.0,3.1739,3.2327,3.2547,3.2586,3.2586,3.3153,3.4121,3.5463,3.5316,3.6108,3.7669,3.7669,3.7641,3.7648,3.7599,3.7396,3.7107,3.6468,3.6152,3.6107,3.5507,3.5225,3.5067,3.4109,3.3101,0.0,0.0,0.0,0.0,0.0,0.0,0.0,1.7612,1.5425,1.3739,1.1008,0.9405,0.8277,0.7401,0.5351,0.2407,-0.2407,-0.8422,-1.4372,-1.8939,-2.1439,-2.2892,-2.3114,-2.5109,-2.6667,-2.6357,0.0,0.0,0.0,0.0,0.0,0.0,0.0,0.0,0.0,0.0,0.0,0.0,0.0,0.0,0.0,0.0,0.0,0.0,0.0,0.0,-1.6289,-1.7432,-1.7862,-1.7716,-1.7862,-1.8008,0.0,-1.8008,-1.8008,-1.8008,-1.8008,-1.8854,-2.0333,-2.0719,-2.1741,-2.3078,-2.3078,-2.3078,-2.3138,-2.3305,-2.3245,-2.3138,-2.3305,-2.3245,-2.3198,0.0,0.0,0.0,0.0,0.0,0.0,0.0,0.0,0.0,0.0,0.0,0.0,0.0,0.0,0.0,0.0,0.0,0.0,0.0,0.0,3.1697,3.2064,3.2064,3.2425,3.3106,3.3504,3.4705,3.6801,3.6801,3.737,3.843,3.843,3.8616,3.8954,3.8941,3.8714,3.8274,3.7899,3.7483,3.71,3.6352,3.6006,3.5864,3.4499,3.3671,3.3003,3.0935,0.0,0.0,0.0,0.0,0.0,0.0,0.0,1.5282,1.2912,1.0687,0.8623,0.7464,0.5427,0.1868,-0.5144,-1.0424,-1.4996,-1.931,-2.1966,-2.3734,-2.4767,-2.6433,-2.788,0.0,0.0,0.0,0.0,0.0,0.0,0.0,0.0,0.0,0.0,0.0,0.0,0.0,0.0,0.0,0.0,0.0,0.0,0.0,-1.7285,-1.7285,-1.7285,-1.7725,-1.8008,-1.8008,-1.8008,-1.8008,-1.8008,-1.8008,-1.8008,-1.8008,-1.8462,-1.9365,-2.0655,-2.1037,-2.1928,-2.3078,-2.3078,-2.3078,-2.3078,-2.3078,-2.3078,-2.3078,-2.3078,-2.3078,-2.3185,0.0,0.0,0.0,0.0,0.0,0.0,0.0,0.0,0.0,0.0,0.0,0.0,0.0,0.0,0.0,0.0,0.0,0.0,0.0,0.0,0.0,3.1482,3.1482,3.2213,3.3619,3.3911,3.5345,3.7956,3.8245,3.8638,3.9174,3.9174,3.9512,4.007,4.007,3.9731,3.9086,3.8962,3.8525,3.7921,3.6964,3.6615,3.6415,3.4883,3.4177,3.3794,3.2126,3.0861,2.9821,2.8638,0.0,0.0,0.0,0.0,1.7282,1.4986,1.2031,0.9213,0.788,0.5056,0.0443,-0.842,-1.2292,-1.4996,-1.931,-2.1966,-2.4097,-2.6277,-2.7351,0.0,0.0,0.0,0.0,0.0,0.0,0.0,0.0,0.0,0.0,0.0,0.0,0.0,0.0,0.0,0.0,0.0,0.0,0.0,-1.8008,-1.8008,-1.8008,-1.8008,-1.8008,-1.8008,-1.8008,-1.8008,-1.8008,-1.8008,-1.8008,-1.8008,-1.8008,-1.8921,-1.9759,-2.0655,-2.1365,-2.2187,-2.3078,-2.3078,-2.3078,-2.3078,-2.3078,-2.3078,-2.3078,-2.3078,-2.3078,-2.3245,0.0,0.0,0.0,0.0,0.0,0.0,0.0,0.0,0.0,0.0,3.2216,3.2422,0.0,0.0,0.0,0.0,0.0,0.0,3.164,0.0,0.0,3.1482,3.1482,3.214,3.3475,3.4849,3.626,3.7801,3.9175,3.9885,3.9935,3.9935,3.9986,4.007,4.007,4.002,3.9901,3.9209,3.8854,3.8635,3.7188,3.6615,3.6492,3.5638,3.4758,3.3945,3.3711,3.3003,3.1906,2.9973,2.913,0.0,0.0,0.0,2.0439,1.6601,1.371,1.1395,0.962,0.3877,-0.3016,-0.9061,-1.2292,-1.4996,-1.931,-2.1966,-2.429,0.0,0.0,0.0,0.0,0.0,0.0,0.0,0.0,0.0,0.0,0.0,0.0,0.0,0.0,0.0,0.0,0.0,0.0,0.0,0.0,0.0,-1.8008,-1.8008,-1.8008,-1.8008,-1.8008,-1.8008,-1.8008,-1.8008,-1.8008,-1.8008,-1.8008,-1.8008,-1.8008,-1.8921,-1.9759,-2.059,-2.0719,-2.1678,-2.3078,-2.3078,-2.3078,-2.3078,-2.3078,-2.3078,-2.3078,-2.3078,-2.3078,-2.3305,0.0,0.0,0.0,0.0,0.0,0.0,0.0,0.0,0.0,0.0,0.0,3.1853,0.0,0.0,0.0,3.1524,3.1482,3.1482,3.1482,3.1482,3.1482,3.1482,3.1482,3.214,3.3603,3.4626,3.6062,3.7939,3.8913,3.9662,4.007,4.007,4.007,4.007,4.007,4.007,4.007,3.9714,3.9558,3.9489,3.8325,3.7873,3.7815,3.7055,3.6244,3.5439,3.5439,3.4574,3.3227,3.2297,3.0724,2.8611,2.6118,0.0,0.0,0.0,1.5912,1.2511,0.9109,0.3624,-0.257,-0.8969,-1.2292,-1.4996,-1.931,-2.1966,-2.4158,-2.6539,0.0,0.0,0.0,0.0,0.0,0.0,0.0,0.0,0.0,0.0,0.0,0.0,0.0,0.0,0.0,0.0,0.0,0.0,0.0,-1.911,-1.8721,-1.8269,-1.8008,-1.8008,-1.8008,-1.8008,-1.8008,-1.8008,-1.8008,-1.8008,-1.8008,-1.8008,-1.8008,-1.8405,-1.9044,-1.9955,-2.091,-2.1741,-2.2445,-2.2884,-2.3078,-2.3078,-2.3078,-2.3078,-2.3078,-2.3078,-2.3078,-2.3305,0.0,0.0,0.0,0.0,0.0,0.0,0.0,0.0,0.0,0.0,0.0,0.0,0.0,0.0,0.0,0.0,3.1482,3.1482,3.1482,3.1482,3.1482,3.1482,3.1482,3.2098,3.3352,3.4431,3.5896,3.7728,3.8864,3.9698,4.0286,4.0466,4.0514,4.0514,4.0204,4.0254,4.0514,4.0385,4.0286,4.022,3.9475,3.9053,3.8799,3.8092,3.7345,3.6669,3.6841,3.5841,3.4369,3.4155,3.2166,2.9613,2.827,2.544,0.0,0.0,0.0,1.2318,0.6786,0.2743,-0.1769,-0.9052,-1.2383,-1.4921,-1.9017,0.0,-2.4036,0.0,0.0,0.0,0.0,0.0,0.0,0.0,0.0,0.0,0.0,0.0,0.0,0.0,0.0,0.0,0.0,0.0,0.0,0.0,0.0,-1.9628,-1.9628,-1.8596,-1.8076,-1.8337,-1.8144,-1.8008,-1.8008,-1.8008,-1.8008,-1.8008,-1.8008,-1.8008,-1.8008,-1.8202,-1.8596,-1.9044,-2.0782,-2.1803,-2.2261,-2.2823,-2.3078,-2.3078,-2.3078,-2.3078,-2.3078,-2.3078,-2.3078,-2.3305,0.0,0.0,0.0,0.0,0.0,0.0,0.0,0.0,0.0,0.0,0.0,0.0,3.1482,3.1482,3.1482,3.1482,3.1482,3.1482,3.1482,3.1482,3.1482,3.1482,3.1482,0.0,3.2556,3.4666,3.6123,3.683,3.9495,4.081,4.0856,4.1446,4.1725,4.1664,4.0594,4.0689,4.1664,4.1087,4.0856,4.081,4.0033,3.9408,3.8799,3.8092,3.7333,3.6781,3.7508,3.6735,3.5293,3.448,3.3607,3.2182,2.8386,2.6976,2.5937,0.0,0.0,0.0,0.2532,0.0176,-0.1853,-0.9767,-1.2845,-1.4771,0.0,0.0,0.0,0.0,0.0,0.0,0.0,0.0,0.0,0.0,0.0,0.0,0.0,0.0,0.0,0.0,0.0,0.0,0.0,0.0,0.0,0.0,0.0,-2.0526,-2.0526,-1.8911,-1.8405,-1.9233,-1.8462,-1.8008,-1.8008,-1.8008,-1.8008,-1.8008,-1.8008,-1.8008,-1.8008,-1.8854,-1.8787,-1.8134,-1.9879,-2.1542,-2.3065,-2.3065,-2.3078,-2.3078,-2.3078,-2.3078,-2.3078,-2.3078,-2.3078,-2.3305,0.0,0.0,0.0,0.0,0.0,0.0,0.0,0.0,0.0,0.0,0.0,0.0,0.0,3.1482,3.1278,3.0777,3.0208,3.0133,3.0703,3.0718,3.097,3.1467,3.1482,3.1586,3.1884,3.3465,3.4905,3.6156,3.803,3.9446,4.0368,4.0594,4.1122,4.1768,4.1375,4.142,4.181,4.1578,4.149,4.1429,4.1216,4.074,4.0099,3.936,3.8384,3.7394,3.7183,3.6159,3.4824,3.4467,3.3272,3.1639,3.0216,2.8265,2.563,2.0821,1.7513,1.3626,0.5313,-0.1754,-0.7566,-1.0973,-1.3444,-1.5628,-1.8224,-2.1222,0.0,0.0,0.0,0.0,0.0,0.0,0.0,0.0,0.0,0.0,0.0,0.0,0.0,0.0,0.0,0.0,0.0,0.0,0.0,0.0,0.0,0.0,-2.1428,-2.0333,-1.9562,-1.9299,-1.8977,-1.8596,-1.8008,-1.8008,-1.8008,-1.8008,-1.8008,-1.8008,-1.8008,-1.8337,-1.8586,-1.8921,-2.0074,-2.0974,-2.1604,-2.2689,-2.3078,-2.3078,-2.3078,-2.3078,-2.3078,-2.3078,-2.3078,-2.3245,0.0,0.0,0.0,0.0,0.0,0.0,0.0,0.0,0.0,3.1482,0.0,0.0,0.0,0.0,3.0777,2.995,2.9317,2.9254,2.9827,2.9889,3.0208,3.1087,3.1087,3.1219,3.1482,3.2844,3.4156,3.5433,3.7258,3.8791,4.001,4.0474,4.1076,4.181,4.2021,4.2185,4.2346,4.2203,4.2121,4.2121,4.2121,4.1621,4.0851,4.0349,3.9194,3.7801,3.7552,3.6368,3.4833,3.461,3.3429,3.1839,3.1101,2.8538,2.4931,2.0589,1.7827,1.4398,0.643,-0.1572,-0.8352,-1.117,-1.3743,-1.6149,-1.8356,0.0,0.0,0.0,0.0,0.0,0.0,0.0,0.0,0.0,0.0,0.0,0.0,0.0,0.0,0.0,0.0,0.0,0.0,0.0,0.0,0.0,0.0,0.0,-2.2322,-2.1227,-2.0204,-1.9299,-1.9044,-1.8596,-1.8008,-1.8008,-1.8008,-1.8008,-1.8008,-1.8008,-1.8008,-1.8008,-1.8462,-1.9365,-2.0204,-2.0782,-2.1164,-2.2494,-2.3078,-2.3078,-2.3078,-2.3078,-2.3078,-2.3078,-2.3078,-2.3185,0.0,0.0,0.0,0.0,0.0,0.0,0.0,0.0,3.1482,3.1467,0.0,0.0,0.0,0.0,0.0,2.9066,2.8939,2.8939,2.8939,2.8939,2.938,3.0208,3.0269,3.0644,3.1467,3.2885,3.3991,3.4654,3.7386,3.9067,3.9766,4.1121,4.175,4.181,4.2382,4.2976,4.3444,4.2939,4.2732,4.2732,4.2732,4.2003,4.0915,4.0897,3.9645,3.7956,3.8698,3.7468,3.5463,3.4884,3.4123,3.3111,3.0969,2.7786,2.4259,2.1241,1.7309,1.2362,0.0,0.0,0.0,-1.0454,-1.3908,0.0,-1.8523,0.0,0.0,0.0,0.0,0.0,0.0,0.0,0.0,0.0,0.0,0.0,0.0,0.0,0.0,0.0,0.0,0.0,0.0,0.0,0.0,0.0,0.0,-2.2261,-2.3005,-2.1479,-2.0204,-1.9365,-1.8462,-1.8008,-1.8008,-1.8008,-1.8008,-1.8008,-1.8008,-1.8008,-1.8008,-1.8008,-1.8462,-1.9299,-2.0204,-2.1049,-2.1877,-2.2763,-2.3078,-2.3078,-2.3078,-2.3078,-2.3078,-2.3078,-2.3078,-2.3185,0.0,0.0,0.0,0.0,0.0,3.1482,3.1482,3.1482,3.1278,0.0,0.0,0.0,2.9766,2.8939,2.8298,2.8051,2.755,2.7417,2.8051,2.8051,2.8427,2.9317,2.938,2.9766,3.0584,3.1497,3.2614,3.3952,3.5705,3.7236,3.8539,3.935,4.025,4.1178,4.1768,4.2364,4.2939,4.3178,4.3286,4.3286,4.3286,4.2466,4.1181,4.0667,3.9288,3.7575,0.0,3.6134,3.484,0.0,3.3818,3.2527,3.0851,2.8224,2.5135,2.2049,1.7691,1.238,0.5355,0.0,0.0,0.0,0.0,0.0,0.0,0.0,0.0,0.0,0.0,0.0,0.0,0.0,0.0,0.0,0.0,0.0,0.0,0.0,0.0,0.0,0.0,0.0,0.0,0.0,0.0,0.0,-2.2567,-2.2628,-2.2261,-2.1164,-2.0462,-2.0268,-1.8787,-1.8008,-1.8008,-1.8008,-1.8008,-1.8008,-1.8008,-1.8008,-1.8008,-1.8008,-1.8144,-1.8462,-1.9944,-2.0398,-2.0204,-2.2249,-2.3078,-2.3078,-2.3078,-2.3078,-2.3078,-2.3078,-2.3078,-2.3138,0.0,0.0,0.0,0.0,0.0,3.1482,3.1482,3.1482,3.1219,0.0,0.0,0.0,2.862,2.7986,2.7537,2.7229,2.6414,2.607,2.6514,2.6582,2.695,2.7841,2.8271,2.9066,3.0269,3.069,3.1685,3.3215,3.4599,3.5871,3.71,3.8371,3.9387,4.013,4.1039,4.175,4.2342,4.2921,4.3304,4.3461,4.313,4.2357,4.134,4.0564,3.9269,0.0,0.0,0.0,3.5278,3.4767,3.3684,0.0,0.0,2.8352,2.5512,2.2422,1.7883,1.2374,0.5355,-0.0952,-0.6704,-1.1652,0.0,0.0,-2.0526,-2.1996,0.0,0.0,0.0,0.0,0.0,0.0,0.0,0.0,0.0,0.0,0.0,0.0,0.0,0.0,0.0,0.0,0.0,0.0,0.0,-2.1939,-2.2002,-2.199,-2.1877,-2.0719,-2.0204,-2.059,-1.8911,-1.8008,-1.8008,-1.8008,-1.8008,-1.8008,-1.8008,-1.8008,-1.8008,-1.8008,-1.8405,-1.911,-2.0139,-2.0707,-2.1026,-2.2494,-2.2884,-2.2628,-2.2944,-2.3078,-2.3078,-2.3078,-2.3078,-2.3078,0.0,0.0,2.9002,2.9002,3.0329,3.1409,3.1482,3.1351,3.097,0.0,2.9954,2.9205,2.7631,2.7314,2.6982,2.6283,2.5356,2.4803,2.4862,2.4862,2.5252,2.6083,2.695,2.822,2.995,3.0133,3.0896,3.2351,3.3852,3.494,3.5663,3.7784,3.8785,3.8952,4.0105,4.1006,4.1587,4.2171,4.2741,4.3167,4.2543,4.1937,4.1288,4.0474,3.937,3.8178,3.7655,3.7029,3.6207,3.5001,3.3735,0.0,0.0,0.0,0.0,0.0,1.7943,1.2362,0.5355,0.0086,-0.5183,-1.2182,0.0,0.0,-2.14,-2.2178,-2.2776,0.0,0.0,0.0,0.0,0.0,0.0,0.0,0.0,0.0,0.0,0.0,0.0,0.0,0.0,0.0,0.0,-2.2384,-2.1877,-2.1753,-2.0974,-2.0846,-2.169,-2.0268,-1.9748,-2.0462,-1.8977,-1.8076,-1.8008,-1.8008,-1.8008,-1.8008,-1.8008,-1.8008,-1.8008,-1.8008,-1.8921,-2.0462,-2.059,-2.1479,-2.2823,-2.3005,-2.2702,-2.2125,-2.2823,-2.3078,-2.3078,-2.3078,-2.3078,-2.3078,2.6233,2.7855,2.9002,2.9002,2.9827,3.0777,3.1409,3.0329,2.9442,2.9254,2.7688,2.6387,2.6082,2.5004,2.4384,2.4626,2.3804,2.347,2.3795,2.3818,2.4253,2.5193,2.5417,2.6364,2.8182,2.8876,2.9737,3.0733,3.2796,3.4198,3.4917,3.6486,3.7533,3.8125,3.8842,3.9415,3.9975,4.054,4.1069,4.1625,4.2103,4.1834,4.1089,4.0266,3.9143,3.7918,3.7441,3.6886,3.6207,3.5001,3.4087,3.3235,0.0,0.0,0.0,2.3265,0.0,1.2362,0.5355,0.0086,-0.5183,0.0,0.0,0.0,-2.2296,-2.322,-2.3806,0.0,0.0,0.0,0.0,0.0,0.0,0.0,0.0,0.0,0.0,0.0,0.0,0.0,0.0,0.0,0.0,-2.2384,-2.1616,-2.091,-2.0074,-1.9944,-2.0782,-2.0526,-2.0074,-1.9562,-1.9233,-1.8721,-1.8008,-1.8008,-1.8008,-1.8008,-1.8008,-1.8008,-1.8008,-1.8008,-1.8596,-1.9562,-2.0268,-2.0782,-2.1164,-2.2555,-2.3017,-2.2884,-2.3017,-2.3078,-2.3078,-2.3078,-2.3078,-2.3078,2.5664,2.7191,2.8363,2.8363,2.9066,2.9766,3.0208,2.9313,2.8422,2.7994,2.6362,2.5065,2.4578,2.3935,2.3408,2.3247,2.2369,2.2001,2.2396,2.2429,2.2747,2.343,2.3963,2.5087,2.6938,2.7446,2.8552,3.0329,3.1743,3.2881,3.3682,3.5432,3.6434,3.685,3.787,3.8597,3.9147,3.9672,4.0202,4.0719,4.0976,0.0,4.0414,3.9606,3.8875,3.8183,3.747,3.6684,3.5881,3.4925,3.4137,0.0,0.0,2.9604,2.6215,0.0,1.857,1.2953,0.0,0.0,0.0,-1.1444,0.0,0.0,0.0,-2.2733,-2.343,0.0,0.0,0.0,0.0,0.0,0.0,0.0,0.0,0.0,0.0,0.0,0.0,0.0,0.0,0.0,0.0,-2.1101,-2.0268,-1.9365,-1.8921,-1.9044,-1.9879,-1.9944,-1.9944,-1.9944,-1.9562,-1.911,-1.8654,-1.8202,-1.8008,-1.8008,-1.8008,-1.8008,-1.8008,-1.8008,-1.8721,-1.9944,-2.0398,-2.1101,-2.1928,-2.275,-2.3078,-2.3078,-2.3078,-2.3078,-2.3078,-2.3078,-2.3078,-2.3138,2.4933,2.6296,2.7511,2.767,2.8298,2.8771,2.885,2.8222,2.7444,2.6593,2.5281,2.4116,2.3424,2.3015,2.249,2.168,2.0807,2.0369,2.0495,2.0595,2.0842,2.1322,2.2158,2.3414,2.5141,2.5514,2.685,2.9177,3.0232,3.1342,3.2407,3.423,3.5117,3.5349,3.6699,3.7551,3.8079,3.8666,3.9189,3.968,3.9452,3.9524,3.9644,3.8743,3.8401,3.8285,3.7377,3.6399,3.5515,3.4847,3.4137,3.3308,3.1769,2.945,0.0,0.0,0.0,0.0,0.0,0.0,0.0,0.0,0.0,-1.7618,0.0,0.0,0.0,0.0,0.0,0.0,0.0,0.0,0.0,0.0,0.0,0.0,0.0,0.0,0.0,0.0,0.0,0.0,0.0,-1.9879,-1.8911,-1.8076,-1.8008,-1.8337,-1.8977,-1.9233,-1.9562,-2.0074,-1.9562,-1.9299,-1.9299,-1.8462,-1.8076,-1.8269,-1.8076,-1.8008,-1.8008,-1.8134,-1.911,-2.059,-2.0782,-2.1741,-2.3078,-2.3078,-2.3078,-2.3078,-2.3078,-2.3078,-2.3078,-2.3078,-2.3198,-2.3424,2.4791,2.5787,2.671,2.7524,2.7802,2.7943,2.8222,2.6956,2.5686,2.5088,2.3806,2.2886,2.281,2.133,2.0052,1.9429,1.8882,1.8213,1.7458,1.7627,1.8057,1.8766,1.9158,1.986,2.0949,2.2692,2.4108,2.5269,2.7699,2.9774,3.1444,3.2322,3.3098,3.3864,3.4644,3.5265,3.5834,3.6498,3.7066,3.7552,3.75,3.8205,0.0,3.7846,3.7377,3.7285,3.6684,3.6097,3.5515,0.0,3.4137,3.3308,0.0,2.901,2.5648,2.2422,0.0,0.0,0.0,0.0,0.0,0.0,-1.3382,0.0,0.0,0.0,0.0,0.0,0.0,0.0,0.0,0.0,0.0,0.0,0.0,0.0,0.0,0.0,0.0,0.0,0.0,0.0,0.0,0.0,-1.8911,-1.8076,-1.8008,-1.8008,-1.8134,-1.8844,-1.8977,-1.8337,-1.8977,-1.9299,-1.9299,-1.8462,-1.8395,-1.911,-1.8395,-1.8008,-1.8008,-1.8787,-1.9694,-2.0655,-2.1428,-2.2261,-2.3078,-2.3078,-2.3078,-2.3078,-2.3078,-2.3078,-2.3078,-2.3078,-2.3543,-2.406,2.3073,2.399,2.4767,2.5204,2.5102,2.4949,2.5098,2.4038,2.297,2.2398,2.1882,2.1065,2.0029,1.923,1.7987,1.6062,1.5782,1.5391,0.0,1.4673,1.5016,1.5568,1.5707,1.6651,1.8424,1.9235,2.1022,2.3812,2.5494,2.7222,2.9142,3.0923,3.1906,3.2322,3.3872,3.475,3.4998,3.5985,3.6539,0.0,0.0,0.0,0.0,3.7297,3.6999,3.6684,3.6036,3.5487,3.4894,0.0,3.3582,0.0,0.0,0.0,0.0,0.0,0.0,0.0,0.0,0.0,0.0,0.0,0.0,0.0,-1.8246,0.0,-2.2389,0.0,0.0,0.0,0.0,0.0,0.0,0.0,0.0,0.0,0.0,0.0,0.0,0.0,0.0,0.0,0.0,0.0,0.0,0.0,0.0,-1.8008,-1.8008,-1.8854,-1.9365,-1.9497,-1.9879,-2.0268,-2.0782,-1.9944,-1.9431,-1.9299,-1.9431,-1.9233,-1.8787,-1.9694,-2.0526,-2.1365,-2.1753,-2.2384,-2.3078,-2.3078,-2.3078,-2.3078,-2.3078,-2.3078,-2.3078,-2.3078,-2.359,-2.4279,2.1517,2.2403,2.3103,2.3274,2.3104,2.2778,2.2509,2.1733,2.1059,2.0635,2.0182,1.9357,1.8054,1.7316,1.5965,1.355,1.3664,1.3362,0.0,0.0,1.227,1.2444,1.2625,1.3499,1.4953,1.5812,1.7847,2.1097,2.2626,2.4542,2.6747,2.8927,3.0335,3.1114,3.2898,3.3838,3.412,3.5397,3.5916,3.5916,3.6122,3.6182,3.6224,3.6603,3.6422,3.5856,3.5346,3.4795,3.4235,3.3531,3.2864,0.0,2.9017,0.0,0.0,0.0,0.0,0.0,0.6649,0.0,0.0,0.0,0.0,0.0,0.0,0.0,0.0,0.0,0.0,0.0,0.0,0.0,-2.4234,-2.4002,0.0,-2.4002,0.0,0.0,0.0,0.0,0.0,0.0,0.0,0.0,0.0,0.0,-1.8144,-1.8008,-1.8008,-1.8586,-1.9243,-1.989,-2.0139,-2.0655,-2.1553,-2.091,-2.0398,-2.0009,-2.0398,-2.0268,-1.9694,-2.059,-2.1302,-2.1877,-2.2137,-2.2567,-2.3078,-2.3078,-2.3078,-2.3078,-2.3078,-2.3078,-2.3138,-2.3365,-2.3943,-2.4681,2.0779,2.1375,2.2264,2.2838,2.2891,2.2554,2.1587,2.1003,2.0602,0.0,0.0,0.0,0.0,0.0,0.0,0.0,0.0,1.2831,1.1082,0.0,0.9994,0.0,1.0221,1.0424,0.9798,1.2632,1.4698,1.5627,1.8916,2.1956,2.4716,2.589,2.7866,3.0375,3.1056,3.187,3.2734,3.4087,3.4671,3.4719,3.5345,3.5622,3.5622,0.0,3.5237,3.4671,3.4624,0.0,0.0,3.2841,3.2069,0.0,0.0,0.0,0.0,0.0,0.0,0.0,0.0,0.0,0.0,-0.6958,0.0,0.0,0.0,0.0,-2.0892,0.0,0.0,0.0,0.0,-2.378,-2.406,-2.3245,-2.3767,0.0,0.0,0.0,0.0,0.0,0.0,0.0,0.0,0.0,0.0,-1.9243,-1.8462,-1.8008,-1.8008,-1.8008,-1.8076,-1.8076,-1.8921,-1.9748,-2.0655,-2.059,-2.0974,-2.1815,-2.0974,-2.059,-2.059,-2.1491,-2.1877,-2.1939,-2.2689,-2.3078,-2.3078,-2.3078,-2.3078,-2.3078,-2.3078,-2.3078,-2.3185,-2.3943,-2.4738,-2.5342,1.9756,1.9599,1.9954,2.0798,2.0146,0.0,0.0,1.7157,0.0,0.0,0.0,0.0,0.0,1.3375,1.2074,0.0,0.0,0.6623,0.3839,0.3591,0.0,0.0,0.3529,0.3928,0.4289,0.6991,0.9597,1.2094,1.5478,1.8677,2.1892,2.4095,2.6045,2.7735,3.0201,3.1444,0.0,0.0,0.0,0.0,0.0,3.4301,3.4301,0.0,0.0,3.4528,3.4087,3.3495,0.0,3.1625,3.072,2.9463,2.6255,2.3855,2.1319,1.6747,1.3496,0.0,0.0,0.0,-0.0309,-0.7198,0.0,0.0,0.0,0.0,0.0,0.0,0.0,0.0,0.0,-2.2932,-2.3424,-2.3125,-2.3305,-2.3424,0.0,0.0,0.0,0.0,0.0,0.0,0.0,0.0,0.0,-1.8462,-1.8134,-1.8008,0.0,-1.8008,-1.8269,-1.8854,-1.9694,-2.059,-2.1428,-2.199,-2.2125,-2.1877,-2.2125,-2.2002,-2.1491,-2.2322,-2.2689,-2.2689,-2.3005,-2.3424,-2.3826,-2.3305,-2.3424,-2.3826,-2.3305,-2.3424,-2.3943,-2.4176,-2.4794,-2.5398,1.863,1.79,1.7656,1.8467,0.0,0.0,0.0,0.0,0.0,0.0,1.4577,0.0,1.2371,0.0,0.9793,0.0,0.4626,0.2042,-0.0544,-0.1575,0.0,-0.2218,-0.227,-0.1401,0.0347,0.3321,0.6095,0.8543,1.2198,1.553,1.8629,2.1208,2.3438,2.5314,2.8234,2.9872,3.0499,3.2087,3.2977,0.0,0.0,3.3391,0.0,0.0,3.3661,3.3804,0.0,3.2275,3.1324,3.016,2.9074,2.7714,2.4733,2.2409,1.9913,1.5361,1.2466,1.0209,0.8012,0.4825,0.0,-0.5567,-0.8699,0.0,-1.3958,0.0,0.0,0.0,0.0,0.0,0.0,-2.2567,-2.3078,-2.3078,-2.3078,-2.3078,0.0,-2.3078,0.0,0.0,0.0,0.0,0.0,0.0,-1.9044,-1.8529,-1.8212,-1.8008,0.0,0.0,-1.8269,-1.8854,-2.0009,-2.0846,-2.1428,-2.2567,-2.2823,-2.2322,-2.2823,-2.2823,-2.2322,-2.2884,-2.3078,-2.3138,-2.3424,-2.3826,-2.4234,-2.3767,-2.3826,-2.4234,-2.3424,-2.3603,-2.435,-2.4567,-2.5175,-2.5783,1.7228,1.6012,0.0,0.0,1.5463,0.0,0.0,0.0,1.4942,0.0,1.3252,1.2004,1.2004,0.9669,0.708,0.4624,0.1626,-0.0778,-0.2177,-0.4851,0.0,0.0,-0.6673,-0.5457,-0.2573,0.1419,0.3914,0.4756,0.9104,1.2428,1.4949,1.7218,1.9969,2.3039,2.5184,2.7011,2.8754,3.0411,3.1611,3.2439,3.2369,3.277,3.3252,3.1893,0.0,3.2292,3.1696,3.0554,2.9189,2.8512,2.7242,2.5576,2.3391,2.1368,1.8988,1.4901,1.2251,1.0461,0.9555,0.5774,0.132,-0.2239,0.0,0.0,0.0,0.0,-1.8006,0.0,0.0,0.0,0.0,0.0,-2.3065,-2.3065,-2.3078,-2.3078,-2.3078,-2.3078,0.0,0.0,0.0,0.0,0.0,-2.0268,-1.9299,-1.9233,-1.8462,-1.8008,0.0,0.0,-1.8008,-1.8008,-1.9694,-2.059,-2.059,-2.2237,-2.3078,-2.3078,-2.3078,-2.3078,-2.3078,-2.3078,-2.3138,-2.3198,-2.3943,-2.435,-2.435,-2.435,-2.4292,-2.4234,-2.3484,-2.3649,-2.4452,-2.5119,-2.5837,-2.6457,1.3741,1.231,1.1238,0.0,1.2714,1.3578,0.0,0.0,0.0,0.0,1.0329,0.9728,0.8974,0.6878,0.4402,0.1471,-0.093,0.0,0.0,0.0,0.0,-0.7577,-0.8247,-0.833,-0.7761,-0.414,-0.1535,-0.0,0.4589,0.8099,1.0581,1.4084,1.7006,1.933,2.1976,2.4384,2.6505,2.7709,2.9085,3.0262,2.9086,2.944,0.0,0.0,2.8869,2.9522,2.9915,2.906,2.7762,2.7115,2.5878,2.4238,2.2516,1.9846,1.6982,1.5271,1.2364,0.9593,0.9357,0.615,0.1867,-0.2086,-0.6329,-1.0051,0.0,0.0,0.0,0.0,0.0,0.0,0.0,0.0,0.0,-2.3005,-2.3078,-2.3078,-2.3078,0.0,0.0,-2.2261,0.0,0.0,0.0,-1.9944,-1.9044,-1.8405,-1.8144,0.0,0.0,0.0,0.0,-1.8008,-1.9694,-2.059,-2.059,-2.2237,-2.3078,-2.3078,-2.3078,-2.3078,-2.3078,-2.3078,-2.3424,-2.4002,-2.4234,-2.4624,-2.5063,-2.4509,-2.4292,-2.4292,-2.406,-2.4452,-2.5119,-2.5342,-2.5508,-2.5618,1.2108,0.0,0.0,0.8187,0.0,0.0,1.0346,0.0,0.0,0.9372,0.8917,0.0,0.803,0.5345,0.232,-0.0621,-0.3649,0.0,-0.6876,0.0,0.0,-0.8544,-0.9057,-0.9381,-0.9632,-0.7344,0.0,-0.3144,0.0963,0.4412,0.7311,0.9865,1.2808,1.5979,1.8906,2.1399,2.3578,2.5801,2.7421,2.8537,2.7636,0.0,0.0,2.7355,2.694,2.7,2.6722,2.6549,2.6258,2.5239,2.4082,2.2812,2.1164,1.866,1.6165,1.4877,1.1998,0.9069,0.8241,0.5604,0.2103,-0.2094,-0.6207,-0.9706,-1.1193,-1.2684,-1.4235,0.0,0.0,0.0,0.0,0.0,0.0,-2.2944,-2.3078,-2.3005,0.0,0.0,0.0,0.0,-2.0782,0.0,0.0,0.0,-1.8529,-1.8008,0.0,0.0,0.0,0.0,0.0,-1.8008,-1.9694,-2.059,-2.059,-2.2237,-2.3078,-2.3078,-2.3078,-2.3078,-2.3078,-2.3078,-2.3365,-2.3826,-2.4176,-2.4509,-2.4908,-2.4452,-2.4292,-2.4292,-2.4292,-2.4567,-2.4894,-2.4894,-2.4894,-2.4851,1.0768,0.0,0.0,0.0,0.0,0.0,0.0,0.8761,0.0,0.8927,0.0,0.7561,0.7492,0.4119,0.0699,-0.2174,0.0,-0.8196,-0.8012,-0.8917,-0.9523,-0.9523,-0.9744,-0.991,-0.9875,-0.9187,-0.7679,-0.5314,-0.2188,0.1094,0.4446,0.5581,0.8458,1.2777,1.5749,1.8271,0.0,2.4039,2.6056,2.6831,2.6654,2.6785,2.6979,2.6249,2.5522,2.4721,2.3368,2.3688,2.4541,2.3175,2.2188,2.129,1.9607,1.7803,1.5896,1.3984,1.147,0.8917,0.7161,0.491,0.2105,-0.2027,-0.6224,-0.9478,-1.0301,-1.2084,-1.4091,-1.6,-1.7005,-1.7939,0.0,0.0,0.0,-2.2689,0.0,0.0,0.0,0.0,0.0,0.0,0.0,0.0,0.0,0.0,0.0,0.0,0.0,0.0,0.0,0.0,0.0,-1.8008,-1.9562,0.0,-2.059,0.0,-2.3017,-2.3078,-2.3078,-2.3078,-2.3078,-2.3078,-2.3138,-2.3305,-2.4002,-2.4292,-2.4292,-2.4292,-2.4292,-2.4292,-2.4292,-2.4292,-2.4292,-2.4292,-2.4234,-2.4118,0.5448,0.0,0.0,0.0,0.0,0.3102,0.1857,0.5986,0.8712,0.7061,0.6673,0.5715,0.3422,0.1475,-0.0852,-0.3934,-0.6433,0.0,0.0,0.0,0.0,-1.0565,-1.2044,-1.2592,-1.1845,-1.162,-1.0237,-0.7693,-0.5098,-0.2165,0.0938,0.3641,0.6391,0.9295,1.1977,0.0,1.9388,2.1402,0.0,2.454,2.3374,2.3986,2.5575,2.423,2.3573,2.3258,2.2421,2.2285,2.2357,2.1365,2.0451,1.9541,1.8485,1.6917,1.4988,1.3013,1.0983,0.9241,0.8856,0.6018,0.2105,-0.2027,-0.6224,-0.9337,-0.9523,-1.1087,-1.3091,-1.5013,-1.557,-1.6401,-1.8824,0.0,0.0,0.0,0.0,0.0,0.0,0.0,0.0,0.0,0.0,-1.911,0.0,0.0,0.0,0.0,0.0,0.0,0.0,0.0,0.0,0.0,0.0,0.0,0.0,0.0,-2.2445,-2.3078,-2.3078,-2.3078,-2.3078,-2.3078,-2.3484,-2.4118,-2.4234,-2.4292,-2.4292,-2.4292,-2.4292,-2.4292,-2.4292,-2.4292,-2.4292,-2.4292,-2.3884,-2.3305,0.0,0.0,0.0,0.0,0.0,0.0,0.0,0.0233,0.0,0.3902,0.446,0.375,0.1245,-0.0233,-0.2558,-0.6203,-0.7757,-0.8988,-1.004,-1.1019,-1.1835,-1.2265,-1.3222,-1.3745,-1.381,-1.275,-1.1556,-1.0289,-0.7087,-0.4327,-0.2013,0.1622,0.4701,0.7442,1.0695,1.4513,0.0,0.0,0.0,2.2238,2.1518,2.188,2.282,2.2089,2.1768,2.167,2.0824,2.0526,2.0462,2.0074,1.9628,1.909,1.7629,1.6253,1.4791,1.2809,1.084,0.9322,0.9269,0.6261,0.2105,-0.2027,-0.5449,-0.8008,-0.9069,-1.0421,-1.2191,-1.4657,-1.5234,-1.6062,-1.8813,-1.9617,0.0,0.0,0.0,0.0,0.0,0.0,0.0,0.0,0.0,0.0,0.0,0.0,0.0,0.0,0.0,0.0,0.0,0.0,0.0,0.0,0.0,0.0,0.0,0.0,0.0,-2.3078,-2.3078,-2.3078,-2.3078,-2.3078,-2.3305,-2.3649,-2.3649,-2.3649,-2.3649,-2.3649,-2.3649,-2.3649,-2.3649,-2.3649,-2.3649,-2.3649,-2.3424,-2.3078,0.0,-0.4831,0.0,0.0,-0.2097,0.0,-0.2801,-0.4851,-0.4538,0.0389,0.148,0.1012,-0.109,-0.2565,-0.4817,-0.8192,-0.916,-1.0045,-1.1013,-1.2063,-1.2952,-1.3673,-1.4099,-1.4593,-1.5163,-1.3829,-1.2802,-1.2225,-0.8844,-0.6332,-0.4479,-0.0619,0.3024,0.0,0.0,0.0,0.0,0.0,1.8342,2.0041,2.0041,2.0246,2.059,2.059,2.0462,2.0204,1.9562,1.9177,1.9044,1.9044,1.9044,1.87,1.6904,1.579,1.472,1.2304,1.0473,0.9241,0.8789,0.5948,0.2105,-0.2027,-0.4675,-0.6839,-0.8836,-1.0115,-1.1588,-1.4291,-1.5234,-1.6201,-1.8556,-1.9044,0.0,0.0,0.0,0.0,0.0,0.0,0.0,0.0,0.0,0.0,0.0,0.0,0.0,0.0,0.0,0.0,0.0,0.0,0.0,0.0,0.0,-1.9562,-2.059,0.0,-2.2002,0.0,-2.3005,-2.3078,-2.3078,-2.3078,-2.3078,-2.3078,-2.3078,-2.3078,-2.3078,-2.3078,-2.3078,-2.3078,-2.3078,-2.3078,-2.3078,-2.3078,-2.3005,-2.2823,0.0,0.0,0.0,0.0,0.0,0.0,0.0,-0.6119,-0.5404,-0.2965,-0.2575,-0.3357,-0.5482,-0.688,-0.8106,-0.9155,-1.0121,-1.1087,-1.2077,-1.3018,-1.36,-1.3673,-1.5367,-1.6,-1.5234,-1.5852,-1.4893,0.0,-1.0941,-0.884,-0.605,-0.3103,0.0,0.0,0.0,0.0,0.0,1.4696,1.6513,1.8131,1.8131,1.9149,2.059,2.059,2.0139,1.9431,1.9299,1.8787,1.8144,1.8144,1.8144,1.7784,1.5939,1.5305,1.4426,1.0691,0.9448,0.8927,0.7061,0.4857,0.2105,-0.2027,-0.4675,-0.6839,-0.8836,-1.0115,-1.1378,-1.344,-1.5226,-1.6784,-1.793,-1.8144,-1.8144,0.0,0.0,0.0,0.0,0.0,0.0,-1.8144,0.0,0.0,0.0,0.0,0.0,0.0,0.0,0.0,0.0,0.0,0.0,-1.9177,0.0,-1.8911,-2.059,-2.0655,0.0,-2.2002,-2.2763,-2.3078,-2.3078,-2.3078,-2.3078,-2.3078,-2.3078,-2.3078,-2.3078,-2.3078,-2.3078,-2.3078,-2.3078,-2.3078,-2.3078,-2.3078,-2.2641,-2.2002,0.0,0.0,0.0,0.0,0.0,0.0,0.0,-0.6268,-0.6028,-0.516,-0.501,-0.5332,-0.62,-0.7516,-0.8579,-0.9226,-1.019,-1.1242,-1.2224,-1.2666,-1.3091,-1.3673,-1.5013,-1.5869,-1.607,-1.586,-1.5217,0.0,0.0,-0.9627,-0.7431,-0.4791,0.0,0.0,0.0,1.0736,1.2298,1.3715,1.5076,1.6314,1.6314,1.672,1.7406,1.7968,1.7978,1.7736,1.8317,1.8269,1.8008,1.8008,1.8008,1.7657,1.5807,1.5234,1.4426,1.0479,0.9296,0.8851,0.6824,0.4701,0.2105,-0.2027,-0.4691,-0.6799,-0.8846,-0.9599,-1.0634,-1.315,-1.5226,-1.6922,-1.7862,-1.8008,-1.8008,0.0,0.0,0.0,0.0,0.0,0.0,0.0,0.0,-1.7647,0.0,0.0,0.0,0.0,0.0,0.0,0.0,0.0,0.0,-1.8529,0.0,-1.8596,-1.9824,-1.9814,-2.0526,-2.1877,-2.2261,-2.2628,-2.3078,-2.3078,-2.3078,-2.3078,-2.3078,-2.3078,-2.3078,-2.3078,-2.3078,-2.3078,-2.3078,-2.3078,-2.3078,-2.3078,-2.2567,-2.1815,-1.0104,0.0,-0.9145,0.0,-0.8461,-0.7936,-0.6872,-0.6718,-0.6644,-0.6338,-0.6274,-0.6437,-0.6732,-0.7885,-0.887,-0.9669,-1.064,-1.1539,-1.2224,-1.2592,-1.3171,-1.4099,-1.5084,0.0,-1.6991,-1.6079,-1.5517,-1.5234,-1.2531,0.0,-0.8959,0.0,0.0,0.0,0.6339,0.8954,1.1143,1.2211,1.3302,1.4347,1.4347,1.4649,1.5305,1.593,1.6219,1.6289,1.6932,1.7157,1.7157,1.7157,1.7157,1.6941,1.5587,1.4791,1.3693,1.0254,0.9074,0.847,0.6747,0.4701,0.2105,-0.2027,-0.4701,-0.6824,-0.8851,-0.9296,-1.0115,-1.3077,-1.5013,-1.6498,-1.7432,-1.7794,-1.8008,-1.8008,0.0,0.0,0.0,0.0,0.0,0.0,-1.8008,-1.7501,-1.6289,0.0,0.0,0.0,0.0,0.0,0.0,0.0,0.0,0.0,0.0,0.0,0.0,-1.9299,-2.0074,-2.1491,-2.1753,-2.2322,-2.3078,-2.3078,-2.3078,-2.3078,-2.3078,-2.3078,-2.3078,-2.3078,-2.3078,-2.3078,-2.3078,-2.3078,-2.3078,-2.2823,-2.2261,-2.1365,-1.2004,-1.0622,-0.9599,-1.0559,-0.9965,-0.8922,-0.7931,-0.7783,-0.7403,-0.6416,-0.6338,-0.6641,-0.771,-0.8694,-0.9669,-1.0714,-1.1694,-1.2298,-1.2305,-1.3171,-1.4099,0.0,0.0,-1.7001,-1.794,-1.707,-1.6149,-1.5234,0.0,0.0,-1.0703,0.0,-0.2629,0.0234,0.4426,0.7092,0.844,0.9758,1.1067,1.2225,1.2225,1.3397,1.5234,1.5234,1.5234,1.5234,1.5234,1.5234,1.5234,1.5234,1.5234,1.5234,1.5234,1.3837,1.1857,0.9884,0.8618,0.7561,0.6595,0.4701,0.2105,-0.2027,-0.4701,-0.6824,-0.8851,-0.9296,-1.0115,-1.3077,-1.4522,-1.5517,-1.6428,-1.7354,-1.8008,-1.8008,0.0,0.0,0.0,0.0,0.0,0.0,-1.8008,-1.7295,-1.5376,0.0,0.0,0.0,0.0,0.0,0.0,0.0,0.0,-1.9243,-1.8462,0.0,-1.9299,-1.9299,-1.9748,-2.0655,-2.1491,-2.2322,-2.3078,-2.3078,-2.3078,-2.3078,-2.3078,-2.3078,-2.3078,-2.3078,-2.3078,-2.3078,-2.3078,-2.3078,-2.3005,-2.2199,-2.1365,-2.0462,-1.2345,-1.1768,-1.1248,-1.0864,-1.0565,-0.9739,-0.8084,-0.7783,-0.7403,-0.6412,-0.6338,-0.6718,-0.7706,-0.8694,-0.9448,0.0,-1.1323,-1.2305,0.0,-1.3164,-1.381,-1.4171,-1.572,-1.6706,-1.707,-1.6775,-1.614,-1.5234,0.0,0.0,0.0,-0.6881,-0.4106,-0.1244,0.2398,0.4565,0.565,0.7977,0.9442,1.0254,1.0995,1.1662,1.2318,1.365,1.4171,1.4243,1.495,1.5234,1.5234,1.5234,1.4736,1.4171,1.4171,1.3266,1.1784,0.9884,0.8618,0.7561,0.6595,0.4701,0.2105,-0.2027,-0.4701,-0.6673,-0.794,-0.9362,-1.1007,-1.3222,-1.453,-1.5517,-1.6428,-1.7354,-1.8008,-1.8008,-1.8008,0.0,0.0,0.0,0.0,0.0,-1.8008,-1.7295,0.0,-1.6079,0.0,0.0,0.0,0.0,0.0,0.0,0.0,0.0,-1.8134,0.0,-1.8395,-1.8395,-1.9177,-2.059,-2.0846,-2.1741,-2.3078,-2.3078,-2.3078,-2.3078,-2.2506,-2.2567,-2.3078,-2.2506,-2.2628,-2.3078,-2.3078,-2.3078,-2.3005,-2.2199,-2.1365,-2.0462,-1.352,-1.2806,-1.2077,-1.1465,-1.1087,-1.026,-0.8613,-0.8012,-0.7403,-0.6412,-0.6338,-0.6567,-0.7176,-0.8466,0.0,-0.982,-1.1323,-1.2305,-1.2305,-1.3164,-1.3882,-1.4243,-1.579,-1.6784,-1.7139,0.0,0.0,-1.5234,-1.381,-1.205,-0.982,-0.7969,-0.5813,-0.3496,0.0232,0.2171,0.2868,0.6143,0.7778,0.821,0.8883,0.9567,1.0415,1.1964,1.2638,1.2705,1.373,1.4091,1.4091,1.4091,1.3665,1.3091,1.2712,1.1883,1.0834,0.9664,0.8313,0.7107,0.6443,0.4701,0.2105,-0.2027,-0.4701,-0.6673,-0.8016,-0.9664,-1.123,-1.2865,-1.3954,-1.495,-1.593,-1.6853,-1.7579,-1.794,-1.8008,-1.8008,-1.8008,0.0,0.0,0.0,0.0,0.0,0.0,-1.593,0.0,0.0,0.0,0.0,0.0,0.0,0.0,-1.8008,-1.8008,0.0,-1.8008,-1.8008,-1.8844,-2.059,-2.1227,-2.2113,-2.3078,-2.2823,-2.2641,-2.2628,-2.1741,-2.1877,-2.2628,-2.2125,-2.2384,-2.3078,-2.2763,-2.2641,-2.2506,-2.1353,-2.059,-2.0009,-1.5092,-1.3665,0.0,0.0,-1.1545,0.0,-0.9448,-0.8542,-0.7557,-0.6412,-0.6338,-0.6338,-0.6412,-0.8161,-0.9669,-1.0708,0.0,0.0,0.0,-1.3237,-1.4243,-1.5163,-1.614,-1.7139,-1.8008,-1.7139,-1.6219,-1.5234,-1.331,-1.1842,-1.0783,-0.9115,-0.7596,-0.6146,-0.2027,-0.0157,0.0235,0.4171,0.5964,0.6056,0.621,0.7439,0.9216,1.026,1.0708,1.0864,1.1848,1.2224,1.2224,1.2224,1.2224,1.2003,1.1013,1.004,0.9221,0.9221,0.7859,0.6268,0.6288,0.4701,0.2105,-0.2027,-0.4698,-0.6824,-0.8775,-0.9965,-1.1013,-1.1996,-1.3018,-1.3954,-1.495,-1.5869,-1.6784,-1.7647,-1.7794,-1.7794,-1.7794,0.0,0.0,0.0,0.0,0.0,0.0,-1.572,-1.5508,0.0,0.0,0.0,0.0,0.0,-1.8008,-1.8008,-1.8008,-1.8008,-1.8008,-1.8008,-1.8854,-2.0526,-2.2175,-2.2944,-2.2884,-2.2125,-2.1815,-2.1753,-2.091,-2.0974,-2.1815,-2.1753,-2.2187,-2.2884,-2.2125,-2.1815,-2.1616,-1.9944,-1.9299,-1.9177,0.0,0.0,-1.3171,-1.2445,-1.2077,-1.1323,-0.9599,-0.9069,-0.8313,-0.6567,-0.6338,-0.6567,-0.7326,-0.8542,-0.9669,-1.0708,-1.1694,-1.2305,-1.2305,-1.3882,-1.495,-1.5163,-1.6793,-1.7794,-1.8008,-1.7794,-1.6862,-1.5234,-1.3954,-1.2492,-1.0783,-0.9588,-0.8058,-0.6213,-0.3505,-0.1483,0.0078,0.1096,0.2423,0.3973,0.5668,0.6594,0.721,0.8978,0.9669,0.982,1.0789,1.1168,1.1168,1.1168,1.1168,1.1013,0.997,0.8993,0.8161,0.8161,0.7249,0.6268,0.6288,0.4701,0.2105,-0.2027,-0.4691,-0.6648,-0.7859,-0.8917,-0.997,-1.0938,-1.2492,-1.3745,-1.4027,-1.4879,-1.5587,-1.5807,-1.5869,-1.5869,-1.5869,-1.6498,0.0,0.0,-1.7579,-1.7364,-1.5658,-1.5305,-1.495,0.0,0.0,0.0,0.0,-1.7579,-1.8008,-1.8008,-1.8008,-1.8008,-1.8008,-1.8008,-1.8529,-1.9628,-2.0643,-2.1164,-2.1164,-2.0974,-2.091,-2.0846,-2.0009,-2.0074,-2.0846,-2.0204,-2.0398,-2.1164,-2.0974,-2.091,-2.0782,-1.9683,-1.9299,-1.9177,-1.5226,-1.4307,-1.3528,-1.3025,-1.2211,-1.1242,-1.0115,-0.9593,-0.8917,-0.7783,-0.7706,-0.7859,-0.8389,-0.9367,-1.019,-1.0783,-1.1694,-1.2305,-1.2305,-1.4091,-1.5234,-1.5234,-1.701,-1.8008,-1.8008,-1.8008,-1.7295,-1.586,-1.4879,-1.3578,-1.2117,-1.1069,-0.9401,-0.7126,-0.536,-0.2879,0.0,0.0,0.0626,0.1797,0.2957,0.459,0.6395,0.7528,0.8219,0.8765,0.9744,1.0115,1.0115,1.0115,1.0115,0.9965,0.8917,0.8237,0.7706,0.7257,0.6725,0.6274,0.6291,0.5422,0.313,-0.3046,-0.5401,-0.6567,-0.7553,-0.8618,-0.9593,-1.0559,-1.1977,-1.3171,-1.36,-1.4171,-1.4665,-1.5163,-1.5234,-1.5234,-1.5234,-1.6009,0.0,-1.6636,-1.707,-1.6932,-1.593,-1.5021,-1.4458,-1.4386,0.0,0.0,-1.6498,-1.707,-1.7579,-1.8008,-1.8008,-1.8008,-1.8008,-1.8405,-1.8844,-1.9299,-2.0204,-2.059,-2.059,-2.0204,-2.0009,-1.9955,-1.911,-1.9177,-1.9944,-1.9497,-1.9814,-2.059,-2.0139,-2.0009,-1.9879,-1.9044,-1.8432,-1.8007,-1.6627,-1.5296,-1.4099,-1.3954,-1.2405,-1.1156,-1.1001,-1.019,-0.9448,-0.9296,-0.9296,-0.9372,-0.9523,-1.0265,-1.0858,-1.1013,-1.1842,-1.2305,-1.2305,-1.4091,-1.5234,-1.5234,-1.701,-1.8008,-1.8008,-1.8008,-1.7579,-1.6636,-1.579,-1.4807,-1.3673,-1.2677,-1.0965,-0.8576,-0.6973,-0.4271,-0.0938,-0.0235,0.0,0.0,0.0,0.2111,0.5404,0.6076,0.6846,0.771,0.8533,0.8912,0.9069,0.9069,0.9069,0.8922,0.7859,0.7553,0.7407,0.6581,0.6041,0.5883,0.6217,0.559,0.3057,-0.4465,-0.6278,-0.649,-0.7403,-0.8466,-0.9523,-1.0415,-1.1465,-1.2519,-1.331,-1.3455,-1.3738,-1.4593,-1.4736,-1.4807,-1.495,0.0,-1.6428,-1.6567,-1.6706,-1.6706,-1.6419,-1.4879,-1.4171,-1.4736,-1.4099,-1.445,0.0,-1.6428,-1.6991,-1.7794,-1.794,-1.8008,-1.8008,-1.8721,-1.911,-1.911,-1.9814,-2.0204,-2.0204,-1.9431,-1.911,-1.9044,-1.8337,-1.8395,-1.911,-1.911,-1.9562,-2.0139,-1.9365,-1.911,-1.8977,-1.8269,-1.7432,-1.6636,-1.6904,-1.6349,-1.593,-1.5092,-1.4019,-1.2997,-1.2091,-1.1143,-1.0265,-0.9448,-0.9296,-0.9593,-1.049,-1.0708,-1.1162,-1.1996,-1.2224,-1.2305,-1.2305,-1.4091,-1.5234,-1.5234,-1.701,-1.8008,-1.8008,-1.8008,-1.7579,-1.6636,-1.6419,-1.5438,-1.3673,-1.2677,-1.1569,-1.0323,-0.7503,-0.5899,-0.5123,-0.1482,0.0,0.0,0.0,0.0391,0.133,0.4935,0.6433,0.6578,0.6689,0.7298,0.8012,0.8012,0.8012,0.7859,0.6872,0.6567,0.6493,0.6352,0.501,0.399,0.5836,0.2425,-0.2419,-0.5497,-0.6278,-0.6338,-0.649,-0.7936,-0.9372,-0.9523,-1.1025,-1.2372,-1.2519,-1.2519,-1.2592,-1.2732,-1.2732,-1.3018,-1.381,0.0,-1.572,-1.6498,-1.7285,-1.7148,-1.5587,-1.5163,-1.4378,-1.2879,-1.331,-1.3818,-1.4099,-1.572,-1.6636,-1.6784,-1.7579,-1.8008,-1.8008,-1.8144,-1.8202,-1.8202,-1.8337,-1.8395,-1.8395,-1.8269,-1.8202,-1.8202,-1.8076,-1.8076,-1.8202,-1.8202,-1.8269,-1.8395,-1.8269,-1.8202,-1.8202,-1.8076,-1.7432,-1.6636,-1.821,-1.7248,-1.6498,-1.6009,-1.5155,-1.4155,-1.3135,-1.2625,-1.2044,-1.1025,-1.095,-1.1099,-1.1545,-1.162,-1.1768,-1.2224,-1.2732,-1.3025,-1.3025,-1.4378,-1.5234,-1.5234,-1.701,-1.8008,-1.8008,-1.8008,-1.7794,-1.7354,-1.7354,-1.6645,-1.5226,-1.4275,-1.3034,-1.1501,-0.9552,-0.7808,-0.6207,-0.4194,-0.2727,-0.1563,-0.047,0.0,0.0234,0.2189,0.3599,0.4693,0.5864,0.657,0.6968,0.6957,0.6957,0.688,0.6416,0.6264,0.6274,0.6285,0.5581,0.4557,0.3222,-0.0,-0.3595,-0.5736,-0.6278,-0.6338,-0.6338,-0.7403,-0.8613,-0.9221,-1.0496,-1.1694,-1.2224,-1.2305,-1.2305,-1.2305,-1.2305,0.0,0.0,-1.381,-1.4522,-1.5013,-1.5446,-1.5305,-1.4458,-1.3947,-1.3237,-1.2372,-1.2739,-1.3171,-1.3673,-1.5084,-1.607,-1.6567,-1.7501,-1.8008,-1.8008,-1.8008,-1.8008,-1.8008,-1.8008,-1.8008,-1.8008,-1.8008,-1.8008,-1.8008,-1.8008,-1.8008,-1.8008,-1.8008,-1.8008,-1.8008,-1.8008,-1.8008,-1.8008,-1.8008,-1.7079,-1.5869,-1.9617,-1.8335,-1.7248,-1.7248,-1.628,-1.5305,-1.4522,-1.4171,-1.381,-1.3091,-1.2945,-1.2945,-1.2945,-1.2945,-1.2945,-1.2945,-1.3593,-1.4027,-1.4027,-1.495,-1.5517,-1.5517,-1.7079,-1.8008,-1.8008,-1.8008,-1.8008,-1.8008,-1.8008,-1.7501,-1.6567,-1.5658,-1.4283,-1.2531,-1.1292,-0.9412,-0.6981,-0.6517,-0.5366,-0.3673,-0.2112,-0.086,0.0,0.0,0.1017,0.2578,0.4231,0.5179,0.5572,0.5565,0.5879,0.6281,0.6271,0.6274,0.6285,0.6298,0.5596,0.4095,0.0864,-0.1487,-0.3595,-0.5736,-0.6278,-0.6338,-0.6338,-0.7249,-0.8389,-0.9145,-1.0265,-1.1391,-1.215,-1.2305,-1.2305,-1.2305,0.0,0.0,0.0,-1.3455,-1.4027,-1.4027,-1.4235,-1.4171,-1.3745,-1.3025,-1.2519,-1.2298,-1.2519,-1.2806,-1.3382,-1.4728,-1.5939,-1.6922,-1.7647,-1.8008,-1.8008,-1.8008,-1.8008,-1.8008,-1.8008,-1.8008,-1.8008,-1.8008,-1.8008,-1.8008,-1.8008,-1.8008,-1.8008,-1.8008,-1.8008,-1.8008,-1.8008,-1.8008,-1.794,-1.7725,-1.6645,-1.5163,-2.0655,-1.9748,-1.91,-1.91,-1.7658,-1.6489,-1.6419,-1.5649,-1.5092,-1.5021,-1.5021,-1.5021,-1.5021,-1.5021,-1.5021,-1.5021,-1.5021,-1.5092,-1.5092,-1.6,-1.6498,-1.6498,-1.7432,-1.8008,-1.8008,-1.8008,-1.8008,-1.8008,-1.8008,-1.7501,-1.6567,-1.5658,-1.4593,-1.352,-1.1594,-1.0185,-0.8988,-0.7057,-0.6234,-0.6038,-0.5892,-0.3524,0.0,0.0,0.0078,0.0235,0.0392,0.172,0.3359,0.3357,0.4621,0.6295,0.6295,0.6295,0.6298,0.6322,0.354,0.0393,0.0079,-0.1487,-0.3595,-0.5736,-0.6278,-0.6338,-0.6338,-0.7783,-0.9221,-0.9296,-1.0875,-1.2224,-1.2298,-1.2305,-1.2305,-1.2305,0.0,0.0,-1.3455,-1.445,-1.5092,-1.5092,-1.586,-1.5649,-1.3882,-1.3673,-1.3244,-1.2372,-1.3091,-1.3237,-1.2445,-1.5005,-1.6922,-1.7872,-1.794,-1.8008,-1.8008,-1.8008,-1.8008,-1.8008,-1.8008,-1.8008,-1.8008,-1.8008,-1.8008,-1.8008,-1.8008,-1.8008,-1.8008,-1.8008,-1.8008,-1.8008,-1.8008,-1.8008,-1.7872,-1.7001,-1.6079,-1.5092,-2.1491,-2.0719,-1.9944,-1.9365,-1.8757,-1.793,-1.6766,-1.628,-1.586,-1.5305,-1.5234,-1.5234,-1.5234,-1.5234,-1.5234,-1.5234,-1.572,-1.6079,-1.6079,-1.6932,-1.7501,-1.7501,-1.7794,-1.8008,-1.8008,-1.8008,-1.8008,-1.8008,-1.8008,-1.7794,-1.7432,-1.6507,-1.5579,-1.4593,-1.3215,-1.1749,-1.0115,-0.8746,-0.777,-0.7184,-0.6585,-0.5335,-0.3604,-0.1017,0.0,0.0,0.0,0.047,0.1175,0.1173,0.2584,0.4318,0.4309,0.5263,0.6318,0.6335,0.3306,-0.055,-0.3224,-0.3528,-0.3595,-0.5736,-0.6278,-0.649,-0.7099,-0.7859,-0.8689,-0.9965,-1.0864,-1.1545,-1.2224,-1.2305,-1.2305,-1.2305,0.0,-1.2445,-1.2806,-1.3164,-1.3375,-1.3375,-1.373,-1.3658,-1.2879,-1.2806,-1.2952,-1.3171,-1.2952,-1.3237,-1.4019,-1.5711,-1.7001,-1.794,-1.8008,-1.8008,-1.8008,-1.8008,-1.8008,-1.8008,-1.8008,-1.8008,-1.8008,-1.8008,-1.8008,-1.8008,-1.8008,-1.8008,-1.8008,-1.8008,-1.7647,-1.7139,-1.7139,-1.6793,-1.6228,-1.5869,-1.5084,-1.4243,-2.2261,-2.1616,-2.0846,-2.0204,-1.9879,-1.9212,-1.7658,-1.7453,-1.7111,-1.6219,-1.6088,-1.6088,-1.6088,-1.6088,-1.6088,-1.6088,-1.6645,-1.707,-1.707,-1.7647,-1.8008,-1.8008,-1.8008,-1.8008,-1.8008,-1.8008,-1.8008,-1.8008,-1.8008,-1.8008,-1.8008,-1.707,-1.628,-1.5587,-1.4307,-1.2778,-1.1143,-1.0185,-0.8993,-0.7706,-0.7034,-0.6585,-0.5892,-0.2344,-0.0548,0.0,0.0,0.0,0.0,0.0,0.0941,0.2118,0.2112,0.3137,0.4332,0.4339,0.2281,-0.0942,-0.5129,-0.519,-0.4462,-0.5967,-0.6274,-0.6567,-0.7553,-0.8008,-0.8765,-1.0484,-1.1087,-1.1465,-1.215,-1.2305,-1.2305,-1.2305,-1.2305,-1.2305,-1.2305,-1.2519,-1.2666,-1.2372,-1.2592,-1.2592,-1.2305,-1.2305,-1.2592,-1.3237,-1.3237,-1.4019,-1.5948,-1.6428,-1.7001,-1.794,-1.8008,-1.8008,-1.8008,-1.8008,-1.8008,-1.8008,-1.8008,-1.8008,-1.8008,-1.8008,-1.8008,-1.8008,-1.8008,-1.8008,-1.8008,-1.8008,-1.7432,-1.6636,-1.6636,-1.6009,-1.5163,-1.4879,-1.4307,-1.3673,-2.3078,-2.2445,-2.1877,-2.1877,-2.1175,-2.0333,-1.9431,-1.9299,-1.8977,-1.8134,-1.8008,-1.8008,-1.8008,-1.8008,-1.8008,-1.8008,-1.8008,-1.8008,-1.8008,-1.8008,-1.8008,-1.8008,-1.8008,-1.8008,-1.8008,-1.8008,-1.8008,-1.8008,-1.8008,-1.8008,-1.8008,-1.707,-1.6636,-1.6498,-1.4593,-1.3135,-1.2151,-1.1218,-0.9664,-0.7859,-0.7783,-0.7184,-0.6038,-0.39,-0.1872,-0.0078,-0.0,0.0,0.0,0.0,0.0,0.0,0.0,0.0,0.0,0.0,0.0,-0.0942,-0.5129,-0.6312,-0.6291,-0.6281,-0.6271,-0.6567,-0.7553,-0.8618,-0.9593,-1.0559,-1.162,-1.2305,-1.2305,-1.2305,-1.2305,-1.2305,-1.2305,-1.2305,-1.2305,-1.3098,-1.331,-1.2445,-1.3098,-1.331,-1.2372,-1.2305,-1.2305,-1.2298,-1.4091,-1.6018,-1.7872,-1.7139,-1.707,-1.794,-1.8008,-1.8008,-1.8008,-1.8008,-1.8008,-1.8008,-1.8008,-1.8008,-1.8008,-1.8008,-1.8008,-1.8008,-1.8008,-1.8008,-1.8008,-1.8008,-1.7432,-1.6567,-1.6567,-1.6,-1.5092,-1.4027,-1.3673,-1.3528,-2.3078,-2.2884,-2.2567,-2.2013,-2.169,-2.1239,-2.0333,-2.0204,-1.989,-1.9044,-1.8911,-1.8654,-1.8076,-1.8008,-1.8008,-1.8008,-1.8008,-1.8008,-1.8008,-1.8008,-1.8269,-1.8921,-1.8911,-1.8664,-1.8008,-1.8596,-1.8596,-1.8008,-1.8008,-1.8008,-1.8008,-1.7716,-1.7217,-1.6567,-1.5305,-1.4155,-1.3142,-1.152,-1.0484,-0.9814,-0.8385,-0.7161,-0.623,-0.5628,-0.4935,-0.3997,-0.1096,0.0,0.0,0.0,0.0,0.0,0.0,0.0,0.0,0.0,0.0,-0.0627,-0.3288,-0.5176,-0.6285,-0.6278,-0.6271,-0.6567,-0.7553,-0.8618,-0.9593,-1.0559,-1.162,-1.2305,-1.2305,-1.2305,-1.2305,-1.2305,-1.2305,-1.2305,-1.2305,-1.2519,-1.2592,-1.2305,-1.2519,-1.2592,-1.2305,-1.2305,-1.2879,-1.4235,-1.6088,-1.7148,-1.7001,-1.7364,-1.7716,-1.8008,-1.8008,-1.8008,-1.8008,-1.8008,-1.8008,-1.8008,-1.8008,-1.8008,-1.8008,-1.8008,-1.8008,-1.8008,-1.8008,-1.8008,-1.8008,-1.8008,-1.7079,-1.5658,-1.5658,-1.4585,-1.3164,-1.2806,-1.2732,-1.2666,-2.3078,-2.3078,-2.2957,-2.2445,-2.2384,-2.2063,-2.1227,-2.1101,-2.0782,-1.9955,-1.9814,-1.9617,-1.911,-1.8721,-1.8529,-1.8529,-1.8202,-1.8008,-1.8008,-1.8337,-1.8721,-1.9309,-1.9944,-1.9748,-1.8529,-1.8721,-1.8529,-1.8008,-1.8008,-1.8008,-1.8008,-1.8008,-1.7501,-1.6567,-1.6009,-1.5021,-1.36,-1.2485,-1.1527,-1.0708,-0.9513,-0.7901,-0.6283,-0.6311,-0.6264,-0.597,-0.3443,-0.1399,0.0,0.0,0.0,0.0,0.0,0.0,0.0,0.0,0.0,-0.0625,-0.3593,-0.5323,-0.6278,-0.6274,-0.6268,-0.6641,-0.8089,-0.8846,-0.9669,-1.1093,-1.1848,-1.2305,-1.2305,-1.2305,-1.2305,-1.2305,-1.2305,-1.2305,-1.2305,-1.2305,-1.2305,-1.2305,-1.2305,-1.2305,-1.2305,-1.2305,-1.2952,-1.4522,-1.6018,-1.6793,-1.6636,-1.7501,-1.8008,-1.8008,-1.8008,-1.8008,-1.8008,-1.8008,-1.8008,-1.8008,-1.8008,-1.8008,-1.8008,-1.8008,-1.8008,-1.8008,-1.7579,-1.7647,-1.794,-1.7226,-1.6228,-1.5163,-1.4736,-1.3665,-1.2305,-1.2305,-1.2305,-1.2305,-2.3078,-2.3078,-2.3078,-2.3078,-2.3078,-2.2823,-2.2137,-2.2002,-2.169,-2.0846,-2.0719,-2.0719,-2.059,-1.9879,-1.9431,-1.9431,-1.8721,-1.8202,-1.8144,-1.8911,-1.9431,-1.9562,-2.0974,-2.1037,-1.9431,-1.8664,-1.8134,-1.8008,-1.8008,-1.8008,-1.8008,-1.8008,-1.7579,-1.6706,-1.6567,-1.5508,-1.381,-1.3673,-1.2565,-1.0938,-1.0858,-0.9175,-0.6809,-0.6423,-0.63,-0.6271,-0.6338,-0.3838,-0.0526,-0.015,0.0,-0.0073,-0.0364,-0.0296,-0.0075,-0.0454,-0.0537,-0.1402,-0.5243,-0.6278,-0.6274,-0.6264,-0.6338,-0.6795,-0.8618,-0.9145,-0.9825,-1.1626,-1.215,-1.2305,-1.2305,-1.2305,-1.2305,-1.2305,-1.2305,-1.2305,-1.2305,-1.2305,-1.2305,-1.2305,-1.2305,-1.2305,-1.2305,-1.2378,-1.2806,-1.3673,-1.4593,-1.5587,-1.6567,-1.7432,-1.794,-1.8008,-1.794,-1.794,-1.8008,-1.7794,-1.7794,-1.8008,-1.794,-1.7862,-1.7872,-1.7794,-1.7725,-1.7725,-1.6853,-1.6922,-1.7657,-1.5869,-1.5163,-1.495,-1.4027,-1.3098,-1.2305,-1.2305,-1.2305,-1.2305,-2.3078,-2.3078,-2.3078,-2.3078,-2.3078,-2.3065,-2.2884,-2.2823,-2.2567,-2.1753,-2.1628,-2.1365,-2.0655,-2.0398,-2.0333,-2.0333,-2.0139,-1.9759,-1.9044,-1.9814,-2.0655,-2.1302,-2.1037,-2.0719,-2.0333,-2.0139,-1.9365,-1.8008,-1.8008,-1.8008,-1.8008,-1.8008,-1.7872,-1.7647,-1.6149,-1.5305,-1.4807,-1.3237,-1.2365,-1.1922,-1.1087,-1.0887,-1.0692,-0.7503,-0.6276,-0.6276,-0.628,-0.5692,-0.442,-0.1149,0.0,-0.0507,-0.3346,-0.2291,-0.068,-0.394,-0.4916,-0.5165,-0.6038,-0.6271,-0.6264,-0.6338,-0.6338,-0.6416,-0.6872,-0.8161,-0.9448,-0.9825,-1.1174,-1.2305,-1.2305,-1.2305,-1.2305,-1.2305,-1.2305,-1.2305,-1.2305,-1.2305,-1.2305,-1.2305,-1.2305,-1.2305,-1.2305,-1.2952,-1.3455,-1.3673,-1.4593,-1.5587,-1.6567,-1.6784,-1.7217,-1.8008,-1.7285,-1.7285,-1.8008,-1.6515,-1.6515,-1.8008,-1.7285,-1.6922,-1.6853,-1.6149,-1.5807,-1.5799,-1.5587,-1.5587,-1.5799,-1.5376,-1.4736,-1.4027,-1.3818,-1.3098,-1.2305,-1.2305,-1.2305,-1.2305,-2.3649,-2.3365,-2.3078,-2.3078,-2.3078,-2.3078,-2.3078,-2.3078,-2.2944,-2.2506,-2.2445,-2.231,-2.1865,-2.1428,-2.1037,-2.0655,-2.059,-2.0398,-1.9944,-2.0719,-2.1428,-2.1877,-2.1491,-2.1049,-2.059,-2.0204,-1.9299,-1.8008,-1.8008,-1.8008,-1.8008,-1.8008,-1.7794,-1.7285,-1.6289,-1.5367,-1.445,-1.3382,-1.2732,-1.2224,-1.1694,-1.1825,-1.2045,-0.996,-0.7995,-0.6332,-0.631,-0.6106,-0.5509,-0.3328,-0.2551,-0.294,-0.4776,-0.4285,-0.3415,-0.5664,-0.63,-0.6271,-0.6271,-0.6268,-0.6338,-0.6338,-0.6338,-0.6416,-0.6872,-0.8237,-0.9448,-0.989,-1.1248,-1.2305,-1.2305,-1.2305,-1.2305,-1.2305,-1.2305,-1.2305,-1.2305,-1.2305,-1.2305,-1.2305,-1.2305,-1.2305,-1.2305,-1.2732,-1.3025,-1.3025,-1.3954,-1.4665,-1.5226,-1.5649,-1.6149,-1.6655,-1.6219,-1.6149,-1.6655,-1.5658,-1.5658,-1.6655,-1.6149,-1.593,-1.593,-1.5446,-1.5234,-1.5163,-1.4665,-1.4736,-1.5163,-1.4235,-1.3738,-1.3673,-1.3237,-1.2732,-1.2305,-1.2305,-1.2305,-1.2305,-2.4509,-2.3826,-2.3305,-2.3305,-2.3198,-2.3078,-2.3078,-2.3078,-2.3078,-2.3078,-2.3078,-2.3078,-2.3078,-2.2506,-2.1753,-2.091,-2.0974,-2.0974,-2.0846,-2.1616,-2.2137,-2.2137,-2.2137,-2.1616,-2.0655,-1.9879,-1.9044,-1.8008,-1.8008,-1.8008,-1.8008,-1.8008,-1.7579,-1.6853,-1.6636,-1.5649,-1.3962,-1.3745,-1.3164,-1.2305,-1.2305,-1.2271,-1.2269,-1.23,-0.9813,-0.6318,-0.6289,-0.593,-0.5408,-0.5423,-0.5383,-0.541,-0.5427,-0.5834,-0.6321,-0.6268,-0.6325,-0.6338,-0.6338,-0.6338,-0.6338,-0.6338,-0.6338,-0.649,-0.7326,-0.8313,-0.9296,-1.034,-1.1316,-1.2077,-1.2305,-1.2305,-1.2305,-1.2305,-1.2305,-1.2305,-1.2305,-1.2305,-1.2305,-1.2305,-1.2305,-1.2305,-1.2305,-1.2305,-1.2305,-1.2305,-1.3025,-1.3528,-1.3673,-1.4522,-1.5021,-1.5163,-1.5021,-1.5021,-1.5234,-1.4879,-1.4807,-1.495,-1.4807,-1.4807,-1.495,-1.4807,-1.4736,-1.4665,-1.381,-1.3954,-1.4593,-1.2945,-1.2732,-1.3382,-1.2592,-1.2305,-1.2305,-1.2305,-1.2305,-1.2305,-2.5231,-2.4681,-2.4118,-2.4118,-2.3543,-2.3078,-2.3078,-2.3078,-2.3078,-2.3078,-2.3078,-2.3078,-2.3078,-2.3005,-2.2628,-2.1815,-2.2372,-2.2445,-2.1753,-2.2506,-2.2944,-2.2944,-2.2944,-2.2187,-2.0655,-2.0462,-1.9628,-1.8008,-1.8008,-1.8008,-1.8008,-1.8008,-1.794,-1.7794,-1.6991,-1.6,-1.495,-1.4099,-1.3164,-1.2305,-1.2305,-1.2311,-1.2325,-1.2269,-0.9804,-0.6273,-0.6314,-0.5888,-0.5402,-0.5386,-0.538,-0.5402,-0.5399,-0.5835,-0.6264,-0.6266,-0.6321,-0.6338,-0.6338,-0.6338,-0.6338,-0.6338,-0.6338,-0.6338,-0.649,-0.7249,-0.8313,-0.9296,-1.0265,-1.1242,-1.215,-1.2305,-1.2305,-1.2305,-1.2305,-1.2305,-1.2305,-1.2305,-1.2305,-1.2305,-1.2305,-1.2305,-1.2305,-1.2305,-1.2305,-1.2305,-1.2445,-1.2806,-1.3673,-1.3818,-1.4314,-1.5163,-1.4378,-1.4314,-1.5163,-1.352,-1.3091,-1.3882,-1.3091,-1.3091,-1.389,-1.3098,-1.2659,-1.2659,-1.2519,-1.2592,-1.2659,-1.2445,-1.2372,-1.2445,-1.2378,-1.2305,-1.2305,-1.2305,-1.2305,-1.2305,-2.6014,-2.5398,-2.4894,-2.4894,-2.4279,-2.3767,-2.3767,-2.3365,-2.3078,-2.3078,-2.3078,-2.3078,-2.3078,-2.3078,-2.2944,-2.2628,-2.2884,-2.2944,-2.2567,-2.2884,-2.3078,-2.3078,-2.2689,-2.2063,-2.1365,-2.0398,-1.9497,-1.8721,-1.8269,-1.8008,-1.8008,-1.8008,-1.8008,-1.794,-1.7001,-1.607,-1.5163,-1.4099,-1.3164,-1.2305,-1.2305,-1.2305,-1.2318,-1.2315,-1.1232,-0.9362,-0.7112,-0.6141,-0.5875,-0.5875,-0.5875,-0.5902,-0.5905,-0.6108,-0.6293,-0.6294,-0.6338,-0.6338,-0.6338,-0.6338,-0.6338,-0.6338,-0.6338,-0.6338,-0.6338,-0.6644,-0.7403,-0.8998,-1.0115,-1.1087,-1.2077,-1.2305,-1.2305,-1.2305,-1.2305,-1.2305,-1.2305,-1.2305,-1.2305,-1.2305,-1.2305,-1.2305,-1.2305,-1.2305,-1.2305,-1.2305,-1.2305,-1.2445,-1.2879,-1.2952,-1.3091,-1.3593,-1.3164,-1.3091,-1.3593,-1.2732,-1.2519,-1.2879,-1.2519,-1.2519,-1.2879,-1.2519,-1.2305,-1.2305,-1.2305,-1.2305,-1.2305,-1.2305,-1.2305,-1.2305,-1.2305,-1.2305,-1.2305,-1.2305,-1.2305,-1.2305]}]]